<?xml version="1.0" encoding="UTF-8" standalone="no" ?>
<gpx xmlns="http://www.topografix.com/GPX/1/1" xmlns:xsi="http://www.w3.org/2001/XMLSchema-instance" xsi:schemaLocation="http://www.topografix.com/GPX/1/1 http://www.topografix.com/GPX/1/1/gpx.xsd" version="1.1" creator="VisuGPX - https://www.visugpx.com">
  <metadata>
    <name>2015-07-05 Autour du Charmant Som</name>
    <desc><![CDATA[Au départ de la porte de l\'Enclos]]></desc>
  </metadata>
  <trk>
    <name><![CDATA[kjgffhjjvffg]]></name>
    <trkseg>
      <trkpt lat="45.34508" lon="5.79508">
        <ele>765</ele>
        <time>2015-07-05T06:14:50Z</time>
      </trkpt>
      <trkpt lat="45.34508" lon="5.79507">
        <ele>765</ele>
        <time>2015-07-05T06:14:55Z</time>
      </trkpt>
      <trkpt lat="45.34507" lon="5.79506">
        <ele>765</ele>
        <time>2015-07-05T06:15:00Z</time>
      </trkpt>
      <trkpt lat="45.34513" lon="5.795">
        <ele>762.235170765</ele>
        <time>2015-07-05T06:15:05Z</time>
      </trkpt>
      <trkpt lat="45.34514" lon="5.79471">
        <ele>765.043216795</ele>
        <time>2015-07-05T06:15:16Z</time>
      </trkpt>
      <trkpt lat="45.34518" lon="5.79459">
        <ele>768.882595795</ele>
        <time>2015-07-05T06:15:21Z</time>
      </trkpt>
      <trkpt lat="45.34522" lon="5.79408">
        <ele>774.726245339</ele>
        <time>2015-07-05T06:15:35Z</time>
      </trkpt>
      <trkpt lat="45.34525" lon="5.79403">
        <ele>774.726245339</ele>
        <time>2015-07-05T06:15:40Z</time>
      </trkpt>
      <trkpt lat="45.34523" lon="5.79389">
        <ele>780.949640384</ele>
        <time>2015-07-05T06:15:45Z</time>
      </trkpt>
      <trkpt lat="45.34524" lon="5.79388">
        <ele>780.949640384</ele>
        <time>2015-07-05T06:15:51Z</time>
      </trkpt>
      <trkpt lat="45.34528" lon="5.79346">
        <ele>786.93887268</ele>
        <time>2015-07-05T06:16:06Z</time>
      </trkpt>
      <trkpt lat="45.34531" lon="5.79334">
        <ele>791.795153056</ele>
        <time>2015-07-05T06:16:11Z</time>
      </trkpt>
      <trkpt lat="45.34529" lon="5.79324">
        <ele>791.795153056</ele>
        <time>2015-07-05T06:16:21Z</time>
      </trkpt>
      <trkpt lat="45.34534" lon="5.79323">
        <ele>797.208624431</ele>
        <time>2015-07-05T06:16:26Z</time>
      </trkpt>
      <trkpt lat="45.34527" lon="5.7934">
        <ele>801.842073615</ele>
        <time>2015-07-05T06:16:36Z</time>
      </trkpt>
      <trkpt lat="45.3453" lon="5.79351">
        <ele>801.842073615</ele>
        <time>2015-07-05T06:16:41Z</time>
      </trkpt>
      <trkpt lat="45.34523" lon="5.79349">
        <ele>805.57608142</ele>
        <time>2015-07-05T06:16:51Z</time>
      </trkpt>
      <trkpt lat="45.3452" lon="5.79339">
        <ele>805.57608142</ele>
        <time>2015-07-05T06:16:56Z</time>
      </trkpt>
      <trkpt lat="45.34525" lon="5.79311">
        <ele>809.307756092</ele>
        <time>2015-07-05T06:17:06Z</time>
      </trkpt>
      <trkpt lat="45.34524" lon="5.79304">
        <ele>809.307756092</ele>
        <time>2015-07-05T06:17:11Z</time>
      </trkpt>
      <trkpt lat="45.34515" lon="5.793">
        <ele>812.208955429</ele>
        <time>2015-07-05T06:17:21Z</time>
      </trkpt>
      <trkpt lat="45.34513" lon="5.79308">
        <ele>812.208955429</ele>
        <time>2015-07-05T06:17:26Z</time>
      </trkpt>
      <trkpt lat="45.3449" lon="5.79324">
        <ele>814.038592596</ele>
        <time>2015-07-05T06:17:41Z</time>
      </trkpt>
      <trkpt lat="45.34476" lon="5.79321">
        <ele>815.262395826</ele>
        <time>2015-07-05T06:17:46Z</time>
      </trkpt>
      <trkpt lat="45.34501" lon="5.79298">
        <ele>816.813832594</ele>
        <time>2015-07-05T06:17:56Z</time>
      </trkpt>
      <trkpt lat="45.34495" lon="5.79298">
        <ele>816.813832594</ele>
        <time>2015-07-05T06:18:01Z</time>
      </trkpt>
      <trkpt lat="45.34512" lon="5.79281">
        <ele>820.186556526</ele>
        <time>2015-07-05T06:18:10Z</time>
      </trkpt>
      <trkpt lat="45.34514" lon="5.79268">
        <ele>823.09036496</ele>
        <time>2015-07-05T06:18:16Z</time>
      </trkpt>
      <trkpt lat="45.34514" lon="5.79251">
        <ele>825.754424809</ele>
        <time>2015-07-05T06:18:26Z</time>
      </trkpt>
      <trkpt lat="45.34506" lon="5.79241">
        <ele>828.221038561</ele>
        <time>2015-07-05T06:18:31Z</time>
      </trkpt>
      <trkpt lat="45.34505" lon="5.79225">
        <ele>830.212083515</ele>
        <time>2015-07-05T06:18:41Z</time>
      </trkpt>
      <trkpt lat="45.34505" lon="5.79216">
        <ele>830.212083515</ele>
        <time>2015-07-05T06:18:46Z</time>
      </trkpt>
      <trkpt lat="45.34504" lon="5.79211">
        <ele>831.794175622</ele>
        <time>2015-07-05T06:18:56Z</time>
      </trkpt>
      <trkpt lat="45.34501" lon="5.79217">
        <ele>831.794175622</ele>
        <time>2015-07-05T06:19:01Z</time>
      </trkpt>
      <trkpt lat="45.34502" lon="5.7923">
        <ele>833.024426824</ele>
        <time>2015-07-05T06:19:11Z</time>
      </trkpt>
      <trkpt lat="45.3451" lon="5.79225">
        <ele>834.400326475</ele>
        <time>2015-07-05T06:19:16Z</time>
      </trkpt>
      <trkpt lat="45.34499" lon="5.79205">
        <ele>837.535009634</ele>
        <time>2015-07-05T06:19:31Z</time>
      </trkpt>
      <trkpt lat="45.34496" lon="5.79194">
        <ele>837.535009634</ele>
        <time>2015-07-05T06:19:36Z</time>
      </trkpt>
      <trkpt lat="45.34495" lon="5.79197">
        <ele>840.488596796</ele>
        <time>2015-07-05T06:19:46Z</time>
      </trkpt>
      <trkpt lat="45.34491" lon="5.79203">
        <ele>840.488596796</ele>
        <time>2015-07-05T06:19:51Z</time>
      </trkpt>
      <trkpt lat="45.34493" lon="5.79219">
        <ele>842.991623096</ele>
        <time>2015-07-05T06:20:01Z</time>
      </trkpt>
      <trkpt lat="45.34486" lon="5.79224">
        <ele>842.991623096</ele>
        <time>2015-07-05T06:20:06Z</time>
      </trkpt>
      <trkpt lat="45.34486" lon="5.79244">
        <ele>846.3705318</ele>
        <time>2015-07-05T06:20:16Z</time>
      </trkpt>
      <trkpt lat="45.34493" lon="5.79251">
        <ele>846.3705318</ele>
        <time>2015-07-05T06:20:21Z</time>
      </trkpt>
      <trkpt lat="45.3449" lon="5.79268">
        <ele>849.409559641</ele>
        <time>2015-07-05T06:20:31Z</time>
      </trkpt>
      <trkpt lat="45.34483" lon="5.79281">
        <ele>852.137961696</ele>
        <time>2015-07-05T06:20:36Z</time>
      </trkpt>
      <trkpt lat="45.34476" lon="5.79288">
        <ele>852.137961696</ele>
        <time>2015-07-05T06:20:46Z</time>
      </trkpt>
      <trkpt lat="45.34478" lon="5.79284">
        <ele>854.859425976</ele>
        <time>2015-07-05T06:20:51Z</time>
      </trkpt>
      <trkpt lat="45.34475" lon="5.79272">
        <ele>857.989215188</ele>
        <time>2015-07-05T06:21:01Z</time>
      </trkpt>
      <trkpt lat="45.34467" lon="5.79267">
        <ele>857.989215188</ele>
        <time>2015-07-05T06:21:06Z</time>
      </trkpt>
      <trkpt lat="45.34466" lon="5.79245">
        <ele>860.799884956</ele>
        <time>2015-07-05T06:21:16Z</time>
      </trkpt>
      <trkpt lat="45.34458" lon="5.79243">
        <ele>860.799884956</ele>
        <time>2015-07-05T06:21:21Z</time>
      </trkpt>
      <trkpt lat="45.3445" lon="5.79223">
        <ele>863.035359516</ele>
        <time>2015-07-05T06:21:31Z</time>
      </trkpt>
      <trkpt lat="45.34456" lon="5.79215">
        <ele>863.035359516</ele>
        <time>2015-07-05T06:21:36Z</time>
      </trkpt>
      <trkpt lat="45.34443" lon="5.79183">
        <ele>865.42948382</ele>
        <time>2015-07-05T06:21:51Z</time>
      </trkpt>
      <trkpt lat="45.34451" lon="5.79172">
        <ele>867.413394668</ele>
        <time>2015-07-05T06:21:56Z</time>
      </trkpt>
      <trkpt lat="45.34443" lon="5.79151">
        <ele>869.433894314</ele>
        <time>2015-07-05T06:22:06Z</time>
      </trkpt>
      <trkpt lat="45.34443" lon="5.79142">
        <ele>869.433894314</ele>
        <time>2015-07-05T06:22:11Z</time>
      </trkpt>
      <trkpt lat="45.34436" lon="5.7915">
        <ele>871.772404953</ele>
        <time>2015-07-05T06:22:21Z</time>
      </trkpt>
      <trkpt lat="45.34435" lon="5.79154">
        <ele>871.772404953</ele>
        <time>2015-07-05T06:22:26Z</time>
      </trkpt>
      <trkpt lat="45.34443" lon="5.7916">
        <ele>873.987018858</ele>
        <time>2015-07-05T06:22:36Z</time>
      </trkpt>
      <trkpt lat="45.34436" lon="5.79162">
        <ele>873.987018858</ele>
        <time>2015-07-05T06:22:41Z</time>
      </trkpt>
      <trkpt lat="45.34436" lon="5.79165">
        <ele>876.801284162</ele>
        <time>2015-07-05T06:22:51Z</time>
      </trkpt>
      <trkpt lat="45.34437" lon="5.79165">
        <ele>876.801284162</ele>
        <time>2015-07-05T06:22:56Z</time>
      </trkpt>
      <trkpt lat="45.34437" lon="5.79165">
        <ele>876.801284162</ele>
        <time>2015-07-05T06:23:06Z</time>
      </trkpt>
      <trkpt lat="45.34437" lon="5.79165">
        <ele>876.801284162</ele>
        <time>2015-07-05T06:23:11Z</time>
      </trkpt>
      <trkpt lat="45.34438" lon="5.79166">
        <ele>876.801284162</ele>
        <time>2015-07-05T06:23:21Z</time>
      </trkpt>
      <trkpt lat="45.34438" lon="5.79166">
        <ele>876.801284162</ele>
        <time>2015-07-05T06:23:26Z</time>
      </trkpt>
      <trkpt lat="45.34439" lon="5.79167">
        <ele>876.801284162</ele>
        <time>2015-07-05T06:23:36Z</time>
      </trkpt>
      <trkpt lat="45.34439" lon="5.79167">
        <ele>876.801284162</ele>
        <time>2015-07-05T06:23:41Z</time>
      </trkpt>
      <trkpt lat="45.34439" lon="5.79167">
        <ele>876.801284162</ele>
        <time>2015-07-05T06:23:51Z</time>
      </trkpt>
      <trkpt lat="45.34439" lon="5.79167">
        <ele>876.801284162</ele>
        <time>2015-07-05T06:23:56Z</time>
      </trkpt>
      <trkpt lat="45.34439" lon="5.79167">
        <ele>876.801284162</ele>
        <time>2015-07-05T06:24:11Z</time>
      </trkpt>
      <trkpt lat="45.34439" lon="5.79167">
        <ele>876.801284162</ele>
        <time>2015-07-05T06:24:15Z</time>
      </trkpt>
      <trkpt lat="45.34439" lon="5.79167">
        <ele>876.801284162</ele>
        <time>2015-07-05T06:24:25Z</time>
      </trkpt>
      <trkpt lat="45.34439" lon="5.79167">
        <ele>876.801284162</ele>
        <time>2015-07-05T06:24:31Z</time>
      </trkpt>
      <trkpt lat="45.34439" lon="5.79167">
        <ele>876.801284162</ele>
        <time>2015-07-05T06:24:40Z</time>
      </trkpt>
      <trkpt lat="45.34439" lon="5.79167">
        <ele>876.801284162</ele>
        <time>2015-07-05T06:24:47Z</time>
      </trkpt>
      <trkpt lat="45.34439" lon="5.79167">
        <ele>876.801284162</ele>
        <time>2015-07-05T06:24:56Z</time>
      </trkpt>
      <trkpt lat="45.34439" lon="5.79167">
        <ele>876.801284162</ele>
        <time>2015-07-05T06:25:01Z</time>
      </trkpt>
      <trkpt lat="45.34439" lon="5.79168">
        <ele>876.801284162</ele>
        <time>2015-07-05T06:25:11Z</time>
      </trkpt>
      <trkpt lat="45.34439" lon="5.79168">
        <ele>876.801284162</ele>
        <time>2015-07-05T06:25:16Z</time>
      </trkpt>
      <trkpt lat="45.34439" lon="5.79168">
        <ele>876.801284162</ele>
        <time>2015-07-05T06:25:26Z</time>
      </trkpt>
      <trkpt lat="45.34439" lon="5.79168">
        <ele>876.801284162</ele>
        <time>2015-07-05T06:25:31Z</time>
      </trkpt>
      <trkpt lat="45.34439" lon="5.79168">
        <ele>876.801284162</ele>
        <time>2015-07-05T06:25:46Z</time>
      </trkpt>
      <trkpt lat="45.34439" lon="5.79168">
        <ele>876.801284162</ele>
        <time>2015-07-05T06:25:51Z</time>
      </trkpt>
      <trkpt lat="45.34439" lon="5.79168">
        <ele>876.801284162</ele>
        <time>2015-07-05T06:26:01Z</time>
      </trkpt>
      <trkpt lat="45.34439" lon="5.79168">
        <ele>876.801284162</ele>
        <time>2015-07-05T06:26:06Z</time>
      </trkpt>
      <trkpt lat="45.34439" lon="5.79169">
        <ele>876.801284162</ele>
        <time>2015-07-05T06:26:16Z</time>
      </trkpt>
      <trkpt lat="45.34439" lon="5.79169">
        <ele>876.801284162</ele>
        <time>2015-07-05T06:26:21Z</time>
      </trkpt>
      <trkpt lat="45.34439" lon="5.79169">
        <ele>876.801284162</ele>
        <time>2015-07-05T06:26:31Z</time>
      </trkpt>
      <trkpt lat="45.34439" lon="5.79169">
        <ele>876.801284162</ele>
        <time>2015-07-05T06:26:36Z</time>
      </trkpt>
      <trkpt lat="45.34439" lon="5.79169">
        <ele>876.801284162</ele>
        <time>2015-07-05T06:26:46Z</time>
      </trkpt>
      <trkpt lat="45.34439" lon="5.79169">
        <ele>876.801284162</ele>
        <time>2015-07-05T06:26:51Z</time>
      </trkpt>
      <trkpt lat="45.34439" lon="5.79169">
        <ele>876.801284162</ele>
        <time>2015-07-05T06:27:01Z</time>
      </trkpt>
      <trkpt lat="45.34439" lon="5.79169">
        <ele>876.801284162</ele>
        <time>2015-07-05T06:27:06Z</time>
      </trkpt>
      <trkpt lat="45.34426" lon="5.79167">
        <ele>881.189001396</ele>
        <time>2015-07-05T06:27:16Z</time>
      </trkpt>
      <trkpt lat="45.34425" lon="5.79159">
        <ele>881.189001396</ele>
        <time>2015-07-05T06:27:21Z</time>
      </trkpt>
      <trkpt lat="45.34415" lon="5.7915">
        <ele>885.75485264</ele>
        <time>2015-07-05T06:27:31Z</time>
      </trkpt>
      <trkpt lat="45.34411" lon="5.79143">
        <ele>885.75485264</ele>
        <time>2015-07-05T06:27:36Z</time>
      </trkpt>
      <trkpt lat="45.34404" lon="5.79124">
        <ele>889.463446095</ele>
        <time>2015-07-05T06:27:46Z</time>
      </trkpt>
      <trkpt lat="45.34407" lon="5.79117">
        <ele>889.463446095</ele>
        <time>2015-07-05T06:27:50Z</time>
      </trkpt>
      <trkpt lat="45.34424" lon="5.79114">
        <ele>893.242365039</ele>
        <time>2015-07-05T06:27:55Z</time>
      </trkpt>
      <trkpt lat="45.34418" lon="5.79135">
        <ele>897.380266217</ele>
        <time>2015-07-05T06:28:05Z</time>
      </trkpt>
      <trkpt lat="45.34413" lon="5.79143">
        <ele>897.380266217</ele>
        <time>2015-07-05T06:28:10Z</time>
      </trkpt>
      <trkpt lat="45.34407" lon="5.79162">
        <ele>901.109985284</ele>
        <time>2015-07-05T06:28:21Z</time>
      </trkpt>
      <trkpt lat="45.3439" lon="5.79169">
        <ele>904.306435602</ele>
        <time>2015-07-05T06:28:26Z</time>
      </trkpt>
      <trkpt lat="45.34381" lon="5.79153">
        <ele>907.453789907</ele>
        <time>2015-07-05T06:28:36Z</time>
      </trkpt>
      <trkpt lat="45.34379" lon="5.79144">
        <ele>907.453789907</ele>
        <time>2015-07-05T06:28:41Z</time>
      </trkpt>
      <trkpt lat="45.34372" lon="5.79136">
        <ele>910.556401933</ele>
        <time>2015-07-05T06:28:51Z</time>
      </trkpt>
      <trkpt lat="45.34372" lon="5.79129">
        <ele>910.556401933</ele>
        <time>2015-07-05T06:28:56Z</time>
      </trkpt>
      <trkpt lat="45.34383" lon="5.7909">
        <ele>912.565544028</ele>
        <time>2015-07-05T06:29:05Z</time>
      </trkpt>
      <trkpt lat="45.34381" lon="5.79105">
        <ele>914.619965178</ele>
        <time>2015-07-05T06:29:10Z</time>
      </trkpt>
      <trkpt lat="45.34381" lon="5.79105">
        <ele>914.619965178</ele>
        <time>2015-07-05T06:29:15Z</time>
      </trkpt>
      <trkpt lat="45.3438" lon="5.79101">
        <ele>914.619965178</ele>
        <time>2015-07-05T06:29:20Z</time>
      </trkpt>
      <trkpt lat="45.34371" lon="5.79122">
        <ele>916.420237789</ele>
        <time>2015-07-05T06:29:35Z</time>
      </trkpt>
      <trkpt lat="45.34373" lon="5.79134">
        <ele>916.420237789</ele>
        <time>2015-07-05T06:29:40Z</time>
      </trkpt>
      <trkpt lat="45.34372" lon="5.79139">
        <ele>919.048488937</ele>
        <time>2015-07-05T06:29:46Z</time>
      </trkpt>
      <trkpt lat="45.34374" lon="5.79149">
        <ele>919.048488937</ele>
        <time>2015-07-05T06:29:56Z</time>
      </trkpt>
      <trkpt lat="45.34374" lon="5.79155">
        <ele>921.689595726</ele>
        <time>2015-07-05T06:30:01Z</time>
      </trkpt>
      <trkpt lat="45.34381" lon="5.79177">
        <ele>925.099406269</ele>
        <time>2015-07-05T06:30:10Z</time>
      </trkpt>
      <trkpt lat="45.34369" lon="5.79165">
        <ele>928.463258218</ele>
        <time>2015-07-05T06:30:16Z</time>
      </trkpt>
      <trkpt lat="45.34364" lon="5.79158">
        <ele>928.463258218</ele>
        <time>2015-07-05T06:30:26Z</time>
      </trkpt>
      <trkpt lat="45.34362" lon="5.7915">
        <ele>932.085431358</ele>
        <time>2015-07-05T06:30:31Z</time>
      </trkpt>
      <trkpt lat="45.34365" lon="5.79134">
        <ele>935.643338938</ele>
        <time>2015-07-05T06:30:41Z</time>
      </trkpt>
      <trkpt lat="45.34362" lon="5.79125">
        <ele>935.643338938</ele>
        <time>2015-07-05T06:30:46Z</time>
      </trkpt>
      <trkpt lat="45.34349" lon="5.79105">
        <ele>939.591090695</ele>
        <time>2015-07-05T06:30:56Z</time>
      </trkpt>
      <trkpt lat="45.34344" lon="5.79095">
        <ele>939.591090695</ele>
        <time>2015-07-05T06:31:01Z</time>
      </trkpt>
      <trkpt lat="45.34339" lon="5.79107">
        <ele>942.847205226</ele>
        <time>2015-07-05T06:31:16Z</time>
      </trkpt>
      <trkpt lat="45.34336" lon="5.79119">
        <ele>945.169612411</ele>
        <time>2015-07-05T06:31:21Z</time>
      </trkpt>
      <trkpt lat="45.34318" lon="5.79145">
        <ele>946.637547641</ele>
        <time>2015-07-05T06:31:31Z</time>
      </trkpt>
      <trkpt lat="45.34321" lon="5.79145">
        <ele>946.637547641</ele>
        <time>2015-07-05T06:31:36Z</time>
      </trkpt>
      <trkpt lat="45.34322" lon="5.79125">
        <ele>948.366104266</ele>
        <time>2015-07-05T06:31:46Z</time>
      </trkpt>
      <trkpt lat="45.34321" lon="5.79122">
        <ele>948.366104266</ele>
        <time>2015-07-05T06:31:51Z</time>
      </trkpt>
      <trkpt lat="45.34317" lon="5.79105">
        <ele>950.041790181</ele>
        <time>2015-07-05T06:32:01Z</time>
      </trkpt>
      <trkpt lat="45.34325" lon="5.79092">
        <ele>951.673139975</ele>
        <time>2015-07-05T06:32:06Z</time>
      </trkpt>
      <trkpt lat="45.34322" lon="5.79075">
        <ele>953.41543217</ele>
        <time>2015-07-05T06:32:16Z</time>
      </trkpt>
      <trkpt lat="45.34319" lon="5.79066">
        <ele>953.41543217</ele>
        <time>2015-07-05T06:32:21Z</time>
      </trkpt>
      <trkpt lat="45.34324" lon="5.79037">
        <ele>955.999061746</ele>
        <time>2015-07-05T06:32:36Z</time>
      </trkpt>
      <trkpt lat="45.34314" lon="5.79024">
        <ele>959.357693714</ele>
        <time>2015-07-05T06:32:51Z</time>
      </trkpt>
      <trkpt lat="45.3431" lon="5.79046">
        <ele>961.231600224</ele>
        <time>2015-07-05T06:33:06Z</time>
      </trkpt>
      <trkpt lat="45.3431" lon="5.79054">
        <ele>961.231600224</ele>
        <time>2015-07-05T06:33:11Z</time>
      </trkpt>
      <trkpt lat="45.34304" lon="5.7907">
        <ele>962.765723639</ele>
        <time>2015-07-05T06:33:21Z</time>
      </trkpt>
      <trkpt lat="45.343" lon="5.79082">
        <ele>963.845110026</ele>
        <time>2015-07-05T06:33:26Z</time>
      </trkpt>
      <trkpt lat="45.34303" lon="5.79098">
        <ele>965.530237831</ele>
        <time>2015-07-05T06:33:36Z</time>
      </trkpt>
      <trkpt lat="45.34303" lon="5.7911">
        <ele>965.530237831</ele>
        <time>2015-07-05T06:33:41Z</time>
      </trkpt>
      <trkpt lat="45.34291" lon="5.79126">
        <ele>967.486313396</ele>
        <time>2015-07-05T06:33:51Z</time>
      </trkpt>
      <trkpt lat="45.34282" lon="5.79131">
        <ele>969.259368193</ele>
        <time>2015-07-05T06:33:56Z</time>
      </trkpt>
      <trkpt lat="45.34273" lon="5.79117">
        <ele>970.866734269</ele>
        <time>2015-07-05T06:34:05Z</time>
      </trkpt>
      <trkpt lat="45.3427" lon="5.79116">
        <ele>970.866734269</ele>
        <time>2015-07-05T06:34:11Z</time>
      </trkpt>
      <trkpt lat="45.34275" lon="5.79095">
        <ele>973.04904981</ele>
        <time>2015-07-05T06:34:21Z</time>
      </trkpt>
      <trkpt lat="45.3428" lon="5.79083">
        <ele>974.895952959</ele>
        <time>2015-07-05T06:34:26Z</time>
      </trkpt>
      <trkpt lat="45.34279" lon="5.79064">
        <ele>977.01419017</ele>
        <time>2015-07-05T06:34:36Z</time>
      </trkpt>
      <trkpt lat="45.3428" lon="5.79054">
        <ele>977.01419017</ele>
        <time>2015-07-05T06:34:41Z</time>
      </trkpt>
      <trkpt lat="45.34278" lon="5.79045">
        <ele>979.818779146</ele>
        <time>2015-07-05T06:34:56Z</time>
      </trkpt>
      <trkpt lat="45.34276" lon="5.79046">
        <ele>979.818779146</ele>
        <time>2015-07-05T06:35:01Z</time>
      </trkpt>
      <trkpt lat="45.34269" lon="5.79073">
        <ele>982.391631388</ele>
        <time>2015-07-05T06:35:11Z</time>
      </trkpt>
      <trkpt lat="45.34266" lon="5.79083">
        <ele>982.391631388</ele>
        <time>2015-07-05T06:35:16Z</time>
      </trkpt>
      <trkpt lat="45.3427" lon="5.79092">
        <ele>985.039501485</ele>
        <time>2015-07-05T06:35:26Z</time>
      </trkpt>
      <trkpt lat="45.34267" lon="5.791">
        <ele>985.039501485</ele>
        <time>2015-07-05T06:35:31Z</time>
      </trkpt>
      <trkpt lat="45.34261" lon="5.79094">
        <ele>988.33436418</ele>
        <time>2015-07-05T06:35:41Z</time>
      </trkpt>
      <trkpt lat="45.34258" lon="5.7909">
        <ele>988.33436418</ele>
        <time>2015-07-05T06:35:46Z</time>
      </trkpt>
      <trkpt lat="45.34255" lon="5.79076">
        <ele>991.361079822</ele>
        <time>2015-07-05T06:35:56Z</time>
      </trkpt>
      <trkpt lat="45.34257" lon="5.79069">
        <ele>991.361079822</ele>
        <time>2015-07-05T06:36:01Z</time>
      </trkpt>
      <trkpt lat="45.34253" lon="5.79052">
        <ele>994.571416426</ele>
        <time>2015-07-05T06:36:11Z</time>
      </trkpt>
      <trkpt lat="45.34252" lon="5.79044">
        <ele>994.571416426</ele>
        <time>2015-07-05T06:36:16Z</time>
      </trkpt>
      <trkpt lat="45.34248" lon="5.7902">
        <ele>997.517786741</ele>
        <time>2015-07-05T06:36:26Z</time>
      </trkpt>
      <trkpt lat="45.34242" lon="5.79013">
        <ele>997.517786741</ele>
        <time>2015-07-05T06:36:31Z</time>
      </trkpt>
      <trkpt lat="45.34239" lon="5.78979">
        <ele>1000.939877459</ele>
        <time>2015-07-05T06:36:46Z</time>
      </trkpt>
      <trkpt lat="45.34238" lon="5.78973">
        <ele>1000.939877459</ele>
        <time>2015-07-05T06:36:51Z</time>
      </trkpt>
      <trkpt lat="45.34236" lon="5.78964">
        <ele>1005.088869546</ele>
        <time>2015-07-05T06:37:01Z</time>
      </trkpt>
      <trkpt lat="45.3425" lon="5.7897">
        <ele>1009.474569642</ele>
        <time>2015-07-05T06:37:06Z</time>
      </trkpt>
      <trkpt lat="45.34237" lon="5.7898">
        <ele>1013.498005739</ele>
        <time>2015-07-05T06:37:16Z</time>
      </trkpt>
      <trkpt lat="45.34236" lon="5.78989">
        <ele>1013.498005739</ele>
        <time>2015-07-05T06:37:21Z</time>
      </trkpt>
      <trkpt lat="45.34232" lon="5.79003">
        <ele>1016.749357141</ele>
        <time>2015-07-05T06:37:31Z</time>
      </trkpt>
      <trkpt lat="45.34235" lon="5.7901">
        <ele>1016.749357141</ele>
        <time>2015-07-05T06:37:36Z</time>
      </trkpt>
      <trkpt lat="45.34232" lon="5.79024">
        <ele>1019.716113119</ele>
        <time>2015-07-05T06:37:46Z</time>
      </trkpt>
      <trkpt lat="45.3423" lon="5.79032">
        <ele>1019.716113119</ele>
        <time>2015-07-05T06:37:51Z</time>
      </trkpt>
      <trkpt lat="45.34229" lon="5.79058">
        <ele>1022.129816577</ele>
        <time>2015-07-05T06:38:01Z</time>
      </trkpt>
      <trkpt lat="45.34227" lon="5.79064">
        <ele>1022.129816577</ele>
        <time>2015-07-05T06:38:06Z</time>
      </trkpt>
      <trkpt lat="45.34215" lon="5.79084">
        <ele>1025.041072366</ele>
        <time>2015-07-05T06:38:21Z</time>
      </trkpt>
      <trkpt lat="45.34207" lon="5.79091">
        <ele>1027.547337903</ele>
        <time>2015-07-05T06:38:26Z</time>
      </trkpt>
      <trkpt lat="45.34209" lon="5.79106">
        <ele>1030.111363677</ele>
        <time>2015-07-05T06:38:36Z</time>
      </trkpt>
      <trkpt lat="45.34213" lon="5.79112">
        <ele>1030.111363677</ele>
        <time>2015-07-05T06:38:41Z</time>
      </trkpt>
      <trkpt lat="45.34203" lon="5.79128">
        <ele>1033.161819209</ele>
        <time>2015-07-05T06:38:51Z</time>
      </trkpt>
      <trkpt lat="45.34202" lon="5.79133">
        <ele>1033.161819209</ele>
        <time>2015-07-05T06:38:56Z</time>
      </trkpt>
      <trkpt lat="45.34191" lon="5.79142">
        <ele>1036.806101401</ele>
        <time>2015-07-05T06:39:06Z</time>
      </trkpt>
      <trkpt lat="45.34193" lon="5.79143">
        <ele>1036.806101401</ele>
        <time>2015-07-05T06:39:11Z</time>
      </trkpt>
      <trkpt lat="45.34195" lon="5.79144">
        <ele>1036.806101401</ele>
        <time>2015-07-05T06:39:21Z</time>
      </trkpt>
      <trkpt lat="45.34195" lon="5.79144">
        <ele>1036.806101401</ele>
        <time>2015-07-05T06:39:26Z</time>
      </trkpt>
      <trkpt lat="45.34193" lon="5.79141">
        <ele>1036.806101401</ele>
        <time>2015-07-05T06:39:36Z</time>
      </trkpt>
      <trkpt lat="45.34195" lon="5.79131">
        <ele>1041.430528465</ele>
        <time>2015-07-05T06:39:41Z</time>
      </trkpt>
      <trkpt lat="45.34191" lon="5.79121">
        <ele>1041.430528465</ele>
        <time>2015-07-05T06:39:51Z</time>
      </trkpt>
      <trkpt lat="45.34191" lon="5.79118">
        <ele>1045.082438769</ele>
        <time>2015-07-05T06:39:56Z</time>
      </trkpt>
      <trkpt lat="45.34183" lon="5.79099">
        <ele>1047.542038485</ele>
        <time>2015-07-05T06:40:06Z</time>
      </trkpt>
      <trkpt lat="45.34189" lon="5.79079">
        <ele>1049.763070596</ele>
        <time>2015-07-05T06:40:11Z</time>
      </trkpt>
      <trkpt lat="45.34185" lon="5.79059">
        <ele>1051.908675019</ele>
        <time>2015-07-05T06:40:21Z</time>
      </trkpt>
      <trkpt lat="45.34181" lon="5.79049">
        <ele>1051.908675019</ele>
        <time>2015-07-05T06:40:26Z</time>
      </trkpt>
      <trkpt lat="45.34186" lon="5.79024">
        <ele>1055.716896899</ele>
        <time>2015-07-05T06:40:41Z</time>
      </trkpt>
      <trkpt lat="45.34176" lon="5.79015">
        <ele>1059.331500524</ele>
        <time>2015-07-05T06:40:46Z</time>
      </trkpt>
      <trkpt lat="45.3418" lon="5.79016">
        <ele>1059.331500524</ele>
        <time>2015-07-05T06:40:56Z</time>
      </trkpt>
      <trkpt lat="45.34174" lon="5.79008">
        <ele>1063.196948784</ele>
        <time>2015-07-05T06:41:01Z</time>
      </trkpt>
      <trkpt lat="45.34174" lon="5.78994">
        <ele>1066.137788785</ele>
        <time>2015-07-05T06:41:11Z</time>
      </trkpt>
      <trkpt lat="45.34172" lon="5.78986">
        <ele>1066.137788785</ele>
        <time>2015-07-05T06:41:16Z</time>
      </trkpt>
      <trkpt lat="45.34184" lon="5.78965">
        <ele>1069.231131399</ele>
        <time>2015-07-05T06:41:26Z</time>
      </trkpt>
      <trkpt lat="45.34183" lon="5.78956">
        <ele>1069.231131399</ele>
        <time>2015-07-05T06:41:31Z</time>
      </trkpt>
      <trkpt lat="45.34164" lon="5.78947">
        <ele>1071.887978371</ele>
        <time>2015-07-05T06:41:41Z</time>
      </trkpt>
      <trkpt lat="45.34165" lon="5.78938">
        <ele>1071.887978371</ele>
        <time>2015-07-05T06:41:46Z</time>
      </trkpt>
      <trkpt lat="45.34164" lon="5.78918">
        <ele>1074.285038226</ele>
        <time>2015-07-05T06:41:56Z</time>
      </trkpt>
      <trkpt lat="45.34163" lon="5.78913">
        <ele>1074.285038226</ele>
        <time>2015-07-05T06:42:01Z</time>
      </trkpt>
      <trkpt lat="45.34159" lon="5.78905">
        <ele>1077.307781445</ele>
        <time>2015-07-05T06:42:16Z</time>
      </trkpt>
      <trkpt lat="45.34164" lon="5.78896">
        <ele>1077.307781445</ele>
        <time>2015-07-05T06:42:21Z</time>
      </trkpt>
      <trkpt lat="45.34176" lon="5.78874">
        <ele>1080.04436548</ele>
        <time>2015-07-05T06:42:31Z</time>
      </trkpt>
      <trkpt lat="45.3418" lon="5.78873">
        <ele>1080.04436548</ele>
        <time>2015-07-05T06:42:36Z</time>
      </trkpt>
      <trkpt lat="45.34189" lon="5.78864">
        <ele>1082.948654716</ele>
        <time>2015-07-05T06:42:46Z</time>
      </trkpt>
      <trkpt lat="45.34194" lon="5.78857">
        <ele>1082.948654716</ele>
        <time>2015-07-05T06:42:51Z</time>
      </trkpt>
      <trkpt lat="45.34197" lon="5.78839">
        <ele>1085.287184261</ele>
        <time>2015-07-05T06:43:01Z</time>
      </trkpt>
      <trkpt lat="45.34201" lon="5.78834">
        <ele>1085.287184261</ele>
        <time>2015-07-05T06:43:06Z</time>
      </trkpt>
      <trkpt lat="45.34198" lon="5.78818">
        <ele>1088.544734422</ele>
        <time>2015-07-05T06:43:16Z</time>
      </trkpt>
      <trkpt lat="45.34199" lon="5.78813">
        <ele>1088.544734422</ele>
        <time>2015-07-05T06:43:21Z</time>
      </trkpt>
      <trkpt lat="45.342" lon="5.78801">
        <ele>1091.787497374</ele>
        <time>2015-07-05T06:43:31Z</time>
      </trkpt>
      <trkpt lat="45.34203" lon="5.78801">
        <ele>1091.787497374</ele>
        <time>2015-07-05T06:43:36Z</time>
      </trkpt>
      <trkpt lat="45.34205" lon="5.78804">
        <ele>1091.787497374</ele>
        <time>2015-07-05T06:43:51Z</time>
      </trkpt>
      <trkpt lat="45.34201" lon="5.78809">
        <ele>1094.871307351</ele>
        <time>2015-07-05T06:43:56Z</time>
      </trkpt>
      <trkpt lat="45.34187" lon="5.78837">
        <ele>1097.518926764</ele>
        <time>2015-07-05T06:44:06Z</time>
      </trkpt>
      <trkpt lat="45.34181" lon="5.78842">
        <ele>1097.518926764</ele>
        <time>2015-07-05T06:44:11Z</time>
      </trkpt>
      <trkpt lat="45.34167" lon="5.78853">
        <ele>1100.483804851</ele>
        <time>2015-07-05T06:44:21Z</time>
      </trkpt>
      <trkpt lat="45.34162" lon="5.78855">
        <ele>1100.483804851</ele>
        <time>2015-07-05T06:44:26Z</time>
      </trkpt>
      <trkpt lat="45.3415" lon="5.78873">
        <ele>1104.463058933</ele>
        <time>2015-07-05T06:44:36Z</time>
      </trkpt>
      <trkpt lat="45.34142" lon="5.78873">
        <ele>1104.463058933</ele>
        <time>2015-07-05T06:44:41Z</time>
      </trkpt>
      <trkpt lat="45.34136" lon="5.78872">
        <ele>1108.081760965</ele>
        <time>2015-07-05T06:44:51Z</time>
      </trkpt>
      <trkpt lat="45.34127" lon="5.78877">
        <ele>1110.93199554</ele>
        <time>2015-07-05T06:44:56Z</time>
      </trkpt>
      <trkpt lat="45.34127" lon="5.78878">
        <ele>1110.93199554</ele>
        <time>2015-07-05T06:45:06Z</time>
      </trkpt>
      <trkpt lat="45.34129" lon="5.78881">
        <ele>1110.93199554</ele>
        <time>2015-07-05T06:45:11Z</time>
      </trkpt>
      <trkpt lat="45.34124" lon="5.78906">
        <ele>1113.646935529</ele>
        <time>2015-07-05T06:45:26Z</time>
      </trkpt>
      <trkpt lat="45.34114" lon="5.78918">
        <ele>1116.381200548</ele>
        <time>2015-07-05T06:45:41Z</time>
      </trkpt>
      <trkpt lat="45.34113" lon="5.78919">
        <ele>1116.381200548</ele>
        <time>2015-07-05T06:45:46Z</time>
      </trkpt>
      <trkpt lat="45.34114" lon="5.78909">
        <ele>1116.381200548</ele>
        <time>2015-07-05T06:45:56Z</time>
      </trkpt>
      <trkpt lat="45.34106" lon="5.78904">
        <ele>1119.710378198</ele>
        <time>2015-07-05T06:46:01Z</time>
      </trkpt>
      <trkpt lat="45.34104" lon="5.78892">
        <ele>1119.710378198</ele>
        <time>2015-07-05T06:46:11Z</time>
      </trkpt>
      <trkpt lat="45.34108" lon="5.7888">
        <ele>1122.724885459</ele>
        <time>2015-07-05T06:46:16Z</time>
      </trkpt>
      <trkpt lat="45.34097" lon="5.7887">
        <ele>1125.159390705</ele>
        <time>2015-07-05T06:46:26Z</time>
      </trkpt>
      <trkpt lat="45.34097" lon="5.78863">
        <ele>1125.159390705</ele>
        <time>2015-07-05T06:46:31Z</time>
      </trkpt>
      <trkpt lat="45.34101" lon="5.78851">
        <ele>1128.210875274</ele>
        <time>2015-07-05T06:46:41Z</time>
      </trkpt>
      <trkpt lat="45.34108" lon="5.78842">
        <ele>1130.536666955</ele>
        <time>2015-07-05T06:46:45Z</time>
      </trkpt>
      <trkpt lat="45.34118" lon="5.78832">
        <ele>1132.624188151</ele>
        <time>2015-07-05T06:46:51Z</time>
      </trkpt>
      <trkpt lat="45.34121" lon="5.78821">
        <ele>1132.624188151</ele>
        <time>2015-07-05T06:47:01Z</time>
      </trkpt>
      <trkpt lat="45.3412" lon="5.78814">
        <ele>1135.358057096</ele>
        <time>2015-07-05T06:47:06Z</time>
      </trkpt>
      <trkpt lat="45.34101" lon="5.78803">
        <ele>1137.826728401</ele>
        <time>2015-07-05T06:47:16Z</time>
      </trkpt>
      <trkpt lat="45.34096" lon="5.78795">
        <ele>1137.826728401</ele>
        <time>2015-07-05T06:47:21Z</time>
      </trkpt>
      <trkpt lat="45.3409" lon="5.78788">
        <ele>1140.627501011</ele>
        <time>2015-07-05T06:47:31Z</time>
      </trkpt>
      <trkpt lat="45.34082" lon="5.78779">
        <ele>1142.43939218</ele>
        <time>2015-07-05T06:47:36Z</time>
      </trkpt>
      <trkpt lat="45.34071" lon="5.78767">
        <ele>1143.914687382</ele>
        <time>2015-07-05T06:47:51Z</time>
      </trkpt>
      <trkpt lat="45.34069" lon="5.78767">
        <ele>1143.914687382</ele>
        <time>2015-07-05T06:47:56Z</time>
      </trkpt>
      <trkpt lat="45.34069" lon="5.78766">
        <ele>1143.914687382</ele>
        <time>2015-07-05T06:48:06Z</time>
      </trkpt>
      <trkpt lat="45.34069" lon="5.78766">
        <ele>1143.914687382</ele>
        <time>2015-07-05T06:48:11Z</time>
      </trkpt>
      <trkpt lat="45.34069" lon="5.78766">
        <ele>1143.914687382</ele>
        <time>2015-07-05T06:48:20Z</time>
      </trkpt>
      <trkpt lat="45.34068" lon="5.78778">
        <ele>1144.361664675</ele>
        <time>2015-07-05T06:48:27Z</time>
      </trkpt>
      <trkpt lat="45.34073" lon="5.78796">
        <ele>1145.448071908</ele>
        <time>2015-07-05T06:48:36Z</time>
      </trkpt>
      <trkpt lat="45.34072" lon="5.78806">
        <ele>1145.448071908</ele>
        <time>2015-07-05T06:48:41Z</time>
      </trkpt>
      <trkpt lat="45.3407" lon="5.78832">
        <ele>1147.276185586</ele>
        <time>2015-07-05T06:48:51Z</time>
      </trkpt>
      <trkpt lat="45.3408" lon="5.78836">
        <ele>1149.506298293</ele>
        <time>2015-07-05T06:48:56Z</time>
      </trkpt>
      <trkpt lat="45.34075" lon="5.78838">
        <ele>1149.506298293</ele>
        <time>2015-07-05T06:49:05Z</time>
      </trkpt>
      <trkpt lat="45.34076" lon="5.78838">
        <ele>1149.506298293</ele>
        <time>2015-07-05T06:49:10Z</time>
      </trkpt>
      <trkpt lat="45.34076" lon="5.78838">
        <ele>1149.506298293</ele>
        <time>2015-07-05T06:49:16Z</time>
      </trkpt>
      <trkpt lat="45.34076" lon="5.78838">
        <ele>1149.506298293</ele>
        <time>2015-07-05T06:49:31Z</time>
      </trkpt>
      <trkpt lat="45.34076" lon="5.78838">
        <ele>1149.506298293</ele>
        <time>2015-07-05T06:49:36Z</time>
      </trkpt>
      <trkpt lat="45.34056" lon="5.78819">
        <ele>1150.525445893</ele>
        <time>2015-07-05T06:49:46Z</time>
      </trkpt>
      <trkpt lat="45.34053" lon="5.78812">
        <ele>1150.525445893</ele>
        <time>2015-07-05T06:49:51Z</time>
      </trkpt>
      <trkpt lat="45.34038" lon="5.78802">
        <ele>1152.01297556</ele>
        <time>2015-07-05T06:50:01Z</time>
      </trkpt>
      <trkpt lat="45.34037" lon="5.7879">
        <ele>1152.01297556</ele>
        <time>2015-07-05T06:50:06Z</time>
      </trkpt>
      <trkpt lat="45.34026" lon="5.78776">
        <ele>1154.082353172</ele>
        <time>2015-07-05T06:50:16Z</time>
      </trkpt>
      <trkpt lat="45.34021" lon="5.78769">
        <ele>1154.082353172</ele>
        <time>2015-07-05T06:50:21Z</time>
      </trkpt>
      <trkpt lat="45.34009" lon="5.78758">
        <ele>1156.981117054</ele>
        <time>2015-07-05T06:50:31Z</time>
      </trkpt>
      <trkpt lat="45.34001" lon="5.78749">
        <ele>1159.495075178</ele>
        <time>2015-07-05T06:50:36Z</time>
      </trkpt>
      <trkpt lat="45.33999" lon="5.78734">
        <ele>1162.085492143</ele>
        <time>2015-07-05T06:50:46Z</time>
      </trkpt>
      <trkpt lat="45.33989" lon="5.78728">
        <ele>1164.314776559</ele>
        <time>2015-07-05T06:50:51Z</time>
      </trkpt>
      <trkpt lat="45.33975" lon="5.78715">
        <ele>1165.77842717</ele>
        <time>2015-07-05T06:51:01Z</time>
      </trkpt>
      <trkpt lat="45.33964" lon="5.78712">
        <ele>1167.112541383</ele>
        <time>2015-07-05T06:51:06Z</time>
      </trkpt>
      <trkpt lat="45.33962" lon="5.78695">
        <ele>1168.474437259</ele>
        <time>2015-07-05T06:51:16Z</time>
      </trkpt>
      <trkpt lat="45.33958" lon="5.78692">
        <ele>1168.474437259</ele>
        <time>2015-07-05T06:51:20Z</time>
      </trkpt>
      <trkpt lat="45.33947" lon="5.78671">
        <ele>1171.162643976</ele>
        <time>2015-07-05T06:51:31Z</time>
      </trkpt>
      <trkpt lat="45.33943" lon="5.78661">
        <ele>1171.162643976</ele>
        <time>2015-07-05T06:51:36Z</time>
      </trkpt>
      <trkpt lat="45.33935" lon="5.78643">
        <ele>1174.503012047</ele>
        <time>2015-07-05T06:51:51Z</time>
      </trkpt>
      <trkpt lat="45.33936" lon="5.78642">
        <ele>1174.503012047</ele>
        <time>2015-07-05T06:51:56Z</time>
      </trkpt>
      <trkpt lat="45.33931" lon="5.78629">
        <ele>1178.733707413</ele>
        <time>2015-07-05T06:52:06Z</time>
      </trkpt>
      <trkpt lat="45.33931" lon="5.78626">
        <ele>1178.733707413</ele>
        <time>2015-07-05T06:52:11Z</time>
      </trkpt>
      <trkpt lat="45.3393" lon="5.78614">
        <ele>1183.496387411</ele>
        <time>2015-07-05T06:52:21Z</time>
      </trkpt>
      <trkpt lat="45.3393" lon="5.78613">
        <ele>1183.496387411</ele>
        <time>2015-07-05T06:52:26Z</time>
      </trkpt>
      <trkpt lat="45.3393" lon="5.78612">
        <ele>1183.496387411</ele>
        <time>2015-07-05T06:52:36Z</time>
      </trkpt>
      <trkpt lat="45.3393" lon="5.78601">
        <ele>1187.592815221</ele>
        <time>2015-07-05T06:52:41Z</time>
      </trkpt>
      <trkpt lat="45.33932" lon="5.78591">
        <ele>1187.592815221</ele>
        <time>2015-07-05T06:52:51Z</time>
      </trkpt>
      <trkpt lat="45.33932" lon="5.78593">
        <ele>1187.592815221</ele>
        <time>2015-07-05T06:52:56Z</time>
      </trkpt>
      <trkpt lat="45.33925" lon="5.78599">
        <ele>1192.076341471</ele>
        <time>2015-07-05T06:53:06Z</time>
      </trkpt>
      <trkpt lat="45.33924" lon="5.786">
        <ele>1192.076341471</ele>
        <time>2015-07-05T06:53:11Z</time>
      </trkpt>
      <trkpt lat="45.33918" lon="5.78596">
        <ele>1192.076341471</ele>
        <time>2015-07-05T06:53:21Z</time>
      </trkpt>
      <trkpt lat="45.33918" lon="5.78597">
        <ele>1192.076341471</ele>
        <time>2015-07-05T06:53:25Z</time>
      </trkpt>
      <trkpt lat="45.33917" lon="5.78596">
        <ele>1192.076341471</ele>
        <time>2015-07-05T06:53:30Z</time>
      </trkpt>
      <trkpt lat="45.33918" lon="5.78589">
        <ele>1197.345386619</ele>
        <time>2015-07-05T06:53:36Z</time>
      </trkpt>
      <trkpt lat="45.33916" lon="5.78571">
        <ele>1202.181659631</ele>
        <time>2015-07-05T06:53:46Z</time>
      </trkpt>
      <trkpt lat="45.339" lon="5.78563">
        <ele>1206.034070632</ele>
        <time>2015-07-05T06:53:51Z</time>
      </trkpt>
      <trkpt lat="45.33901" lon="5.78546">
        <ele>1208.971272815</ele>
        <time>2015-07-05T06:54:00Z</time>
      </trkpt>
      <trkpt lat="45.33904" lon="5.78535">
        <ele>1208.971272815</ele>
        <time>2015-07-05T06:54:06Z</time>
      </trkpt>
      <trkpt lat="45.33899" lon="5.78519">
        <ele>1212.932968524</ele>
        <time>2015-07-05T06:54:15Z</time>
      </trkpt>
      <trkpt lat="45.339" lon="5.7851">
        <ele>1212.932968524</ele>
        <time>2015-07-05T06:54:20Z</time>
      </trkpt>
      <trkpt lat="45.33896" lon="5.78488">
        <ele>1216.398945515</ele>
        <time>2015-07-05T06:54:31Z</time>
      </trkpt>
      <trkpt lat="45.33892" lon="5.7848">
        <ele>1216.398945515</ele>
        <time>2015-07-05T06:54:36Z</time>
      </trkpt>
      <trkpt lat="45.33884" lon="5.78466">
        <ele>1220.98849829</ele>
        <time>2015-07-05T06:54:46Z</time>
      </trkpt>
      <trkpt lat="45.3389" lon="5.7846">
        <ele>1220.98849829</ele>
        <time>2015-07-05T06:54:51Z</time>
      </trkpt>
      <trkpt lat="45.33901" lon="5.78465">
        <ele>1226.613641785</ele>
        <time>2015-07-05T06:55:01Z</time>
      </trkpt>
      <trkpt lat="45.33898" lon="5.78473">
        <ele>1226.613641785</ele>
        <time>2015-07-05T06:55:06Z</time>
      </trkpt>
      <trkpt lat="45.33893" lon="5.78492">
        <ele>1230.884231893</ele>
        <time>2015-07-05T06:55:21Z</time>
      </trkpt>
      <trkpt lat="45.33891" lon="5.785">
        <ele>1230.884231893</ele>
        <time>2015-07-05T06:55:26Z</time>
      </trkpt>
      <trkpt lat="45.33891" lon="5.78521">
        <ele>1235.048299476</ele>
        <time>2015-07-05T06:55:36Z</time>
      </trkpt>
      <trkpt lat="45.33884" lon="5.78526">
        <ele>1235.048299476</ele>
        <time>2015-07-05T06:55:41Z</time>
      </trkpt>
      <trkpt lat="45.33881" lon="5.7852">
        <ele>1239.253803686</ele>
        <time>2015-07-05T06:55:51Z</time>
      </trkpt>
      <trkpt lat="45.3388" lon="5.78517">
        <ele>1239.253803686</ele>
        <time>2015-07-05T06:55:56Z</time>
      </trkpt>
      <trkpt lat="45.33874" lon="5.78503">
        <ele>1243.637824613</ele>
        <time>2015-07-05T06:56:06Z</time>
      </trkpt>
      <trkpt lat="45.33871" lon="5.78501">
        <ele>1243.637824613</ele>
        <time>2015-07-05T06:56:11Z</time>
      </trkpt>
      <trkpt lat="45.33868" lon="5.78489">
        <ele>1247.462310461</ele>
        <time>2015-07-05T06:56:21Z</time>
      </trkpt>
      <trkpt lat="45.33867" lon="5.78483">
        <ele>1247.462310461</ele>
        <time>2015-07-05T06:56:26Z</time>
      </trkpt>
      <trkpt lat="45.33862" lon="5.78476">
        <ele>1251.774452698</ele>
        <time>2015-07-05T06:56:36Z</time>
      </trkpt>
      <trkpt lat="45.33861" lon="5.78464">
        <ele>1251.774452698</ele>
        <time>2015-07-05T06:56:41Z</time>
      </trkpt>
      <trkpt lat="45.33861" lon="5.78441">
        <ele>1255.525698025</ele>
        <time>2015-07-05T06:56:56Z</time>
      </trkpt>
      <trkpt lat="45.3386" lon="5.78436">
        <ele>1255.525698025</ele>
        <time>2015-07-05T06:57:01Z</time>
      </trkpt>
      <trkpt lat="45.33842" lon="5.78437">
        <ele>1259.043214682</ele>
        <time>2015-07-05T06:57:11Z</time>
      </trkpt>
      <trkpt lat="45.33846" lon="5.78423">
        <ele>1262.342682743</ele>
        <time>2015-07-05T06:57:15Z</time>
      </trkpt>
      <trkpt lat="45.33843" lon="5.78409">
        <ele>1264.862905323</ele>
        <time>2015-07-05T06:57:25Z</time>
      </trkpt>
      <trkpt lat="45.33845" lon="5.78402">
        <ele>1264.862905323</ele>
        <time>2015-07-05T06:57:30Z</time>
      </trkpt>
      <trkpt lat="45.33842" lon="5.78391">
        <ele>1267.094978018</ele>
        <time>2015-07-05T06:57:41Z</time>
      </trkpt>
      <trkpt lat="45.33836" lon="5.78386">
        <ele>1267.094978018</ele>
        <time>2015-07-05T06:57:46Z</time>
      </trkpt>
      <trkpt lat="45.33825" lon="5.78365">
        <ele>1269.350707955</ele>
        <time>2015-07-05T06:57:56Z</time>
      </trkpt>
      <trkpt lat="45.3382" lon="5.7836">
        <ele>1269.350707955</ele>
        <time>2015-07-05T06:58:01Z</time>
      </trkpt>
      <trkpt lat="45.33814" lon="5.78348">
        <ele>1272.063121182</ele>
        <time>2015-07-05T06:58:11Z</time>
      </trkpt>
      <trkpt lat="45.33812" lon="5.78347">
        <ele>1272.063121182</ele>
        <time>2015-07-05T06:58:16Z</time>
      </trkpt>
      <trkpt lat="45.3382" lon="5.78324">
        <ele>1275.343998823</ele>
        <time>2015-07-05T06:58:26Z</time>
      </trkpt>
      <trkpt lat="45.33823" lon="5.78313">
        <ele>1275.343998823</ele>
        <time>2015-07-05T06:58:31Z</time>
      </trkpt>
      <trkpt lat="45.3381" lon="5.78302">
        <ele>1278.718931283</ele>
        <time>2015-07-05T06:58:46Z</time>
      </trkpt>
      <trkpt lat="45.33804" lon="5.78297">
        <ele>1278.718931283</ele>
        <time>2015-07-05T06:58:51Z</time>
      </trkpt>
      <trkpt lat="45.33802" lon="5.78282">
        <ele>1281.315814594</ele>
        <time>2015-07-05T06:59:01Z</time>
      </trkpt>
      <trkpt lat="45.33796" lon="5.78279">
        <ele>1281.315814594</ele>
        <time>2015-07-05T06:59:06Z</time>
      </trkpt>
      <trkpt lat="45.33789" lon="5.78277">
        <ele>1284.634619555</ele>
        <time>2015-07-05T06:59:16Z</time>
      </trkpt>
      <trkpt lat="45.33784" lon="5.78275">
        <ele>1284.634619555</ele>
        <time>2015-07-05T06:59:21Z</time>
      </trkpt>
      <trkpt lat="45.3378" lon="5.78282">
        <ele>1287.901480557</ele>
        <time>2015-07-05T06:59:31Z</time>
      </trkpt>
      <trkpt lat="45.33775" lon="5.78279">
        <ele>1287.901480557</ele>
        <time>2015-07-05T06:59:36Z</time>
      </trkpt>
      <trkpt lat="45.3376" lon="5.78283">
        <ele>1290.111341331</ele>
        <time>2015-07-05T06:59:46Z</time>
      </trkpt>
      <trkpt lat="45.33753" lon="5.7828">
        <ele>1290.111341331</ele>
        <time>2015-07-05T06:59:51Z</time>
      </trkpt>
      <trkpt lat="45.33752" lon="5.78264">
        <ele>1293.362310292</ele>
        <time>2015-07-05T07:00:01Z</time>
      </trkpt>
      <trkpt lat="45.33743" lon="5.7826">
        <ele>1296.136808459</ele>
        <time>2015-07-05T07:00:06Z</time>
      </trkpt>
      <trkpt lat="45.33735" lon="5.78255">
        <ele>1298.471207539</ele>
        <time>2015-07-05T07:00:16Z</time>
      </trkpt>
      <trkpt lat="45.33731" lon="5.78251">
        <ele>1298.471207539</ele>
        <time>2015-07-05T07:00:21Z</time>
      </trkpt>
      <trkpt lat="45.33729" lon="5.78246">
        <ele>1298.471207539</ele>
        <time>2015-07-05T07:00:31Z</time>
      </trkpt>
      <trkpt lat="45.33724" lon="5.78239">
        <ele>1300.400455866</ele>
        <time>2015-07-05T07:00:36Z</time>
      </trkpt>
      <trkpt lat="45.33723" lon="5.7824">
        <ele>1300.400455866</ele>
        <time>2015-07-05T07:00:45Z</time>
      </trkpt>
      <trkpt lat="45.33723" lon="5.78239">
        <ele>1300.400455866</ele>
        <time>2015-07-05T07:00:51Z</time>
      </trkpt>
      <trkpt lat="45.33707" lon="5.78229">
        <ele>1302.102187659</ele>
        <time>2015-07-05T07:01:01Z</time>
      </trkpt>
      <trkpt lat="45.33706" lon="5.78228">
        <ele>1302.102187659</ele>
        <time>2015-07-05T07:01:05Z</time>
      </trkpt>
      <trkpt lat="45.33697" lon="5.78225">
        <ele>1303.885732719</ele>
        <time>2015-07-05T07:01:21Z</time>
      </trkpt>
      <trkpt lat="45.33674" lon="5.782">
        <ele>1305.749229465</ele>
        <time>2015-07-05T07:01:36Z</time>
      </trkpt>
      <trkpt lat="45.33668" lon="5.78195">
        <ele>1305.749229465</ele>
        <time>2015-07-05T07:01:41Z</time>
      </trkpt>
      <trkpt lat="45.33658" lon="5.78182">
        <ele>1307.83481314</ele>
        <time>2015-07-05T07:01:51Z</time>
      </trkpt>
      <trkpt lat="45.33653" lon="5.78182">
        <ele>1307.83481314</ele>
        <time>2015-07-05T07:01:56Z</time>
      </trkpt>
      <trkpt lat="45.33647" lon="5.78175">
        <ele>1310.705853605</ele>
        <time>2015-07-05T07:02:06Z</time>
      </trkpt>
      <trkpt lat="45.33645" lon="5.7817">
        <ele>1310.705853605</ele>
        <time>2015-07-05T07:02:11Z</time>
      </trkpt>
      <trkpt lat="45.33638" lon="5.78157">
        <ele>1313.873313659</ele>
        <time>2015-07-05T07:02:21Z</time>
      </trkpt>
      <trkpt lat="45.33629" lon="5.78154">
        <ele>1313.873313659</ele>
        <time>2015-07-05T07:02:26Z</time>
      </trkpt>
      <trkpt lat="45.3363" lon="5.78143">
        <ele>1316.594983605</ele>
        <time>2015-07-05T07:02:36Z</time>
      </trkpt>
      <trkpt lat="45.33628" lon="5.78142">
        <ele>1316.594983605</ele>
        <time>2015-07-05T07:02:41Z</time>
      </trkpt>
      <trkpt lat="45.3362" lon="5.78131">
        <ele>1318.760827377</ele>
        <time>2015-07-05T07:02:51Z</time>
      </trkpt>
      <trkpt lat="45.33618" lon="5.78127">
        <ele>1318.760827377</ele>
        <time>2015-07-05T07:02:56Z</time>
      </trkpt>
      <trkpt lat="45.33612" lon="5.78118">
        <ele>1321.279185288</ele>
        <time>2015-07-05T07:03:06Z</time>
      </trkpt>
      <trkpt lat="45.33606" lon="5.78115">
        <ele>1321.279185288</ele>
        <time>2015-07-05T07:03:11Z</time>
      </trkpt>
      <trkpt lat="45.33594" lon="5.78104">
        <ele>1323.837745975</ele>
        <time>2015-07-05T07:03:21Z</time>
      </trkpt>
      <trkpt lat="45.33589" lon="5.78102">
        <ele>1323.837745975</ele>
        <time>2015-07-05T07:03:26Z</time>
      </trkpt>
      <trkpt lat="45.33562" lon="5.78083">
        <ele>1326.435201402</ele>
        <time>2015-07-05T07:03:41Z</time>
      </trkpt>
      <trkpt lat="45.33554" lon="5.7808">
        <ele>1326.435201402</ele>
        <time>2015-07-05T07:03:46Z</time>
      </trkpt>
      <trkpt lat="45.33545" lon="5.78064">
        <ele>1329.070180172</ele>
        <time>2015-07-05T07:03:55Z</time>
      </trkpt>
      <trkpt lat="45.33537" lon="5.78056">
        <ele>1330.588363302</ele>
        <time>2015-07-05T07:04:01Z</time>
      </trkpt>
      <trkpt lat="45.33529" lon="5.78039">
        <ele>1332.084972666</ele>
        <time>2015-07-05T07:04:11Z</time>
      </trkpt>
      <trkpt lat="45.33528" lon="5.78036">
        <ele>1332.084972666</ele>
        <time>2015-07-05T07:04:16Z</time>
      </trkpt>
      <trkpt lat="45.33524" lon="5.7802">
        <ele>1332.413103368</ele>
        <time>2015-07-05T07:04:26Z</time>
      </trkpt>
      <trkpt lat="45.33517" lon="5.78015">
        <ele>1332.413103368</ele>
        <time>2015-07-05T07:04:31Z</time>
      </trkpt>
      <trkpt lat="45.33515" lon="5.77991">
        <ele>1333.539642615</ele>
        <time>2015-07-05T07:04:41Z</time>
      </trkpt>
      <trkpt lat="45.33498" lon="5.77983">
        <ele>1334.258330272</ele>
        <time>2015-07-05T07:04:46Z</time>
      </trkpt>
      <trkpt lat="45.33483" lon="5.77981">
        <ele>1335.614234618</ele>
        <time>2015-07-05T07:04:56Z</time>
      </trkpt>
      <trkpt lat="45.33474" lon="5.77972">
        <ele>1336.267979979</ele>
        <time>2015-07-05T07:05:01Z</time>
      </trkpt>
      <trkpt lat="45.33465" lon="5.77955">
        <ele>1336.709769238</ele>
        <time>2015-07-05T07:05:11Z</time>
      </trkpt>
      <trkpt lat="45.33462" lon="5.77949">
        <ele>1336.709769238</ele>
        <time>2015-07-05T07:05:16Z</time>
      </trkpt>
      <trkpt lat="45.33443" lon="5.7794">
        <ele>1336.24137324</ele>
        <time>2015-07-05T07:05:26Z</time>
      </trkpt>
      <trkpt lat="45.33432" lon="5.77929">
        <ele>1336.379938313</ele>
        <time>2015-07-05T07:05:31Z</time>
      </trkpt>
      <trkpt lat="45.3342" lon="5.77912">
        <ele>1336.944086914</ele>
        <time>2015-07-05T07:05:46Z</time>
      </trkpt>
      <trkpt lat="45.33416" lon="5.77905">
        <ele>1336.944086914</ele>
        <time>2015-07-05T07:05:51Z</time>
      </trkpt>
      <trkpt lat="45.33405" lon="5.77898">
        <ele>1338.196747084</ele>
        <time>2015-07-05T07:06:01Z</time>
      </trkpt>
      <trkpt lat="45.33399" lon="5.77893">
        <ele>1338.196747084</ele>
        <time>2015-07-05T07:06:05Z</time>
      </trkpt>
      <trkpt lat="45.33391" lon="5.77858">
        <ele>1339.65888099</ele>
        <time>2015-07-05T07:06:16Z</time>
      </trkpt>
      <trkpt lat="45.33388" lon="5.77851">
        <ele>1339.65888099</ele>
        <time>2015-07-05T07:06:21Z</time>
      </trkpt>
      <trkpt lat="45.33371" lon="5.77839">
        <ele>1340.741775912</ele>
        <time>2015-07-05T07:06:31Z</time>
      </trkpt>
      <trkpt lat="45.3337" lon="5.7783">
        <ele>1340.741775912</ele>
        <time>2015-07-05T07:06:36Z</time>
      </trkpt>
      <trkpt lat="45.33361" lon="5.77815">
        <ele>1342.486088251</ele>
        <time>2015-07-05T07:06:46Z</time>
      </trkpt>
      <trkpt lat="45.33357" lon="5.77809">
        <ele>1342.486088251</ele>
        <time>2015-07-05T07:06:51Z</time>
      </trkpt>
      <trkpt lat="45.33349" lon="5.77797">
        <ele>1344.124677396</ele>
        <time>2015-07-05T07:07:02Z</time>
      </trkpt>
      <trkpt lat="45.33346" lon="5.77791">
        <ele>1344.124677396</ele>
        <time>2015-07-05T07:07:06Z</time>
      </trkpt>
      <trkpt lat="45.3333" lon="5.77785">
        <ele>1345.09100612</ele>
        <time>2015-07-05T07:07:16Z</time>
      </trkpt>
      <trkpt lat="45.33322" lon="5.77785">
        <ele>1345.09100612</ele>
        <time>2015-07-05T07:07:21Z</time>
      </trkpt>
      <trkpt lat="45.33296" lon="5.77779">
        <ele>1346.735331957</ele>
        <time>2015-07-05T07:07:31Z</time>
      </trkpt>
      <trkpt lat="45.33292" lon="5.77773">
        <ele>1346.735331957</ele>
        <time>2015-07-05T07:07:36Z</time>
      </trkpt>
      <trkpt lat="45.33292" lon="5.77772">
        <ele>1346.735331957</ele>
        <time>2015-07-05T07:07:51Z</time>
      </trkpt>
      <trkpt lat="45.33292" lon="5.77772">
        <ele>1346.735331957</ele>
        <time>2015-07-05T07:07:56Z</time>
      </trkpt>
      <trkpt lat="45.33292" lon="5.77771">
        <ele>1346.735331957</ele>
        <time>2015-07-05T07:08:06Z</time>
      </trkpt>
      <trkpt lat="45.33292" lon="5.77771">
        <ele>1346.735331957</ele>
        <time>2015-07-05T07:08:11Z</time>
      </trkpt>
      <trkpt lat="45.33282" lon="5.77768">
        <ele>1348.577337941</ele>
        <time>2015-07-05T07:08:21Z</time>
      </trkpt>
      <trkpt lat="45.33278" lon="5.7776">
        <ele>1348.577337941</ele>
        <time>2015-07-05T07:08:26Z</time>
      </trkpt>
      <trkpt lat="45.33271" lon="5.77738">
        <ele>1349.738957634</ele>
        <time>2015-07-05T07:08:36Z</time>
      </trkpt>
      <trkpt lat="45.3327" lon="5.77723">
        <ele>1350.27306029</ele>
        <time>2015-07-05T07:08:41Z</time>
      </trkpt>
      <trkpt lat="45.33261" lon="5.77712">
        <ele>1351.527253453</ele>
        <time>2015-07-05T07:08:51Z</time>
      </trkpt>
      <trkpt lat="45.33255" lon="5.77712">
        <ele>1351.527253453</ele>
        <time>2015-07-05T07:08:56Z</time>
      </trkpt>
      <trkpt lat="45.33251" lon="5.77704">
        <ele>1353.450994025</ele>
        <time>2015-07-05T07:09:06Z</time>
      </trkpt>
      <trkpt lat="45.33247" lon="5.77704">
        <ele>1353.450994025</ele>
        <time>2015-07-05T07:09:11Z</time>
      </trkpt>
      <trkpt lat="45.33239" lon="5.77705">
        <ele>1354.986662821</ele>
        <time>2015-07-05T07:09:21Z</time>
      </trkpt>
      <trkpt lat="45.33236" lon="5.77706">
        <ele>1354.986662821</ele>
        <time>2015-07-05T07:09:26Z</time>
      </trkpt>
      <trkpt lat="45.3323" lon="5.77706">
        <ele>1356.596405395</ele>
        <time>2015-07-05T07:09:36Z</time>
      </trkpt>
      <trkpt lat="45.33227" lon="5.77706">
        <ele>1356.596405395</ele>
        <time>2015-07-05T07:09:41Z</time>
      </trkpt>
      <trkpt lat="45.3322" lon="5.77703">
        <ele>1358.131644444</ele>
        <time>2015-07-05T07:09:46Z</time>
      </trkpt>
      <trkpt lat="45.33209" lon="5.77697">
        <ele>1359.743033459</ele>
        <time>2015-07-05T07:09:55Z</time>
      </trkpt>
      <trkpt lat="45.33191" lon="5.77683">
        <ele>1361.425725313</ele>
        <time>2015-07-05T07:10:11Z</time>
      </trkpt>
      <trkpt lat="45.33185" lon="5.77672">
        <ele>1363.463149076</ele>
        <time>2015-07-05T07:10:16Z</time>
      </trkpt>
      <trkpt lat="45.33175" lon="5.77663">
        <ele>1365.25215573</ele>
        <time>2015-07-05T07:10:26Z</time>
      </trkpt>
      <trkpt lat="45.3317" lon="5.77655">
        <ele>1365.25215573</ele>
        <time>2015-07-05T07:10:31Z</time>
      </trkpt>
      <trkpt lat="45.33163" lon="5.77639">
        <ele>1367.387401821</ele>
        <time>2015-07-05T07:10:41Z</time>
      </trkpt>
      <trkpt lat="45.33156" lon="5.77637">
        <ele>1367.387401821</ele>
        <time>2015-07-05T07:10:46Z</time>
      </trkpt>
      <trkpt lat="45.3316" lon="5.77634">
        <ele>1368.545363167</ele>
        <time>2015-07-05T07:10:56Z</time>
      </trkpt>
      <trkpt lat="45.33161" lon="5.77632">
        <ele>1368.545363167</ele>
        <time>2015-07-05T07:11:01Z</time>
      </trkpt>
      <trkpt lat="45.3316" lon="5.77632">
        <ele>1368.545363167</ele>
        <time>2015-07-05T07:11:11Z</time>
      </trkpt>
      <trkpt lat="45.33151" lon="5.77622">
        <ele>1369.808185851</ele>
        <time>2015-07-05T07:11:16Z</time>
      </trkpt>
      <trkpt lat="45.33136" lon="5.77616">
        <ele>1371.16937878</ele>
        <time>2015-07-05T07:11:26Z</time>
      </trkpt>
      <trkpt lat="45.33134" lon="5.77616">
        <ele>1371.16937878</ele>
        <time>2015-07-05T07:11:31Z</time>
      </trkpt>
      <trkpt lat="45.33135" lon="5.77615">
        <ele>1371.16937878</ele>
        <time>2015-07-05T07:11:41Z</time>
      </trkpt>
      <trkpt lat="45.33132" lon="5.77613">
        <ele>1371.16937878</ele>
        <time>2015-07-05T07:11:46Z</time>
      </trkpt>
      <trkpt lat="45.33124" lon="5.77598">
        <ele>1371.757915383</ele>
        <time>2015-07-05T07:11:56Z</time>
      </trkpt>
      <trkpt lat="45.33121" lon="5.77592">
        <ele>1371.757915383</ele>
        <time>2015-07-05T07:12:01Z</time>
      </trkpt>
      <trkpt lat="45.33113" lon="5.77589">
        <ele>1372.498186468</ele>
        <time>2015-07-05T07:12:06Z</time>
      </trkpt>
      <trkpt lat="45.33103" lon="5.7758">
        <ele>1374.246183704</ele>
        <time>2015-07-05T07:12:16Z</time>
      </trkpt>
      <trkpt lat="45.33098" lon="5.77571">
        <ele>1374.246183704</ele>
        <time>2015-07-05T07:12:21Z</time>
      </trkpt>
      <trkpt lat="45.33084" lon="5.77559">
        <ele>1377.215681689</ele>
        <time>2015-07-05T07:12:31Z</time>
      </trkpt>
      <trkpt lat="45.33079" lon="5.77551">
        <ele>1377.215681689</ele>
        <time>2015-07-05T07:12:36Z</time>
      </trkpt>
      <trkpt lat="45.3307" lon="5.7754">
        <ele>1380.160154475</ele>
        <time>2015-07-05T07:12:46Z</time>
      </trkpt>
      <trkpt lat="45.33067" lon="5.77538">
        <ele>1380.160154475</ele>
        <time>2015-07-05T07:12:52Z</time>
      </trkpt>
      <trkpt lat="45.33056" lon="5.77525">
        <ele>1383.509891241</ele>
        <time>2015-07-05T07:13:01Z</time>
      </trkpt>
      <trkpt lat="45.3305" lon="5.77519">
        <ele>1383.509891241</ele>
        <time>2015-07-05T07:13:06Z</time>
      </trkpt>
      <trkpt lat="45.33044" lon="5.77507">
        <ele>1387.085959221</ele>
        <time>2015-07-05T07:13:16Z</time>
      </trkpt>
      <trkpt lat="45.33042" lon="5.77505">
        <ele>1387.085959221</ele>
        <time>2015-07-05T07:13:20Z</time>
      </trkpt>
      <trkpt lat="45.33038" lon="5.77497">
        <ele>1390.433697757</ele>
        <time>2015-07-05T07:13:25Z</time>
      </trkpt>
      <trkpt lat="45.33037" lon="5.7749">
        <ele>1390.433697757</ele>
        <time>2015-07-05T07:13:31Z</time>
      </trkpt>
      <trkpt lat="45.33028" lon="5.77484">
        <ele>1394.285377512</ele>
        <time>2015-07-05T07:13:41Z</time>
      </trkpt>
      <trkpt lat="45.3303" lon="5.77483">
        <ele>1394.285377512</ele>
        <time>2015-07-05T07:13:46Z</time>
      </trkpt>
      <trkpt lat="45.33013" lon="5.77477">
        <ele>1398.741639116</ele>
        <time>2015-07-05T07:14:00Z</time>
      </trkpt>
      <trkpt lat="45.33002" lon="5.77474">
        <ele>1403.029405822</ele>
        <time>2015-07-05T07:14:16Z</time>
      </trkpt>
      <trkpt lat="45.32998" lon="5.77473">
        <ele>1403.029405822</ele>
        <time>2015-07-05T07:14:21Z</time>
      </trkpt>
      <trkpt lat="45.32988" lon="5.77455">
        <ele>1407.441698754</ele>
        <time>2015-07-05T07:14:31Z</time>
      </trkpt>
      <trkpt lat="45.32979" lon="5.77449">
        <ele>1411.673295497</ele>
        <time>2015-07-05T07:14:36Z</time>
      </trkpt>
      <trkpt lat="45.32972" lon="5.77449">
        <ele>1411.673295497</ele>
        <time>2015-07-05T07:14:46Z</time>
      </trkpt>
      <trkpt lat="45.32973" lon="5.77438">
        <ele>1416.018439752</ele>
        <time>2015-07-05T07:14:51Z</time>
      </trkpt>
      <trkpt lat="45.32963" lon="5.77433">
        <ele>1420.605439682</ele>
        <time>2015-07-05T07:15:00Z</time>
      </trkpt>
      <trkpt lat="45.32967" lon="5.77433">
        <ele>1420.605439682</ele>
        <time>2015-07-05T07:15:05Z</time>
      </trkpt>
      <trkpt lat="45.32967" lon="5.77431">
        <ele>1420.605439682</ele>
        <time>2015-07-05T07:15:11Z</time>
      </trkpt>
      <trkpt lat="45.32967" lon="5.7743">
        <ele>1420.605439682</ele>
        <time>2015-07-05T07:15:16Z</time>
      </trkpt>
      <trkpt lat="45.32967" lon="5.77426">
        <ele>1425.120289901</ele>
        <time>2015-07-05T07:15:26Z</time>
      </trkpt>
      <trkpt lat="45.3296" lon="5.77416">
        <ele>1429.560613787</ele>
        <time>2015-07-05T07:15:31Z</time>
      </trkpt>
      <trkpt lat="45.32946" lon="5.77393">
        <ele>1434.21279089</ele>
        <time>2015-07-05T07:15:40Z</time>
      </trkpt>
      <trkpt lat="45.32926" lon="5.77386">
        <ele>1438.332951946</ele>
        <time>2015-07-05T07:15:46Z</time>
      </trkpt>
      <trkpt lat="45.32933" lon="5.77367">
        <ele>1439.92735345</ele>
        <time>2015-07-05T07:15:55Z</time>
      </trkpt>
      <trkpt lat="45.32924" lon="5.77367">
        <ele>1441.521754954</ele>
        <time>2015-07-05T07:16:00Z</time>
      </trkpt>
      <trkpt lat="45.32917" lon="5.77346">
        <ele>1445.285424752</ele>
        <time>2015-07-05T07:16:11Z</time>
      </trkpt>
      <trkpt lat="45.32913" lon="5.77339">
        <ele>1445.285424752</ele>
        <time>2015-07-05T07:16:16Z</time>
      </trkpt>
      <trkpt lat="45.32911" lon="5.77328">
        <ele>1449.288769385</ele>
        <time>2015-07-05T07:16:26Z</time>
      </trkpt>
      <trkpt lat="45.32917" lon="5.77324">
        <ele>1449.288769385</ele>
        <time>2015-07-05T07:16:31Z</time>
      </trkpt>
      <trkpt lat="45.32893" lon="5.77324">
        <ele>1452.932501852</ele>
        <time>2015-07-05T07:16:41Z</time>
      </trkpt>
      <trkpt lat="45.32896" lon="5.77307">
        <ele>1456.238987655</ele>
        <time>2015-07-05T07:16:46Z</time>
      </trkpt>
      <trkpt lat="45.32888" lon="5.77296">
        <ele>1460.959406325</ele>
        <time>2015-07-05T07:17:01Z</time>
      </trkpt>
      <trkpt lat="45.32879" lon="5.77272">
        <ele>1463.956836995</ele>
        <time>2015-07-05T07:17:16Z</time>
      </trkpt>
      <trkpt lat="45.32872" lon="5.77277">
        <ele>1463.956836995</ele>
        <time>2015-07-05T07:17:21Z</time>
      </trkpt>
      <trkpt lat="45.32853" lon="5.77264">
        <ele>1467.517804297</ele>
        <time>2015-07-05T07:17:31Z</time>
      </trkpt>
      <trkpt lat="45.32851" lon="5.77264">
        <ele>1467.517804297</ele>
        <time>2015-07-05T07:17:36Z</time>
      </trkpt>
      <trkpt lat="45.32848" lon="5.77269">
        <ele>1467.517804297</ele>
        <time>2015-07-05T07:17:46Z</time>
      </trkpt>
      <trkpt lat="45.32848" lon="5.77268">
        <ele>1467.517804297</ele>
        <time>2015-07-05T07:17:51Z</time>
      </trkpt>
      <trkpt lat="45.32848" lon="5.77269">
        <ele>1467.517804297</ele>
        <time>2015-07-05T07:18:01Z</time>
      </trkpt>
      <trkpt lat="45.32848" lon="5.77269">
        <ele>1467.517804297</ele>
        <time>2015-07-05T07:18:06Z</time>
      </trkpt>
      <trkpt lat="45.32848" lon="5.77269">
        <ele>1467.517804297</ele>
        <time>2015-07-05T07:18:16Z</time>
      </trkpt>
      <trkpt lat="45.32844" lon="5.77268">
        <ele>1471.165455501</ele>
        <time>2015-07-05T07:18:21Z</time>
      </trkpt>
      <trkpt lat="45.32823" lon="5.77265">
        <ele>1475.754894571</ele>
        <time>2015-07-05T07:18:31Z</time>
      </trkpt>
      <trkpt lat="45.32813" lon="5.77259">
        <ele>1479.770156961</ele>
        <time>2015-07-05T07:18:36Z</time>
      </trkpt>
      <trkpt lat="45.328" lon="5.7726">
        <ele>1482.240748469</ele>
        <time>2015-07-05T07:18:46Z</time>
      </trkpt>
      <trkpt lat="45.32801" lon="5.77251">
        <ele>1482.240748469</ele>
        <time>2015-07-05T07:18:51Z</time>
      </trkpt>
      <trkpt lat="45.32782" lon="5.77229">
        <ele>1484.865960743</ele>
        <time>2015-07-05T07:19:06Z</time>
      </trkpt>
      <trkpt lat="45.32779" lon="5.77203">
        <ele>1489.364089238</ele>
        <time>2015-07-05T07:19:16Z</time>
      </trkpt>
      <trkpt lat="45.32777" lon="5.77196">
        <ele>1489.364089238</ele>
        <time>2015-07-05T07:19:21Z</time>
      </trkpt>
      <trkpt lat="45.32772" lon="5.77189">
        <ele>1492.854652328</ele>
        <time>2015-07-05T07:19:26Z</time>
      </trkpt>
      <trkpt lat="45.32759" lon="5.77173">
        <ele>1496.418625598</ele>
        <time>2015-07-05T07:19:36Z</time>
      </trkpt>
      <trkpt lat="45.32753" lon="5.7716">
        <ele>1500.769287508</ele>
        <time>2015-07-05T07:19:51Z</time>
      </trkpt>
      <trkpt lat="45.32751" lon="5.77157">
        <ele>1500.769287508</ele>
        <time>2015-07-05T07:19:56Z</time>
      </trkpt>
      <trkpt lat="45.32746" lon="5.77139">
        <ele>1505.268449998</ele>
        <time>2015-07-05T07:20:06Z</time>
      </trkpt>
      <trkpt lat="45.32747" lon="5.77138">
        <ele>1505.268449998</ele>
        <time>2015-07-05T07:20:11Z</time>
      </trkpt>
      <trkpt lat="45.32749" lon="5.77138">
        <ele>1505.268449998</ele>
        <time>2015-07-05T07:20:21Z</time>
      </trkpt>
      <trkpt lat="45.32749" lon="5.77138">
        <ele>1505.268449998</ele>
        <time>2015-07-05T07:20:26Z</time>
      </trkpt>
      <trkpt lat="45.32749" lon="5.77138">
        <ele>1505.268449998</ele>
        <time>2015-07-05T07:20:36Z</time>
      </trkpt>
      <trkpt lat="45.32749" lon="5.77138">
        <ele>1505.268449998</ele>
        <time>2015-07-05T07:20:41Z</time>
      </trkpt>
      <trkpt lat="45.32749" lon="5.77138">
        <ele>1505.268449998</ele>
        <time>2015-07-05T07:20:51Z</time>
      </trkpt>
      <trkpt lat="45.32749" lon="5.77138">
        <ele>1505.268449998</ele>
        <time>2015-07-05T07:20:56Z</time>
      </trkpt>
      <trkpt lat="45.32749" lon="5.77138">
        <ele>1505.268449998</ele>
        <time>2015-07-05T07:21:06Z</time>
      </trkpt>
      <trkpt lat="45.32749" lon="5.77138">
        <ele>1505.268449998</ele>
        <time>2015-07-05T07:21:11Z</time>
      </trkpt>
      <trkpt lat="45.32749" lon="5.77138">
        <ele>1505.268449998</ele>
        <time>2015-07-05T07:21:21Z</time>
      </trkpt>
      <trkpt lat="45.32749" lon="5.77138">
        <ele>1505.268449998</ele>
        <time>2015-07-05T07:21:25Z</time>
      </trkpt>
      <trkpt lat="45.32749" lon="5.77138">
        <ele>1505.268449998</ele>
        <time>2015-07-05T07:21:30Z</time>
      </trkpt>
      <trkpt lat="45.32749" lon="5.77138">
        <ele>1505.268449998</ele>
        <time>2015-07-05T07:21:35Z</time>
      </trkpt>
      <trkpt lat="45.32749" lon="5.77138">
        <ele>1505.268449998</ele>
        <time>2015-07-05T07:21:40Z</time>
      </trkpt>
      <trkpt lat="45.32749" lon="5.77138">
        <ele>1505.268449998</ele>
        <time>2015-07-05T07:21:45Z</time>
      </trkpt>
      <trkpt lat="45.32749" lon="5.77138">
        <ele>1505.268449998</ele>
        <time>2015-07-05T07:21:51Z</time>
      </trkpt>
      <trkpt lat="45.32751" lon="5.77141">
        <ele>1505.268449998</ele>
        <time>2015-07-05T07:22:01Z</time>
      </trkpt>
      <trkpt lat="45.32751" lon="5.77141">
        <ele>1505.268449998</ele>
        <time>2015-07-05T07:22:06Z</time>
      </trkpt>
      <trkpt lat="45.32736" lon="5.7716">
        <ele>1508.603968545</ele>
        <time>2015-07-05T07:22:20Z</time>
      </trkpt>
      <trkpt lat="45.32738" lon="5.77168">
        <ele>1508.603968545</ele>
        <time>2015-07-05T07:22:25Z</time>
      </trkpt>
      <trkpt lat="45.32737" lon="5.77173">
        <ele>1511.725151886</ele>
        <time>2015-07-05T07:22:36Z</time>
      </trkpt>
      <trkpt lat="45.32748" lon="5.77193">
        <ele>1515.368191651</ele>
        <time>2015-07-05T07:22:51Z</time>
      </trkpt>
      <trkpt lat="45.32739" lon="5.77197">
        <ele>1518.484523284</ele>
        <time>2015-07-05T07:22:56Z</time>
      </trkpt>
      <trkpt lat="45.32736" lon="5.77195">
        <ele>1518.484523284</ele>
        <time>2015-07-05T07:23:06Z</time>
      </trkpt>
      <trkpt lat="45.32736" lon="5.77194">
        <ele>1518.484523284</ele>
        <time>2015-07-05T07:23:11Z</time>
      </trkpt>
      <trkpt lat="45.32736" lon="5.77193">
        <ele>1518.484523284</ele>
        <time>2015-07-05T07:23:21Z</time>
      </trkpt>
      <trkpt lat="45.32735" lon="5.77193">
        <ele>1518.484523284</ele>
        <time>2015-07-05T07:23:26Z</time>
      </trkpt>
      <trkpt lat="45.32736" lon="5.77194">
        <ele>1518.484523284</ele>
        <time>2015-07-05T07:23:36Z</time>
      </trkpt>
      <trkpt lat="45.32736" lon="5.77194">
        <ele>1518.484523284</ele>
        <time>2015-07-05T07:23:41Z</time>
      </trkpt>
      <trkpt lat="45.32736" lon="5.77194">
        <ele>1518.484523284</ele>
        <time>2015-07-05T07:23:51Z</time>
      </trkpt>
      <trkpt lat="45.32736" lon="5.77194">
        <ele>1518.484523284</ele>
        <time>2015-07-05T07:23:56Z</time>
      </trkpt>
      <trkpt lat="45.32726" lon="5.7719">
        <ele>1522.265869374</ele>
        <time>2015-07-05T07:24:06Z</time>
      </trkpt>
      <trkpt lat="45.32722" lon="5.77188">
        <ele>1522.265869374</ele>
        <time>2015-07-05T07:24:11Z</time>
      </trkpt>
      <trkpt lat="45.32718" lon="5.77185">
        <ele>1522.265869374</ele>
        <time>2015-07-05T07:24:16Z</time>
      </trkpt>
      <trkpt lat="45.32708" lon="5.77179">
        <ele>1526.085318814</ele>
        <time>2015-07-05T07:24:26Z</time>
      </trkpt>
      <trkpt lat="45.32704" lon="5.77174">
        <ele>1526.085318814</ele>
        <time>2015-07-05T07:24:31Z</time>
      </trkpt>
      <trkpt lat="45.32699" lon="5.77163">
        <ele>1530.082566544</ele>
        <time>2015-07-05T07:24:41Z</time>
      </trkpt>
      <trkpt lat="45.32696" lon="5.77159">
        <ele>1530.082566544</ele>
        <time>2015-07-05T07:24:46Z</time>
      </trkpt>
      <trkpt lat="45.32687" lon="5.77159">
        <ele>1534.098425539</ele>
        <time>2015-07-05T07:24:56Z</time>
      </trkpt>
      <trkpt lat="45.3268" lon="5.77155">
        <ele>1534.098425539</ele>
        <time>2015-07-05T07:25:01Z</time>
      </trkpt>
      <trkpt lat="45.32669" lon="5.77142">
        <ele>1537.697226146</ele>
        <time>2015-07-05T07:25:11Z</time>
      </trkpt>
      <trkpt lat="45.32668" lon="5.77132">
        <ele>1537.697226146</ele>
        <time>2015-07-05T07:25:16Z</time>
      </trkpt>
      <trkpt lat="45.32666" lon="5.77118">
        <ele>1541.197123396</ele>
        <time>2015-07-05T07:25:26Z</time>
      </trkpt>
      <trkpt lat="45.32663" lon="5.77111">
        <ele>1541.197123396</ele>
        <time>2015-07-05T07:25:31Z</time>
      </trkpt>
      <trkpt lat="45.32662" lon="5.77101">
        <ele>1544.749158026</ele>
        <time>2015-07-05T07:25:35Z</time>
      </trkpt>
      <trkpt lat="45.32653" lon="5.77098">
        <ele>1548.060881277</ele>
        <time>2015-07-05T07:25:41Z</time>
      </trkpt>
      <trkpt lat="45.32651" lon="5.77092">
        <ele>1548.060881277</ele>
        <time>2015-07-05T07:25:46Z</time>
      </trkpt>
      <trkpt lat="45.32649" lon="5.77089">
        <ele>1548.060881277</ele>
        <time>2015-07-05T07:25:51Z</time>
      </trkpt>
      <trkpt lat="45.32642" lon="5.77073">
        <ele>1551.870860197</ele>
        <time>2015-07-05T07:26:01Z</time>
      </trkpt>
      <trkpt lat="45.32637" lon="5.77067">
        <ele>1551.870860197</ele>
        <time>2015-07-05T07:26:06Z</time>
      </trkpt>
      <trkpt lat="45.32638" lon="5.77051">
        <ele>1555.709195533</ele>
        <time>2015-07-05T07:26:16Z</time>
      </trkpt>
      <trkpt lat="45.32636" lon="5.77043">
        <ele>1555.709195533</ele>
        <time>2015-07-05T07:26:21Z</time>
      </trkpt>
      <trkpt lat="45.32629" lon="5.77035">
        <ele>1559.428720529</ele>
        <time>2015-07-05T07:26:31Z</time>
      </trkpt>
      <trkpt lat="45.3262" lon="5.77029">
        <ele>1562.172922546</ele>
        <time>2015-07-05T07:26:36Z</time>
      </trkpt>
      <trkpt lat="45.32608" lon="5.77018">
        <ele>1564.592114963</ele>
        <time>2015-07-05T07:26:46Z</time>
      </trkpt>
      <trkpt lat="45.32597" lon="5.77017">
        <ele>1565.992799551</ele>
        <time>2015-07-05T07:26:51Z</time>
      </trkpt>
      <trkpt lat="45.32582" lon="5.77012">
        <ele>1567.608759509</ele>
        <time>2015-07-05T07:27:01Z</time>
      </trkpt>
      <trkpt lat="45.32577" lon="5.77007">
        <ele>1567.608759509</ele>
        <time>2015-07-05T07:27:06Z</time>
      </trkpt>
      <trkpt lat="45.32559" lon="5.77009">
        <ele>1568.565002198</ele>
        <time>2015-07-05T07:27:16Z</time>
      </trkpt>
      <trkpt lat="45.32555" lon="5.7701">
        <ele>1568.565002198</ele>
        <time>2015-07-05T07:27:21Z</time>
      </trkpt>
      <trkpt lat="45.32548" lon="5.77018">
        <ele>1569.781994663</ele>
        <time>2015-07-05T07:27:31Z</time>
      </trkpt>
      <trkpt lat="45.32546" lon="5.7702">
        <ele>1569.781994663</ele>
        <time>2015-07-05T07:27:36Z</time>
      </trkpt>
      <trkpt lat="45.32543" lon="5.77017">
        <ele>1569.781994663</ele>
        <time>2015-07-05T07:27:41Z</time>
      </trkpt>
      <trkpt lat="45.32537" lon="5.77016">
        <ele>1571.535390934</ele>
        <time>2015-07-05T07:27:51Z</time>
      </trkpt>
      <trkpt lat="45.32531" lon="5.77013">
        <ele>1571.535390934</ele>
        <time>2015-07-05T07:27:56Z</time>
      </trkpt>
      <trkpt lat="45.32529" lon="5.77011">
        <ele>1571.535390934</ele>
        <time>2015-07-05T07:28:06Z</time>
      </trkpt>
      <trkpt lat="45.3253" lon="5.77011">
        <ele>1571.535390934</ele>
        <time>2015-07-05T07:28:11Z</time>
      </trkpt>
      <trkpt lat="45.3253" lon="5.77011">
        <ele>1571.535390934</ele>
        <time>2015-07-05T07:28:21Z</time>
      </trkpt>
      <trkpt lat="45.3253" lon="5.77011">
        <ele>1571.535390934</ele>
        <time>2015-07-05T07:28:26Z</time>
      </trkpt>
      <trkpt lat="45.3253" lon="5.77011">
        <ele>1571.535390934</ele>
        <time>2015-07-05T07:28:35Z</time>
      </trkpt>
      <trkpt lat="45.3253" lon="5.77011">
        <ele>1571.535390934</ele>
        <time>2015-07-05T07:28:40Z</time>
      </trkpt>
      <trkpt lat="45.32515" lon="5.77007">
        <ele>1573.214387123</ele>
        <time>2015-07-05T07:28:51Z</time>
      </trkpt>
      <trkpt lat="45.3251" lon="5.76998">
        <ele>1573.214387123</ele>
        <time>2015-07-05T07:28:56Z</time>
      </trkpt>
      <trkpt lat="45.32497" lon="5.76981">
        <ele>1574.973761709</ele>
        <time>2015-07-05T07:29:06Z</time>
      </trkpt>
      <trkpt lat="45.32495" lon="5.76974">
        <ele>1574.973761709</ele>
        <time>2015-07-05T07:29:11Z</time>
      </trkpt>
      <trkpt lat="45.32484" lon="5.76964">
        <ele>1576.091966115</ele>
        <time>2015-07-05T07:29:21Z</time>
      </trkpt>
      <trkpt lat="45.32478" lon="5.76963">
        <ele>1576.091966115</ele>
        <time>2015-07-05T07:29:26Z</time>
      </trkpt>
      <trkpt lat="45.32467" lon="5.76955">
        <ele>1577.199178738</ele>
        <time>2015-07-05T07:29:36Z</time>
      </trkpt>
      <trkpt lat="45.32461" lon="5.76952">
        <ele>1577.199178738</ele>
        <time>2015-07-05T07:29:41Z</time>
      </trkpt>
      <trkpt lat="45.32437" lon="5.7694">
        <ele>1577.72633698</ele>
        <time>2015-07-05T07:29:56Z</time>
      </trkpt>
      <trkpt lat="45.32431" lon="5.76937">
        <ele>1577.72633698</ele>
        <time>2015-07-05T07:30:01Z</time>
      </trkpt>
      <trkpt lat="45.32428" lon="5.76941">
        <ele>1578.300594014</ele>
        <time>2015-07-05T07:30:11Z</time>
      </trkpt>
      <trkpt lat="45.32426" lon="5.76939">
        <ele>1578.300594014</ele>
        <time>2015-07-05T07:30:16Z</time>
      </trkpt>
      <trkpt lat="45.3242" lon="5.76926">
        <ele>1578.926337724</ele>
        <time>2015-07-05T07:30:26Z</time>
      </trkpt>
      <trkpt lat="45.32418" lon="5.7692">
        <ele>1578.926337724</ele>
        <time>2015-07-05T07:30:31Z</time>
      </trkpt>
      <trkpt lat="45.32411" lon="5.76908">
        <ele>1579.89558002</ele>
        <time>2015-07-05T07:30:41Z</time>
      </trkpt>
      <trkpt lat="45.32405" lon="5.76905">
        <ele>1579.89558002</ele>
        <time>2015-07-05T07:30:46Z</time>
      </trkpt>
      <trkpt lat="45.32393" lon="5.76892">
        <ele>1581.189552803</ele>
        <time>2015-07-05T07:30:56Z</time>
      </trkpt>
      <trkpt lat="45.32394" lon="5.76892">
        <ele>1581.189552803</ele>
        <time>2015-07-05T07:31:01Z</time>
      </trkpt>
      <trkpt lat="45.32393" lon="5.76892">
        <ele>1581.189552803</ele>
        <time>2015-07-05T07:31:11Z</time>
      </trkpt>
      <trkpt lat="45.32392" lon="5.76893">
        <ele>1581.189552803</ele>
        <time>2015-07-05T07:31:16Z</time>
      </trkpt>
      <trkpt lat="45.32392" lon="5.76895">
        <ele>1581.189552803</ele>
        <time>2015-07-05T07:31:31Z</time>
      </trkpt>
      <trkpt lat="45.32392" lon="5.76895">
        <ele>1581.189552803</ele>
        <time>2015-07-05T07:31:36Z</time>
      </trkpt>
      <trkpt lat="45.32388" lon="5.76887">
        <ele>1582.933915737</ele>
        <time>2015-07-05T07:31:45Z</time>
      </trkpt>
      <trkpt lat="45.32392" lon="5.76887">
        <ele>1582.933915737</ele>
        <time>2015-07-05T07:31:50Z</time>
      </trkpt>
      <trkpt lat="45.32393" lon="5.76879">
        <ele>1584.523121891</ele>
        <time>2015-07-05T07:32:01Z</time>
      </trkpt>
      <trkpt lat="45.32389" lon="5.76875">
        <ele>1584.523121891</ele>
        <time>2015-07-05T07:32:06Z</time>
      </trkpt>
      <trkpt lat="45.32385" lon="5.76869">
        <ele>1586.405162442</ele>
        <time>2015-07-05T07:32:16Z</time>
      </trkpt>
      <trkpt lat="45.32383" lon="5.76866">
        <ele>1586.405162442</ele>
        <time>2015-07-05T07:32:21Z</time>
      </trkpt>
      <trkpt lat="45.32379" lon="5.76858">
        <ele>1588.994140695</ele>
        <time>2015-07-05T07:32:31Z</time>
      </trkpt>
      <trkpt lat="45.32376" lon="5.76854">
        <ele>1588.994140695</ele>
        <time>2015-07-05T07:32:36Z</time>
      </trkpt>
      <trkpt lat="45.32374" lon="5.76844">
        <ele>1591.518713807</ele>
        <time>2015-07-05T07:32:46Z</time>
      </trkpt>
      <trkpt lat="45.32373" lon="5.76837">
        <ele>1591.518713807</ele>
        <time>2015-07-05T07:32:51Z</time>
      </trkpt>
      <trkpt lat="45.32364" lon="5.7683">
        <ele>1593.984789179</ele>
        <time>2015-07-05T07:33:01Z</time>
      </trkpt>
      <trkpt lat="45.32359" lon="5.76826">
        <ele>1593.984789179</ele>
        <time>2015-07-05T07:33:06Z</time>
      </trkpt>
      <trkpt lat="45.32358" lon="5.76825">
        <ele>1593.984789179</ele>
        <time>2015-07-05T07:33:15Z</time>
      </trkpt>
      <trkpt lat="45.32364" lon="5.7683">
        <ele>1596.397862461</ele>
        <time>2015-07-05T07:33:21Z</time>
      </trkpt>
      <trkpt lat="45.32364" lon="5.76833">
        <ele>1596.397862461</ele>
        <time>2015-07-05T07:33:36Z</time>
      </trkpt>
      <trkpt lat="45.32364" lon="5.76833">
        <ele>1596.397862461</ele>
        <time>2015-07-05T07:33:41Z</time>
      </trkpt>
      <trkpt lat="45.32358" lon="5.76829">
        <ele>1598.763039612</ele>
        <time>2015-07-05T07:33:51Z</time>
      </trkpt>
      <trkpt lat="45.32354" lon="5.76827">
        <ele>1598.763039612</ele>
        <time>2015-07-05T07:33:56Z</time>
      </trkpt>
      <trkpt lat="45.32346" lon="5.76819">
        <ele>1600.796835009</ele>
        <time>2015-07-05T07:34:06Z</time>
      </trkpt>
      <trkpt lat="45.32346" lon="5.76819">
        <ele>1600.796835009</ele>
        <time>2015-07-05T07:34:11Z</time>
      </trkpt>
      <trkpt lat="45.32341" lon="5.76811">
        <ele>1600.796835009</ele>
        <time>2015-07-05T07:34:21Z</time>
      </trkpt>
      <trkpt lat="45.32342" lon="5.76806">
        <ele>1602.813838766</ele>
        <time>2015-07-05T07:34:26Z</time>
      </trkpt>
      <trkpt lat="45.32337" lon="5.76798">
        <ele>1602.813838766</ele>
        <time>2015-07-05T07:34:36Z</time>
      </trkpt>
      <trkpt lat="45.32338" lon="5.76795">
        <ele>1605.249571547</ele>
        <time>2015-07-05T07:34:41Z</time>
      </trkpt>
      <trkpt lat="45.32333" lon="5.76791">
        <ele>1605.249571547</ele>
        <time>2015-07-05T07:34:51Z</time>
      </trkpt>
      <trkpt lat="45.32333" lon="5.7679">
        <ele>1605.249571547</ele>
        <time>2015-07-05T07:34:56Z</time>
      </trkpt>
      <trkpt lat="45.32333" lon="5.76792">
        <ele>1605.249571547</ele>
        <time>2015-07-05T07:35:06Z</time>
      </trkpt>
      <trkpt lat="45.32332" lon="5.76792">
        <ele>1605.249571547</ele>
        <time>2015-07-05T07:35:11Z</time>
      </trkpt>
      <trkpt lat="45.32331" lon="5.7679">
        <ele>1608.362163054</ele>
        <time>2015-07-05T07:35:21Z</time>
      </trkpt>
      <trkpt lat="45.32327" lon="5.76782">
        <ele>1608.362163054</ele>
        <time>2015-07-05T07:35:26Z</time>
      </trkpt>
      <trkpt lat="45.32316" lon="5.76776">
        <ele>1611.812333245</ele>
        <time>2015-07-05T07:35:36Z</time>
      </trkpt>
      <trkpt lat="45.3231" lon="5.76769">
        <ele>1611.812333245</ele>
        <time>2015-07-05T07:35:41Z</time>
      </trkpt>
      <trkpt lat="45.32291" lon="5.76751">
        <ele>1615.428795803</ele>
        <time>2015-07-05T07:35:56Z</time>
      </trkpt>
      <trkpt lat="45.32288" lon="5.76749">
        <ele>1615.428795803</ele>
        <time>2015-07-05T07:36:01Z</time>
      </trkpt>
      <trkpt lat="45.32283" lon="5.76744">
        <ele>1619.484633822</ele>
        <time>2015-07-05T07:36:11Z</time>
      </trkpt>
      <trkpt lat="45.32284" lon="5.76744">
        <ele>1619.484633822</ele>
        <time>2015-07-05T07:36:16Z</time>
      </trkpt>
      <trkpt lat="45.32284" lon="5.76744">
        <ele>1619.484633822</ele>
        <time>2015-07-05T07:36:26Z</time>
      </trkpt>
      <trkpt lat="45.32284" lon="5.76744">
        <ele>1619.484633822</ele>
        <time>2015-07-05T07:36:31Z</time>
      </trkpt>
      <trkpt lat="45.32284" lon="5.76744">
        <ele>1619.484633822</ele>
        <time>2015-07-05T07:36:41Z</time>
      </trkpt>
      <trkpt lat="45.32284" lon="5.76744">
        <ele>1619.484633822</ele>
        <time>2015-07-05T07:36:46Z</time>
      </trkpt>
      <trkpt lat="45.32284" lon="5.76744">
        <ele>1619.484633822</ele>
        <time>2015-07-05T07:36:56Z</time>
      </trkpt>
      <trkpt lat="45.32284" lon="5.76744">
        <ele>1619.484633822</ele>
        <time>2015-07-05T07:37:01Z</time>
      </trkpt>
      <trkpt lat="45.32284" lon="5.76744">
        <ele>1619.484633822</ele>
        <time>2015-07-05T07:37:11Z</time>
      </trkpt>
      <trkpt lat="45.32284" lon="5.76744">
        <ele>1619.484633822</ele>
        <time>2015-07-05T07:37:16Z</time>
      </trkpt>
      <trkpt lat="45.32285" lon="5.7674">
        <ele>1619.484633822</ele>
        <time>2015-07-05T07:37:26Z</time>
      </trkpt>
      <trkpt lat="45.32283" lon="5.76737">
        <ele>1619.484633822</ele>
        <time>2015-07-05T07:37:31Z</time>
      </trkpt>
      <trkpt lat="45.32274" lon="5.7673">
        <ele>1623.078682274</ele>
        <time>2015-07-05T07:37:41Z</time>
      </trkpt>
      <trkpt lat="45.32269" lon="5.76729">
        <ele>1623.078682274</ele>
        <time>2015-07-05T07:37:46Z</time>
      </trkpt>
      <trkpt lat="45.32265" lon="5.76728">
        <ele>1626.530108704</ele>
        <time>2015-07-05T07:37:55Z</time>
      </trkpt>
      <trkpt lat="45.32265" lon="5.76728">
        <ele>1626.530108704</ele>
        <time>2015-07-05T07:38:01Z</time>
      </trkpt>
      <trkpt lat="45.32265" lon="5.76728">
        <ele>1626.530108704</ele>
        <time>2015-07-05T07:38:10Z</time>
      </trkpt>
      <trkpt lat="45.32265" lon="5.76728">
        <ele>1626.530108704</ele>
        <time>2015-07-05T07:38:16Z</time>
      </trkpt>
      <trkpt lat="45.3226" lon="5.76726">
        <ele>1626.530108704</ele>
        <time>2015-07-05T07:38:20Z</time>
      </trkpt>
      <trkpt lat="45.32258" lon="5.76711">
        <ele>1630.567331573</ele>
        <time>2015-07-05T07:38:26Z</time>
      </trkpt>
      <trkpt lat="45.32254" lon="5.76712">
        <ele>1630.567331573</ele>
        <time>2015-07-05T07:38:31Z</time>
      </trkpt>
      <trkpt lat="45.32241" lon="5.76703">
        <ele>1634.854815897</ele>
        <time>2015-07-05T07:38:41Z</time>
      </trkpt>
      <trkpt lat="45.32242" lon="5.76702">
        <ele>1634.854815897</ele>
        <time>2015-07-05T07:38:46Z</time>
      </trkpt>
      <trkpt lat="45.3222" lon="5.76686">
        <ele>1638.504517997</ele>
        <time>2015-07-05T07:39:01Z</time>
      </trkpt>
      <trkpt lat="45.32211" lon="5.76673">
        <ele>1642.280643686</ele>
        <time>2015-07-05T07:39:16Z</time>
      </trkpt>
      <trkpt lat="45.32197" lon="5.76654">
        <ele>1645.449807321</ele>
        <time>2015-07-05T07:39:31Z</time>
      </trkpt>
      <trkpt lat="45.32195" lon="5.76652">
        <ele>1645.449807321</ele>
        <time>2015-07-05T07:39:36Z</time>
      </trkpt>
      <trkpt lat="45.32193" lon="5.76645">
        <ele>1645.449807321</ele>
        <time>2015-07-05T07:39:46Z</time>
      </trkpt>
      <trkpt lat="45.32191" lon="5.76644">
        <ele>1648.342999007</ele>
        <time>2015-07-05T07:39:51Z</time>
      </trkpt>
      <trkpt lat="45.3219" lon="5.7664">
        <ele>1648.342999007</ele>
        <time>2015-07-05T07:40:01Z</time>
      </trkpt>
      <trkpt lat="45.32187" lon="5.76634">
        <ele>1648.342999007</ele>
        <time>2015-07-05T07:40:06Z</time>
      </trkpt>
      <trkpt lat="45.32182" lon="5.76624">
        <ele>1651.55591731</ele>
        <time>2015-07-05T07:40:16Z</time>
      </trkpt>
      <trkpt lat="45.32179" lon="5.7662">
        <ele>1651.55591731</ele>
        <time>2015-07-05T07:40:21Z</time>
      </trkpt>
      <trkpt lat="45.3218" lon="5.76613">
        <ele>1655.063190146</ele>
        <time>2015-07-05T07:40:31Z</time>
      </trkpt>
      <trkpt lat="45.32176" lon="5.76609">
        <ele>1655.063190146</ele>
        <time>2015-07-05T07:40:36Z</time>
      </trkpt>
      <trkpt lat="45.32169" lon="5.766">
        <ele>1659.416963826</ele>
        <time>2015-07-05T07:40:46Z</time>
      </trkpt>
      <trkpt lat="45.32169" lon="5.76597">
        <ele>1659.416963826</ele>
        <time>2015-07-05T07:40:51Z</time>
      </trkpt>
      <trkpt lat="45.32163" lon="5.7659">
        <ele>1663.397157212</ele>
        <time>2015-07-05T07:41:01Z</time>
      </trkpt>
      <trkpt lat="45.32162" lon="5.76584">
        <ele>1663.397157212</ele>
        <time>2015-07-05T07:41:06Z</time>
      </trkpt>
      <trkpt lat="45.32158" lon="5.76567">
        <ele>1668.468415678</ele>
        <time>2015-07-05T07:41:21Z</time>
      </trkpt>
      <trkpt lat="45.32154" lon="5.76547">
        <ele>1673.823127317</ele>
        <time>2015-07-05T07:41:35Z</time>
      </trkpt>
      <trkpt lat="45.32156" lon="5.76544">
        <ele>1673.823127317</ele>
        <time>2015-07-05T07:41:40Z</time>
      </trkpt>
      <trkpt lat="45.32156" lon="5.76526">
        <ele>1679.000510559</ele>
        <time>2015-07-05T07:41:50Z</time>
      </trkpt>
      <trkpt lat="45.32156" lon="5.76531">
        <ele>1679.000510559</ele>
        <time>2015-07-05T07:41:56Z</time>
      </trkpt>
      <trkpt lat="45.32156" lon="5.76523">
        <ele>1683.718331149</ele>
        <time>2015-07-05T07:42:01Z</time>
      </trkpt>
      <trkpt lat="45.32154" lon="5.76515">
        <ele>1683.718331149</ele>
        <time>2015-07-05T07:42:11Z</time>
      </trkpt>
      <trkpt lat="45.32154" lon="5.76511">
        <ele>1683.718331149</ele>
        <time>2015-07-05T07:42:16Z</time>
      </trkpt>
      <trkpt lat="45.32152" lon="5.76497">
        <ele>1688.581147234</ele>
        <time>2015-07-05T07:42:25Z</time>
      </trkpt>
      <trkpt lat="45.32151" lon="5.76489">
        <ele>1688.581147234</ele>
        <time>2015-07-05T07:42:31Z</time>
      </trkpt>
      <trkpt lat="45.32151" lon="5.76477">
        <ele>1694.148815808</ele>
        <time>2015-07-05T07:42:46Z</time>
      </trkpt>
      <trkpt lat="45.32152" lon="5.76475">
        <ele>1694.148815808</ele>
        <time>2015-07-05T07:42:51Z</time>
      </trkpt>
      <trkpt lat="45.32148" lon="5.76465">
        <ele>1699.497105235</ele>
        <time>2015-07-05T07:43:01Z</time>
      </trkpt>
      <trkpt lat="45.32146" lon="5.76461">
        <ele>1699.497105235</ele>
        <time>2015-07-05T07:43:06Z</time>
      </trkpt>
      <trkpt lat="45.32142" lon="5.76449">
        <ele>1704.779208628</ele>
        <time>2015-07-05T07:43:16Z</time>
      </trkpt>
      <trkpt lat="45.32142" lon="5.76445">
        <ele>1704.779208628</ele>
        <time>2015-07-05T07:43:21Z</time>
      </trkpt>
      <trkpt lat="45.3214" lon="5.76437">
        <ele>1704.779208628</ele>
        <time>2015-07-05T07:43:31Z</time>
      </trkpt>
      <trkpt lat="45.32137" lon="5.76432">
        <ele>1710.137399435</ele>
        <time>2015-07-05T07:43:36Z</time>
      </trkpt>
      <trkpt lat="45.3214" lon="5.76425">
        <ele>1710.137399435</ele>
        <time>2015-07-05T07:43:46Z</time>
      </trkpt>
      <trkpt lat="45.32136" lon="5.76421">
        <ele>1715.559333147</ele>
        <time>2015-07-05T07:43:51Z</time>
      </trkpt>
      <trkpt lat="45.32135" lon="5.7641">
        <ele>1715.559333147</ele>
        <time>2015-07-05T07:44:01Z</time>
      </trkpt>
      <trkpt lat="45.32134" lon="5.76405">
        <ele>1720.889448344</ele>
        <time>2015-07-05T07:44:06Z</time>
      </trkpt>
      <trkpt lat="45.32131" lon="5.76394">
        <ele>1720.889448344</ele>
        <time>2015-07-05T07:44:16Z</time>
      </trkpt>
      <trkpt lat="45.3213" lon="5.76388">
        <ele>1726.128153094</ele>
        <time>2015-07-05T07:44:21Z</time>
      </trkpt>
      <trkpt lat="45.32121" lon="5.76377">
        <ele>1730.988038127</ele>
        <time>2015-07-05T07:44:36Z</time>
      </trkpt>
      <trkpt lat="45.32104" lon="5.76364">
        <ele>1735.780496387</ele>
        <time>2015-07-05T07:45:25Z</time>
      </trkpt>
      <trkpt lat="45.32107" lon="5.76363">
        <ele>1735.780496387</ele>
        <time>2015-07-05T07:45:30Z</time>
      </trkpt>
      <trkpt lat="45.32101" lon="5.76347">
        <ele>1739.497416197</ele>
        <time>2015-07-05T07:45:36Z</time>
      </trkpt>
      <trkpt lat="45.32102" lon="5.76346">
        <ele>1739.497416197</ele>
        <time>2015-07-05T07:45:46Z</time>
      </trkpt>
      <trkpt lat="45.32091" lon="5.76329">
        <ele>1742.504935669</ele>
        <time>2015-07-05T07:45:51Z</time>
      </trkpt>
      <trkpt lat="45.32085" lon="5.76303">
        <ele>1744.423897109</ele>
        <time>2015-07-05T07:46:00Z</time>
      </trkpt>
      <trkpt lat="45.32081" lon="5.76292">
        <ele>1744.423897109</ele>
        <time>2015-07-05T07:46:06Z</time>
      </trkpt>
      <trkpt lat="45.32065" lon="5.76272">
        <ele>1745.914977503</ele>
        <time>2015-07-05T07:46:16Z</time>
      </trkpt>
      <trkpt lat="45.32056" lon="5.76263">
        <ele>1746.726982071</ele>
        <time>2015-07-05T07:46:21Z</time>
      </trkpt>
      <trkpt lat="45.32045" lon="5.7625">
        <ele>1747.349731145</ele>
        <time>2015-07-05T07:46:31Z</time>
      </trkpt>
      <trkpt lat="45.32039" lon="5.76236">
        <ele>1747.372999186</ele>
        <time>2015-07-05T07:46:36Z</time>
      </trkpt>
      <trkpt lat="45.32034" lon="5.76211">
        <ele>1747.427197033</ele>
        <time>2015-07-05T07:46:46Z</time>
      </trkpt>
      <trkpt lat="45.32032" lon="5.76203">
        <ele>1747.427197033</ele>
        <time>2015-07-05T07:46:51Z</time>
      </trkpt>
      <trkpt lat="45.32021" lon="5.76191">
        <ele>1748.961019421</ele>
        <time>2015-07-05T07:47:06Z</time>
      </trkpt>
      <trkpt lat="45.32023" lon="5.76181">
        <ele>1748.961019421</ele>
        <time>2015-07-05T07:47:11Z</time>
      </trkpt>
      <trkpt lat="45.32021" lon="5.76161">
        <ele>1750.430354309</ele>
        <time>2015-07-05T07:47:21Z</time>
      </trkpt>
      <trkpt lat="45.32018" lon="5.76159">
        <ele>1750.430354309</ele>
        <time>2015-07-05T07:47:26Z</time>
      </trkpt>
      <trkpt lat="45.32011" lon="5.76153">
        <ele>1751.701666401</ele>
        <time>2015-07-05T07:47:36Z</time>
      </trkpt>
      <trkpt lat="45.32003" lon="5.76141">
        <ele>1753.084067341</ele>
        <time>2015-07-05T07:47:41Z</time>
      </trkpt>
      <trkpt lat="45.31994" lon="5.76121">
        <ele>1753.854805078</ele>
        <time>2015-07-05T07:47:51Z</time>
      </trkpt>
      <trkpt lat="45.31988" lon="5.76117">
        <ele>1753.854805078</ele>
        <time>2015-07-05T07:47:56Z</time>
      </trkpt>
      <trkpt lat="45.31976" lon="5.76106">
        <ele>1753.489963912</ele>
        <time>2015-07-05T07:48:06Z</time>
      </trkpt>
      <trkpt lat="45.3197" lon="5.76101">
        <ele>1753.489963912</ele>
        <time>2015-07-05T07:48:11Z</time>
      </trkpt>
      <trkpt lat="45.31955" lon="5.76093">
        <ele>1751.93952989</ele>
        <time>2015-07-05T07:48:21Z</time>
      </trkpt>
      <trkpt lat="45.31948" lon="5.76084">
        <ele>1750.025028031</ele>
        <time>2015-07-05T07:48:26Z</time>
      </trkpt>
      <trkpt lat="45.31937" lon="5.76047">
        <ele>1746.635052396</ele>
        <time>2015-07-05T07:48:40Z</time>
      </trkpt>
      <trkpt lat="45.31936" lon="5.76036">
        <ele>1746.635052396</ele>
        <time>2015-07-05T07:48:45Z</time>
      </trkpt>
      <trkpt lat="45.31945" lon="5.76008">
        <ele>1742.329008041</ele>
        <time>2015-07-05T07:48:57Z</time>
      </trkpt>
      <trkpt lat="45.31947" lon="5.75999">
        <ele>1742.329008041</ele>
        <time>2015-07-05T07:49:01Z</time>
      </trkpt>
      <trkpt lat="45.3195" lon="5.75979">
        <ele>1737.051096628</ele>
        <time>2015-07-05T07:49:11Z</time>
      </trkpt>
      <trkpt lat="45.31951" lon="5.7597">
        <ele>1737.051096628</ele>
        <time>2015-07-05T07:49:16Z</time>
      </trkpt>
      <trkpt lat="45.31951" lon="5.75949">
        <ele>1730.896176136</ele>
        <time>2015-07-05T07:49:26Z</time>
      </trkpt>
      <trkpt lat="45.31955" lon="5.75938">
        <ele>1730.896176136</ele>
        <time>2015-07-05T07:49:31Z</time>
      </trkpt>
      <trkpt lat="45.31959" lon="5.75907">
        <ele>1724.242490084</ele>
        <time>2015-07-05T07:49:41Z</time>
      </trkpt>
      <trkpt lat="45.31952" lon="5.75886">
        <ele>1717.873851111</ele>
        <time>2015-07-05T07:49:47Z</time>
      </trkpt>
      <trkpt lat="45.31936" lon="5.75868">
        <ele>1712.082935301</ele>
        <time>2015-07-05T07:49:56Z</time>
      </trkpt>
      <trkpt lat="45.31928" lon="5.75857">
        <ele>1706.274163284</ele>
        <time>2015-07-05T07:50:01Z</time>
      </trkpt>
      <trkpt lat="45.31915" lon="5.75831">
        <ele>1700.183473351</ele>
        <time>2015-07-05T07:50:11Z</time>
      </trkpt>
      <trkpt lat="45.31909" lon="5.75811">
        <ele>1694.719345045</ele>
        <time>2015-07-05T07:50:16Z</time>
      </trkpt>
      <trkpt lat="45.319" lon="5.75782">
        <ele>1689.135977964</ele>
        <time>2015-07-05T07:50:26Z</time>
      </trkpt>
      <trkpt lat="45.31897" lon="5.7577">
        <ele>1683.750885678</ele>
        <time>2015-07-05T07:50:31Z</time>
      </trkpt>
      <trkpt lat="45.31887" lon="5.75737">
        <ele>1678.857099901</ele>
        <time>2015-07-05T07:50:46Z</time>
      </trkpt>
      <trkpt lat="45.31886" lon="5.75722">
        <ele>1674.147690751</ele>
        <time>2015-07-05T07:50:51Z</time>
      </trkpt>
      <trkpt lat="45.31887" lon="5.75689">
        <ele>1669.625360706</ele>
        <time>2015-07-05T07:51:01Z</time>
      </trkpt>
      <trkpt lat="45.31892" lon="5.75671">
        <ele>1665.147355556</ele>
        <time>2015-07-05T07:51:06Z</time>
      </trkpt>
      <trkpt lat="45.31914" lon="5.75649">
        <ele>1661.157107726</ele>
        <time>2015-07-05T07:51:16Z</time>
      </trkpt>
      <trkpt lat="45.31926" lon="5.75639">
        <ele>1657.342936164</ele>
        <time>2015-07-05T07:51:21Z</time>
      </trkpt>
      <trkpt lat="45.31939" lon="5.75614">
        <ele>1653.991400495</ele>
        <time>2015-07-05T07:51:31Z</time>
      </trkpt>
      <trkpt lat="45.31947" lon="5.75599">
        <ele>1650.933785346</ele>
        <time>2015-07-05T07:51:36Z</time>
      </trkpt>
      <trkpt lat="45.31972" lon="5.75583">
        <ele>1648.156478988</ele>
        <time>2015-07-05T07:51:46Z</time>
      </trkpt>
      <trkpt lat="45.31984" lon="5.75579">
        <ele>1645.35730324</ele>
        <time>2015-07-05T07:51:51Z</time>
      </trkpt>
      <trkpt lat="45.31992" lon="5.75575">
        <ele>1642.544024769</ele>
        <time>2015-07-05T07:52:02Z</time>
      </trkpt>
      <trkpt lat="45.31994" lon="5.75583">
        <ele>1642.544024769</ele>
        <time>2015-07-05T07:52:06Z</time>
      </trkpt>
      <trkpt lat="45.31999" lon="5.75585">
        <ele>1640.011587355</ele>
        <time>2015-07-05T07:52:16Z</time>
      </trkpt>
      <trkpt lat="45.32002" lon="5.75585">
        <ele>1640.011587355</ele>
        <time>2015-07-05T07:52:21Z</time>
      </trkpt>
      <trkpt lat="45.32002" lon="5.75582">
        <ele>1640.011587355</ele>
        <time>2015-07-05T07:52:26Z</time>
      </trkpt>
      <trkpt lat="45.32009" lon="5.7559">
        <ele>1638.176101622</ele>
        <time>2015-07-05T07:52:36Z</time>
      </trkpt>
      <trkpt lat="45.32009" lon="5.75591">
        <ele>1638.176101622</ele>
        <time>2015-07-05T07:52:41Z</time>
      </trkpt>
      <trkpt lat="45.32009" lon="5.75591">
        <ele>1638.176101622</ele>
        <time>2015-07-05T07:52:51Z</time>
      </trkpt>
      <trkpt lat="45.32009" lon="5.75591">
        <ele>1638.176101622</ele>
        <time>2015-07-05T07:52:56Z</time>
      </trkpt>
      <trkpt lat="45.32011" lon="5.75587">
        <ele>1638.176101622</ele>
        <time>2015-07-05T07:53:06Z</time>
      </trkpt>
      <trkpt lat="45.32008" lon="5.75572">
        <ele>1635.835467258</ele>
        <time>2015-07-05T07:53:11Z</time>
      </trkpt>
      <trkpt lat="45.32007" lon="5.75556">
        <ele>1633.173866084</ele>
        <time>2015-07-05T07:53:21Z</time>
      </trkpt>
      <trkpt lat="45.32012" lon="5.75549">
        <ele>1633.173866084</ele>
        <time>2015-07-05T07:53:26Z</time>
      </trkpt>
      <trkpt lat="45.32015" lon="5.75554">
        <ele>1630.362433564</ele>
        <time>2015-07-05T07:53:36Z</time>
      </trkpt>
      <trkpt lat="45.32016" lon="5.75562">
        <ele>1630.362433564</ele>
        <time>2015-07-05T07:53:41Z</time>
      </trkpt>
      <trkpt lat="45.32022" lon="5.75572">
        <ele>1627.992094024</ele>
        <time>2015-07-05T07:53:51Z</time>
      </trkpt>
      <trkpt lat="45.32021" lon="5.7558">
        <ele>1627.992094024</ele>
        <time>2015-07-05T07:53:56Z</time>
      </trkpt>
      <trkpt lat="45.32026" lon="5.75597">
        <ele>1625.888198408</ele>
        <time>2015-07-05T07:54:06Z</time>
      </trkpt>
      <trkpt lat="45.32031" lon="5.75598">
        <ele>1625.888198408</ele>
        <time>2015-07-05T07:54:11Z</time>
      </trkpt>
      <trkpt lat="45.32043" lon="5.75593">
        <ele>1623.599608183</ele>
        <time>2015-07-05T07:54:21Z</time>
      </trkpt>
      <trkpt lat="45.32055" lon="5.75589">
        <ele>1621.573183703</ele>
        <time>2015-07-05T07:54:26Z</time>
      </trkpt>
      <trkpt lat="45.32066" lon="5.75591">
        <ele>1619.933698578</ele>
        <time>2015-07-05T07:54:36Z</time>
      </trkpt>
      <trkpt lat="45.32073" lon="5.75586">
        <ele>1619.933698578</ele>
        <time>2015-07-05T07:54:41Z</time>
      </trkpt>
      <trkpt lat="45.32097" lon="5.75567">
        <ele>1617.930728543</ele>
        <time>2015-07-05T07:54:56Z</time>
      </trkpt>
      <trkpt lat="45.3212" lon="5.75566">
        <ele>1615.878516142</ele>
        <time>2015-07-05T07:55:06Z</time>
      </trkpt>
      <trkpt lat="45.32127" lon="5.75567">
        <ele>1615.878516142</ele>
        <time>2015-07-05T07:55:11Z</time>
      </trkpt>
      <trkpt lat="45.32134" lon="5.75566">
        <ele>1614.356346657</ele>
        <time>2015-07-05T07:55:16Z</time>
      </trkpt>
      <trkpt lat="45.32145" lon="5.75559">
        <ele>1613.755143717</ele>
        <time>2015-07-05T07:55:26Z</time>
      </trkpt>
      <trkpt lat="45.32149" lon="5.75557">
        <ele>1613.755143717</ele>
        <time>2015-07-05T07:55:31Z</time>
      </trkpt>
      <trkpt lat="45.32157" lon="5.75553">
        <ele>1614.578458986</ele>
        <time>2015-07-05T07:55:41Z</time>
      </trkpt>
      <trkpt lat="45.32162" lon="5.75546">
        <ele>1614.578458986</ele>
        <time>2015-07-05T07:55:46Z</time>
      </trkpt>
      <trkpt lat="45.32172" lon="5.75551">
        <ele>1615.991705675</ele>
        <time>2015-07-05T07:55:56Z</time>
      </trkpt>
      <trkpt lat="45.32176" lon="5.75546">
        <ele>1615.991705675</ele>
        <time>2015-07-05T07:56:01Z</time>
      </trkpt>
      <trkpt lat="45.32186" lon="5.75544">
        <ele>1618.372725908</ele>
        <time>2015-07-05T07:56:11Z</time>
      </trkpt>
      <trkpt lat="45.3219" lon="5.75545">
        <ele>1618.372725908</ele>
        <time>2015-07-05T07:56:16Z</time>
      </trkpt>
      <trkpt lat="45.32198" lon="5.75535">
        <ele>1621.636486649</ele>
        <time>2015-07-05T07:56:26Z</time>
      </trkpt>
      <trkpt lat="45.32203" lon="5.75534">
        <ele>1621.636486649</ele>
        <time>2015-07-05T07:56:31Z</time>
      </trkpt>
      <trkpt lat="45.32213" lon="5.75525">
        <ele>1625.413479096</ele>
        <time>2015-07-05T07:56:41Z</time>
      </trkpt>
      <trkpt lat="45.32221" lon="5.75525">
        <ele>1625.413479096</ele>
        <time>2015-07-05T07:56:46Z</time>
      </trkpt>
      <trkpt lat="45.32239" lon="5.75528">
        <ele>1630.080481252</ele>
        <time>2015-07-05T07:56:56Z</time>
      </trkpt>
      <trkpt lat="45.32248" lon="5.7553">
        <ele>1630.080481252</ele>
        <time>2015-07-05T07:57:00Z</time>
      </trkpt>
      <trkpt lat="45.32246" lon="5.75531">
        <ele>1634.110728869</ele>
        <time>2015-07-05T07:57:05Z</time>
      </trkpt>
      <trkpt lat="45.32251" lon="5.75538">
        <ele>1634.110728869</ele>
        <time>2015-07-05T07:57:11Z</time>
      </trkpt>
      <trkpt lat="45.32269" lon="5.75545">
        <ele>1638.541417043</ele>
        <time>2015-07-05T07:57:26Z</time>
      </trkpt>
      <trkpt lat="45.32278" lon="5.75554">
        <ele>1642.74737854</ele>
        <time>2015-07-05T07:57:31Z</time>
      </trkpt>
      <trkpt lat="45.32289" lon="5.75554">
        <ele>1647.158998948</ele>
        <time>2015-07-05T07:57:40Z</time>
      </trkpt>
      <trkpt lat="45.32295" lon="5.75564">
        <ele>1647.158998948</ele>
        <time>2015-07-05T07:57:46Z</time>
      </trkpt>
      <trkpt lat="45.32303" lon="5.75569">
        <ele>1651.59828618</ele>
        <time>2015-07-05T07:57:56Z</time>
      </trkpt>
      <trkpt lat="45.32308" lon="5.75571">
        <ele>1651.59828618</ele>
        <time>2015-07-05T07:58:01Z</time>
      </trkpt>
      <trkpt lat="45.32323" lon="5.7558">
        <ele>1656.188764824</ele>
        <time>2015-07-05T07:58:11Z</time>
      </trkpt>
      <trkpt lat="45.32325" lon="5.75578">
        <ele>1656.188764824</ele>
        <time>2015-07-05T07:58:16Z</time>
      </trkpt>
      <trkpt lat="45.32343" lon="5.75582">
        <ele>1661.333014961</ele>
        <time>2015-07-05T07:58:26Z</time>
      </trkpt>
      <trkpt lat="45.32349" lon="5.75587">
        <ele>1661.333014961</ele>
        <time>2015-07-05T07:58:31Z</time>
      </trkpt>
      <trkpt lat="45.32359" lon="5.75595">
        <ele>1666.105852398</ele>
        <time>2015-07-05T07:58:41Z</time>
      </trkpt>
      <trkpt lat="45.32364" lon="5.75599">
        <ele>1666.105852398</ele>
        <time>2015-07-05T07:58:46Z</time>
      </trkpt>
      <trkpt lat="45.32388" lon="5.75612">
        <ele>1671.092602555</ele>
        <time>2015-07-05T07:59:01Z</time>
      </trkpt>
      <trkpt lat="45.32391" lon="5.75615">
        <ele>1671.092602555</ele>
        <time>2015-07-05T07:59:06Z</time>
      </trkpt>
      <trkpt lat="45.32401" lon="5.75613">
        <ele>1675.682522522</ele>
        <time>2015-07-05T07:59:16Z</time>
      </trkpt>
      <trkpt lat="45.32407" lon="5.75614">
        <ele>1675.682522522</ele>
        <time>2015-07-05T07:59:21Z</time>
      </trkpt>
      <trkpt lat="45.32422" lon="5.75628">
        <ele>1680.320067304</ele>
        <time>2015-07-05T07:59:31Z</time>
      </trkpt>
      <trkpt lat="45.32428" lon="5.75632">
        <ele>1680.320067304</ele>
        <time>2015-07-05T07:59:36Z</time>
      </trkpt>
      <trkpt lat="45.32434" lon="5.75636">
        <ele>1684.840924785</ele>
        <time>2015-07-05T07:59:46Z</time>
      </trkpt>
      <trkpt lat="45.32445" lon="5.7564">
        <ele>1689.381878819</ele>
        <time>2015-07-05T07:59:51Z</time>
      </trkpt>
      <trkpt lat="45.32452" lon="5.75651">
        <ele>1693.493651641</ele>
        <time>2015-07-05T08:00:01Z</time>
      </trkpt>
      <trkpt lat="45.32461" lon="5.75651">
        <ele>1697.626336073</ele>
        <time>2015-07-05T08:00:06Z</time>
      </trkpt>
      <trkpt lat="45.32463" lon="5.75665">
        <ele>1700.612179142</ele>
        <time>2015-07-05T08:00:16Z</time>
      </trkpt>
      <trkpt lat="45.32464" lon="5.75679">
        <ele>1703.390482018</ele>
        <time>2015-07-05T08:00:21Z</time>
      </trkpt>
      <trkpt lat="45.32469" lon="5.75701">
        <ele>1705.53561839</ele>
        <time>2015-07-05T08:00:31Z</time>
      </trkpt>
      <trkpt lat="45.32475" lon="5.75714">
        <ele>1707.664262554</ele>
        <time>2015-07-05T08:00:36Z</time>
      </trkpt>
      <trkpt lat="45.32486" lon="5.75725">
        <ele>1709.051297481</ele>
        <time>2015-07-05T08:00:46Z</time>
      </trkpt>
      <trkpt lat="45.32486" lon="5.75728">
        <ele>1709.051297481</ele>
        <time>2015-07-05T08:00:50Z</time>
      </trkpt>
      <trkpt lat="45.3249" lon="5.75728">
        <ele>1709.051297481</ele>
        <time>2015-07-05T08:00:55Z</time>
      </trkpt>
      <trkpt lat="45.32498" lon="5.7574">
        <ele>1710.036174918</ele>
        <time>2015-07-05T08:01:06Z</time>
      </trkpt>
      <trkpt lat="45.32497" lon="5.75739">
        <ele>1710.036174918</ele>
        <time>2015-07-05T08:01:11Z</time>
      </trkpt>
      <trkpt lat="45.32499" lon="5.75745">
        <ele>1710.036174918</ele>
        <time>2015-07-05T08:01:21Z</time>
      </trkpt>
      <trkpt lat="45.32502" lon="5.7575">
        <ele>1710.646736654</ele>
        <time>2015-07-05T08:01:26Z</time>
      </trkpt>
      <trkpt lat="45.325" lon="5.75756">
        <ele>1710.646736654</ele>
        <time>2015-07-05T08:01:36Z</time>
      </trkpt>
      <trkpt lat="45.32503" lon="5.7576">
        <ele>1710.646736654</ele>
        <time>2015-07-05T08:01:41Z</time>
      </trkpt>
      <trkpt lat="45.32508" lon="5.75777">
        <ele>1710.477888896</ele>
        <time>2015-07-05T08:01:51Z</time>
      </trkpt>
      <trkpt lat="45.32508" lon="5.75783">
        <ele>1710.477888896</ele>
        <time>2015-07-05T08:01:56Z</time>
      </trkpt>
      <trkpt lat="45.32508" lon="5.75795">
        <ele>1709.300954985</ele>
        <time>2015-07-05T08:02:06Z</time>
      </trkpt>
      <trkpt lat="45.32506" lon="5.75801">
        <ele>1709.300954985</ele>
        <time>2015-07-05T08:02:11Z</time>
      </trkpt>
      <trkpt lat="45.32503" lon="5.75809">
        <ele>1707.051321052</ele>
        <time>2015-07-05T08:02:21Z</time>
      </trkpt>
      <trkpt lat="45.32504" lon="5.75815">
        <ele>1707.051321052</ele>
        <time>2015-07-05T08:02:26Z</time>
      </trkpt>
      <trkpt lat="45.32501" lon="5.75825">
        <ele>1704.392969139</ele>
        <time>2015-07-05T08:02:36Z</time>
      </trkpt>
      <trkpt lat="45.32502" lon="5.75829">
        <ele>1704.392969139</ele>
        <time>2015-07-05T08:02:41Z</time>
      </trkpt>
      <trkpt lat="45.32501" lon="5.75831">
        <ele>1704.392969139</ele>
        <time>2015-07-05T08:02:51Z</time>
      </trkpt>
      <trkpt lat="45.32501" lon="5.75831">
        <ele>1704.392969139</ele>
        <time>2015-07-05T08:02:56Z</time>
      </trkpt>
      <trkpt lat="45.32501" lon="5.75836">
        <ele>1704.392969139</ele>
        <time>2015-07-05T08:03:06Z</time>
      </trkpt>
      <trkpt lat="45.32502" lon="5.75841">
        <ele>1703.499361828</ele>
        <time>2015-07-05T08:03:11Z</time>
      </trkpt>
      <trkpt lat="45.32502" lon="5.75846">
        <ele>1702.605754517</ele>
        <time>2015-07-05T08:03:16Z</time>
      </trkpt>
      <trkpt lat="45.32503" lon="5.75855">
        <ele>1701.712147205</ele>
        <time>2015-07-05T08:03:26Z</time>
      </trkpt>
      <trkpt lat="45.32503" lon="5.75855">
        <ele>1700.818539894</ele>
        <time>2015-07-05T08:03:31Z</time>
      </trkpt>
      <trkpt lat="45.32502" lon="5.75856">
        <ele>1699.924932583</ele>
        <time>2015-07-05T08:03:41Z</time>
      </trkpt>
      <trkpt lat="45.32502" lon="5.75856">
        <ele>1699.924932583</ele>
        <time>2015-07-05T08:03:46Z</time>
      </trkpt>
      <trkpt lat="45.32503" lon="5.75856">
        <ele>1699.924932583</ele>
        <time>2015-07-05T08:03:56Z</time>
      </trkpt>
      <trkpt lat="45.32503" lon="5.75856">
        <ele>1699.924932583</ele>
        <time>2015-07-05T08:04:00Z</time>
      </trkpt>
      <trkpt lat="45.32525" lon="5.75866">
        <ele>1696.389535237</ele>
        <time>2015-07-05T08:04:10Z</time>
      </trkpt>
      <trkpt lat="45.32534" lon="5.75876">
        <ele>1694.595839813</ele>
        <time>2015-07-05T08:04:15Z</time>
      </trkpt>
      <trkpt lat="45.32538" lon="5.75884">
        <ele>1694.595839813</ele>
        <time>2015-07-05T08:04:26Z</time>
      </trkpt>
      <trkpt lat="45.3254" lon="5.75884">
        <ele>1694.595839813</ele>
        <time>2015-07-05T08:04:31Z</time>
      </trkpt>
      <trkpt lat="45.32542" lon="5.75884">
        <ele>1693.703462238</ele>
        <time>2015-07-05T08:04:41Z</time>
      </trkpt>
      <trkpt lat="45.32543" lon="5.75885">
        <ele>1693.703462238</ele>
        <time>2015-07-05T08:04:46Z</time>
      </trkpt>
      <trkpt lat="45.32544" lon="5.75902">
        <ele>1692.787172046</ele>
        <time>2015-07-05T08:05:01Z</time>
      </trkpt>
      <trkpt lat="45.3255" lon="5.75905">
        <ele>1692.787172046</ele>
        <time>2015-07-05T08:05:06Z</time>
      </trkpt>
      <trkpt lat="45.32553" lon="5.75909">
        <ele>1693.295585932</ele>
        <time>2015-07-05T08:05:16Z</time>
      </trkpt>
      <trkpt lat="45.32562" lon="5.75923">
        <ele>1693.828814975</ele>
        <time>2015-07-05T08:05:31Z</time>
      </trkpt>
      <trkpt lat="45.32531" lon="5.75918">
        <ele>1691.7927371</ele>
        <time>2015-07-05T08:05:36Z</time>
      </trkpt>
      <trkpt lat="45.32521" lon="5.75916">
        <ele>1689.402544011</ele>
        <time>2015-07-05T08:05:46Z</time>
      </trkpt>
      <trkpt lat="45.32521" lon="5.75916">
        <ele>1689.402544011</ele>
        <time>2015-07-05T08:05:51Z</time>
      </trkpt>
      <trkpt lat="45.32521" lon="5.75916">
        <ele>1689.402544011</ele>
        <time>2015-07-05T08:06:01Z</time>
      </trkpt>
      <trkpt lat="45.32521" lon="5.75916">
        <ele>1689.402544011</ele>
        <time>2015-07-05T08:06:06Z</time>
      </trkpt>
      <trkpt lat="45.32518" lon="5.75921">
        <ele>1689.402544011</ele>
        <time>2015-07-05T08:06:16Z</time>
      </trkpt>
      <trkpt lat="45.32515" lon="5.7593">
        <ele>1686.405882134</ele>
        <time>2015-07-05T08:06:21Z</time>
      </trkpt>
      <trkpt lat="45.32506" lon="5.75935">
        <ele>1683.435246205</ele>
        <time>2015-07-05T08:06:31Z</time>
      </trkpt>
      <trkpt lat="45.32507" lon="5.75935">
        <ele>1683.435246205</ele>
        <time>2015-07-05T08:06:36Z</time>
      </trkpt>
      <trkpt lat="45.32504" lon="5.75935">
        <ele>1683.435246205</ele>
        <time>2015-07-05T08:06:46Z</time>
      </trkpt>
      <trkpt lat="45.32505" lon="5.75943">
        <ele>1680.211842264</ele>
        <time>2015-07-05T08:06:51Z</time>
      </trkpt>
      <trkpt lat="45.32514" lon="5.75965">
        <ele>1677.342619292</ele>
        <time>2015-07-05T08:07:01Z</time>
      </trkpt>
      <trkpt lat="45.32501" lon="5.75972">
        <ele>1672.794803889</ele>
        <time>2015-07-05T08:07:06Z</time>
      </trkpt>
      <trkpt lat="45.32498" lon="5.75987">
        <ele>1668.292267595</ele>
        <time>2015-07-05T08:07:21Z</time>
      </trkpt>
      <trkpt lat="45.325" lon="5.75993">
        <ele>1668.292267595</ele>
        <time>2015-07-05T08:07:36Z</time>
      </trkpt>
      <trkpt lat="45.32507" lon="5.76003">
        <ele>1663.702588471</ele>
        <time>2015-07-05T08:07:41Z</time>
      </trkpt>
      <trkpt lat="45.32522" lon="5.76008">
        <ele>1660.488315539</ele>
        <time>2015-07-05T08:07:51Z</time>
      </trkpt>
      <trkpt lat="45.32533" lon="5.76019">
        <ele>1657.69467555</ele>
        <time>2015-07-05T08:07:56Z</time>
      </trkpt>
      <trkpt lat="45.32546" lon="5.76026">
        <ele>1655.156143998</ele>
        <time>2015-07-05T08:08:06Z</time>
      </trkpt>
      <trkpt lat="45.3255" lon="5.76031">
        <ele>1655.156143998</ele>
        <time>2015-07-05T08:08:11Z</time>
      </trkpt>
      <trkpt lat="45.32564" lon="5.7606">
        <ele>1651.997807913</ele>
        <time>2015-07-05T08:08:21Z</time>
      </trkpt>
      <trkpt lat="45.32572" lon="5.76067">
        <ele>1649.572148147</ele>
        <time>2015-07-05T08:08:26Z</time>
      </trkpt>
      <trkpt lat="45.32581" lon="5.7608">
        <ele>1647.400616628</ele>
        <time>2015-07-05T08:08:36Z</time>
      </trkpt>
      <trkpt lat="45.32582" lon="5.76079">
        <ele>1647.400616628</ele>
        <time>2015-07-05T08:08:41Z</time>
      </trkpt>
      <trkpt lat="45.32588" lon="5.76084">
        <ele>1647.400616628</ele>
        <time>2015-07-05T08:08:51Z</time>
      </trkpt>
      <trkpt lat="45.32591" lon="5.76084">
        <ele>1645.615262513</ele>
        <time>2015-07-05T08:08:56Z</time>
      </trkpt>
      <trkpt lat="45.32591" lon="5.76085">
        <ele>1645.615262513</ele>
        <time>2015-07-05T08:09:05Z</time>
      </trkpt>
      <trkpt lat="45.32592" lon="5.76087">
        <ele>1645.615262513</ele>
        <time>2015-07-05T08:09:10Z</time>
      </trkpt>
      <trkpt lat="45.32592" lon="5.76087">
        <ele>1645.615262513</ele>
        <time>2015-07-05T08:09:15Z</time>
      </trkpt>
      <trkpt lat="45.32592" lon="5.76087">
        <ele>1645.615262513</ele>
        <time>2015-07-05T08:09:20Z</time>
      </trkpt>
      <trkpt lat="45.32591" lon="5.76088">
        <ele>1645.615262513</ele>
        <time>2015-07-05T08:09:25Z</time>
      </trkpt>
      <trkpt lat="45.32598" lon="5.76095">
        <ele>1644.04884236</ele>
        <time>2015-07-05T08:09:41Z</time>
      </trkpt>
      <trkpt lat="45.32603" lon="5.761">
        <ele>1644.04884236</ele>
        <time>2015-07-05T08:09:46Z</time>
      </trkpt>
      <trkpt lat="45.3261" lon="5.76108">
        <ele>1642.401391231</ele>
        <time>2015-07-05T08:09:55Z</time>
      </trkpt>
      <trkpt lat="45.32606" lon="5.76111">
        <ele>1642.401391231</ele>
        <time>2015-07-05T08:10:10Z</time>
      </trkpt>
      <trkpt lat="45.32606" lon="5.76111">
        <ele>1642.401391231</ele>
        <time>2015-07-05T08:10:15Z</time>
      </trkpt>
      <trkpt lat="45.32606" lon="5.76111">
        <ele>1642.401391231</ele>
        <time>2015-07-05T08:10:20Z</time>
      </trkpt>
      <trkpt lat="45.32606" lon="5.76111">
        <ele>1642.401391231</ele>
        <time>2015-07-05T08:10:25Z</time>
      </trkpt>
      <trkpt lat="45.32606" lon="5.76111">
        <ele>1642.401391231</ele>
        <time>2015-07-05T08:10:30Z</time>
      </trkpt>
      <trkpt lat="45.32606" lon="5.76111">
        <ele>1642.401391231</ele>
        <time>2015-07-05T08:10:36Z</time>
      </trkpt>
      <trkpt lat="45.32606" lon="5.76111">
        <ele>1642.401391231</ele>
        <time>2015-07-05T08:10:46Z</time>
      </trkpt>
      <trkpt lat="45.32614" lon="5.76115">
        <ele>1641.115488294</ele>
        <time>2015-07-05T08:10:51Z</time>
      </trkpt>
      <trkpt lat="45.32636" lon="5.76139">
        <ele>1639.014697335</ele>
        <time>2015-07-05T08:11:00Z</time>
      </trkpt>
      <trkpt lat="45.3264" lon="5.76139">
        <ele>1639.014697335</ele>
        <time>2015-07-05T08:11:06Z</time>
      </trkpt>
      <trkpt lat="45.32646" lon="5.7614">
        <ele>1638.325588653</ele>
        <time>2015-07-05T08:11:16Z</time>
      </trkpt>
      <trkpt lat="45.3265" lon="5.7614">
        <ele>1638.325588653</ele>
        <time>2015-07-05T08:11:21Z</time>
      </trkpt>
      <trkpt lat="45.32656" lon="5.76141">
        <ele>1639.089410279</ele>
        <time>2015-07-05T08:11:31Z</time>
      </trkpt>
      <trkpt lat="45.32658" lon="5.76143">
        <ele>1639.089410279</ele>
        <time>2015-07-05T08:11:36Z</time>
      </trkpt>
      <trkpt lat="45.3266" lon="5.7614">
        <ele>1639.089410279</ele>
        <time>2015-07-05T08:11:46Z</time>
      </trkpt>
      <trkpt lat="45.32663" lon="5.76133">
        <ele>1640.763634865</ele>
        <time>2015-07-05T08:11:51Z</time>
      </trkpt>
      <trkpt lat="45.32672" lon="5.76131">
        <ele>1642.554611593</ele>
        <time>2015-07-05T08:12:01Z</time>
      </trkpt>
      <trkpt lat="45.32677" lon="5.76132">
        <ele>1642.554611593</ele>
        <time>2015-07-05T08:12:06Z</time>
      </trkpt>
      <trkpt lat="45.32684" lon="5.76126">
        <ele>1645.455827717</ele>
        <time>2015-07-05T08:12:21Z</time>
      </trkpt>
      <trkpt lat="45.32686" lon="5.76128">
        <ele>1645.455827717</ele>
        <time>2015-07-05T08:12:26Z</time>
      </trkpt>
      <trkpt lat="45.32693" lon="5.76124">
        <ele>1648.366984153</ele>
        <time>2015-07-05T08:12:36Z</time>
      </trkpt>
      <trkpt lat="45.32694" lon="5.7612">
        <ele>1648.366984153</ele>
        <time>2015-07-05T08:12:41Z</time>
      </trkpt>
      <trkpt lat="45.32702" lon="5.76114">
        <ele>1651.565484339</ele>
        <time>2015-07-05T08:12:51Z</time>
      </trkpt>
      <trkpt lat="45.32706" lon="5.76121">
        <ele>1651.565484339</ele>
        <time>2015-07-05T08:12:56Z</time>
      </trkpt>
      <trkpt lat="45.32709" lon="5.76125">
        <ele>1655.307488568</ele>
        <time>2015-07-05T08:13:06Z</time>
      </trkpt>
      <trkpt lat="45.3271" lon="5.76123">
        <ele>1655.307488568</ele>
        <time>2015-07-05T08:13:11Z</time>
      </trkpt>
      <trkpt lat="45.32711" lon="5.76114">
        <ele>1655.307488568</ele>
        <time>2015-07-05T08:13:21Z</time>
      </trkpt>
      <trkpt lat="45.32714" lon="5.76106">
        <ele>1660.117018438</ele>
        <time>2015-07-05T08:13:26Z</time>
      </trkpt>
      <trkpt lat="45.3272" lon="5.76095">
        <ele>1665.467850671</ele>
        <time>2015-07-05T08:13:36Z</time>
      </trkpt>
      <trkpt lat="45.32724" lon="5.76093">
        <ele>1665.467850671</ele>
        <time>2015-07-05T08:13:41Z</time>
      </trkpt>
      <trkpt lat="45.32727" lon="5.76087">
        <ele>1671.159187244</ele>
        <time>2015-07-05T08:13:50Z</time>
      </trkpt>
      <trkpt lat="45.32731" lon="5.76081">
        <ele>1671.159187244</ele>
        <time>2015-07-05T08:13:56Z</time>
      </trkpt>
      <trkpt lat="45.32735" lon="5.76076">
        <ele>1677.148246503</ele>
        <time>2015-07-05T08:14:06Z</time>
      </trkpt>
      <trkpt lat="45.32738" lon="5.7608">
        <ele>1677.148246503</ele>
        <time>2015-07-05T08:14:11Z</time>
      </trkpt>
      <trkpt lat="45.32742" lon="5.7609">
        <ele>1683.394709102</ele>
        <time>2015-07-05T08:14:21Z</time>
      </trkpt>
      <trkpt lat="45.32744" lon="5.76096">
        <ele>1683.394709102</ele>
        <time>2015-07-05T08:14:26Z</time>
      </trkpt>
      <trkpt lat="45.32753" lon="5.7611">
        <ele>1689.284248299</ele>
        <time>2015-07-05T08:14:36Z</time>
      </trkpt>
      <trkpt lat="45.32759" lon="5.76112">
        <ele>1689.284248299</ele>
        <time>2015-07-05T08:14:41Z</time>
      </trkpt>
      <trkpt lat="45.32768" lon="5.76118">
        <ele>1694.969459702</ele>
        <time>2015-07-05T08:14:46Z</time>
      </trkpt>
      <trkpt lat="45.32789" lon="5.76115">
        <ele>1699.872018308</ele>
        <time>2015-07-05T08:14:56Z</time>
      </trkpt>
      <trkpt lat="45.32797" lon="5.76119">
        <ele>1699.872018308</ele>
        <time>2015-07-05T08:15:01Z</time>
      </trkpt>
      <trkpt lat="45.32815" lon="5.76128">
        <ele>1705.476136412</ele>
        <time>2015-07-05T08:15:10Z</time>
      </trkpt>
      <trkpt lat="45.32825" lon="5.76133">
        <ele>1710.849577375</ele>
        <time>2015-07-05T08:15:16Z</time>
      </trkpt>
      <trkpt lat="45.32845" lon="5.76128">
        <ele>1716.138359991</ele>
        <time>2015-07-05T08:15:26Z</time>
      </trkpt>
      <trkpt lat="45.32856" lon="5.76136">
        <ele>1721.046047013</ele>
        <time>2015-07-05T08:15:31Z</time>
      </trkpt>
      <trkpt lat="45.3287" lon="5.76147">
        <ele>1725.587649664</ele>
        <time>2015-07-05T08:15:41Z</time>
      </trkpt>
      <trkpt lat="45.32879" lon="5.76149">
        <ele>1729.63438285</ele>
        <time>2015-07-05T08:15:46Z</time>
      </trkpt>
      <trkpt lat="45.3289" lon="5.76152">
        <ele>1733.933373678</ele>
        <time>2015-07-05T08:15:56Z</time>
      </trkpt>
      <trkpt lat="45.32896" lon="5.76154">
        <ele>1733.933373678</ele>
        <time>2015-07-05T08:16:01Z</time>
      </trkpt>
      <trkpt lat="45.32909" lon="5.76159">
        <ele>1737.735444322</ele>
        <time>2015-07-05T08:16:11Z</time>
      </trkpt>
      <trkpt lat="45.32917" lon="5.76162">
        <ele>1737.735444322</ele>
        <time>2015-07-05T08:16:16Z</time>
      </trkpt>
      <trkpt lat="45.32934" lon="5.76164">
        <ele>1741.933465043</ele>
        <time>2015-07-05T08:16:31Z</time>
      </trkpt>
      <trkpt lat="45.32939" lon="5.76166">
        <ele>1741.933465043</ele>
        <time>2015-07-05T08:16:36Z</time>
      </trkpt>
      <trkpt lat="45.32955" lon="5.76151">
        <ele>1745.624665212</ele>
        <time>2015-07-05T08:16:46Z</time>
      </trkpt>
      <trkpt lat="45.32966" lon="5.76141">
        <ele>1748.694956382</ele>
        <time>2015-07-05T08:16:50Z</time>
      </trkpt>
      <trkpt lat="45.32973" lon="5.76134">
        <ele>1751.761307713</ele>
        <time>2015-07-05T08:17:01Z</time>
      </trkpt>
      <trkpt lat="45.32973" lon="5.76131">
        <ele>1751.761307713</ele>
        <time>2015-07-05T08:17:06Z</time>
      </trkpt>
      <trkpt lat="45.32979" lon="5.76121">
        <ele>1753.95463236</ele>
        <time>2015-07-05T08:17:16Z</time>
      </trkpt>
      <trkpt lat="45.32989" lon="5.76114">
        <ele>1756.057709106</ele>
        <time>2015-07-05T08:17:21Z</time>
      </trkpt>
      <trkpt lat="45.32998" lon="5.76104">
        <ele>1757.643509955</ele>
        <time>2015-07-05T08:17:31Z</time>
      </trkpt>
      <trkpt lat="45.33004" lon="5.76098">
        <ele>1757.643509955</ele>
        <time>2015-07-05T08:17:36Z</time>
      </trkpt>
      <trkpt lat="45.3301" lon="5.76092">
        <ele>1758.750470364</ele>
        <time>2015-07-05T08:17:46Z</time>
      </trkpt>
      <trkpt lat="45.3301" lon="5.76087">
        <ele>1758.750470364</ele>
        <time>2015-07-05T08:17:51Z</time>
      </trkpt>
      <trkpt lat="45.33014" lon="5.7608">
        <ele>1759.271718512</ele>
        <time>2015-07-05T08:18:01Z</time>
      </trkpt>
      <trkpt lat="45.33016" lon="5.76073">
        <ele>1759.271718512</ele>
        <time>2015-07-05T08:18:06Z</time>
      </trkpt>
      <trkpt lat="45.3302" lon="5.76062">
        <ele>1759.686577542</ele>
        <time>2015-07-05T08:18:16Z</time>
      </trkpt>
      <trkpt lat="45.33024" lon="5.76059">
        <ele>1759.686577542</ele>
        <time>2015-07-05T08:18:21Z</time>
      </trkpt>
      <trkpt lat="45.33031" lon="5.76054">
        <ele>1759.430906116</ele>
        <time>2015-07-05T08:18:31Z</time>
      </trkpt>
      <trkpt lat="45.33034" lon="5.76047">
        <ele>1759.430906116</ele>
        <time>2015-07-05T08:18:36Z</time>
      </trkpt>
      <trkpt lat="45.33038" lon="5.76043">
        <ele>1758.848746155</ele>
        <time>2015-07-05T08:18:46Z</time>
      </trkpt>
      <trkpt lat="45.3304" lon="5.76036">
        <ele>1758.848746155</ele>
        <time>2015-07-05T08:18:51Z</time>
      </trkpt>
      <trkpt lat="45.33048" lon="5.7602">
        <ele>1757.539385746</ele>
        <time>2015-07-05T08:19:06Z</time>
      </trkpt>
      <trkpt lat="45.33055" lon="5.76002">
        <ele>1755.566045126</ele>
        <time>2015-07-05T08:19:21Z</time>
      </trkpt>
      <trkpt lat="45.33058" lon="5.76001">
        <ele>1755.566045126</ele>
        <time>2015-07-05T08:19:26Z</time>
      </trkpt>
      <trkpt lat="45.33059" lon="5.76004">
        <ele>1755.566045126</ele>
        <time>2015-07-05T08:19:36Z</time>
      </trkpt>
      <trkpt lat="45.3306" lon="5.76002">
        <ele>1755.566045126</ele>
        <time>2015-07-05T08:19:41Z</time>
      </trkpt>
      <trkpt lat="45.3306" lon="5.76001">
        <ele>1755.566045126</ele>
        <time>2015-07-05T08:19:50Z</time>
      </trkpt>
      <trkpt lat="45.3306" lon="5.76001">
        <ele>1755.566045126</ele>
        <time>2015-07-05T08:19:56Z</time>
      </trkpt>
      <trkpt lat="45.33068" lon="5.75993">
        <ele>1752.268689342</ele>
        <time>2015-07-05T08:20:06Z</time>
      </trkpt>
      <trkpt lat="45.33071" lon="5.75989">
        <ele>1752.268689342</ele>
        <time>2015-07-05T08:20:11Z</time>
      </trkpt>
      <trkpt lat="45.33071" lon="5.75993">
        <ele>1752.268689342</ele>
        <time>2015-07-05T08:20:21Z</time>
      </trkpt>
      <trkpt lat="45.3307" lon="5.75992">
        <ele>1752.268689342</ele>
        <time>2015-07-05T08:20:26Z</time>
      </trkpt>
      <trkpt lat="45.3308" lon="5.75989">
        <ele>1747.471853802</ele>
        <time>2015-07-05T08:20:36Z</time>
      </trkpt>
      <trkpt lat="45.33081" lon="5.75988">
        <ele>1747.471853802</ele>
        <time>2015-07-05T08:20:41Z</time>
      </trkpt>
      <trkpt lat="45.33089" lon="5.75986">
        <ele>1742.314157642</ele>
        <time>2015-07-05T08:20:51Z</time>
      </trkpt>
      <trkpt lat="45.33094" lon="5.75983">
        <ele>1742.314157642</ele>
        <time>2015-07-05T08:20:56Z</time>
      </trkpt>
      <trkpt lat="45.3311" lon="5.75979">
        <ele>1737.130968466</ele>
        <time>2015-07-05T08:21:06Z</time>
      </trkpt>
      <trkpt lat="45.33117" lon="5.7597">
        <ele>1732.665304242</ele>
        <time>2015-07-05T08:21:11Z</time>
      </trkpt>
      <trkpt lat="45.33131" lon="5.75971">
        <ele>1728.738753128</ele>
        <time>2015-07-05T08:21:21Z</time>
      </trkpt>
      <trkpt lat="45.33138" lon="5.75971">
        <ele>1728.738753128</ele>
        <time>2015-07-05T08:21:26Z</time>
      </trkpt>
      <trkpt lat="45.33153" lon="5.7598">
        <ele>1725.184285727</ele>
        <time>2015-07-05T08:21:36Z</time>
      </trkpt>
      <trkpt lat="45.33159" lon="5.75976">
        <ele>1725.184285727</ele>
        <time>2015-07-05T08:21:41Z</time>
      </trkpt>
      <trkpt lat="45.33178" lon="5.75987">
        <ele>1722.134074693</ele>
        <time>2015-07-05T08:21:56Z</time>
      </trkpt>
      <trkpt lat="45.33187" lon="5.75982">
        <ele>1718.411892512</ele>
        <time>2015-07-05T08:22:11Z</time>
      </trkpt>
      <trkpt lat="45.33188" lon="5.7598">
        <ele>1718.411892512</ele>
        <time>2015-07-05T08:22:16Z</time>
      </trkpt>
      <trkpt lat="45.33186" lon="5.75982">
        <ele>1718.411892512</ele>
        <time>2015-07-05T08:22:26Z</time>
      </trkpt>
      <trkpt lat="45.33186" lon="5.75985">
        <ele>1718.411892512</ele>
        <time>2015-07-05T08:22:31Z</time>
      </trkpt>
      <trkpt lat="45.33187" lon="5.75984">
        <ele>1718.411892512</ele>
        <time>2015-07-05T08:22:41Z</time>
      </trkpt>
      <trkpt lat="45.33187" lon="5.75985">
        <ele>1718.411892512</ele>
        <time>2015-07-05T08:22:46Z</time>
      </trkpt>
      <trkpt lat="45.33199" lon="5.75987">
        <ele>1714.947058048</ele>
        <time>2015-07-05T08:22:56Z</time>
      </trkpt>
      <trkpt lat="45.33202" lon="5.75982">
        <ele>1714.947058048</ele>
        <time>2015-07-05T08:23:01Z</time>
      </trkpt>
      <trkpt lat="45.33215" lon="5.75983">
        <ele>1711.446690566</ele>
        <time>2015-07-05T08:23:11Z</time>
      </trkpt>
      <trkpt lat="45.33224" lon="5.75981">
        <ele>1711.446690566</ele>
        <time>2015-07-05T08:23:16Z</time>
      </trkpt>
      <trkpt lat="45.33233" lon="5.75982">
        <ele>1709.224409123</ele>
        <time>2015-07-05T08:23:26Z</time>
      </trkpt>
      <trkpt lat="45.33237" lon="5.75983">
        <ele>1709.224409123</ele>
        <time>2015-07-05T08:23:31Z</time>
      </trkpt>
      <trkpt lat="45.33243" lon="5.75994">
        <ele>1706.178840904</ele>
        <time>2015-07-05T08:23:41Z</time>
      </trkpt>
      <trkpt lat="45.33249" lon="5.75997">
        <ele>1706.178840904</ele>
        <time>2015-07-05T08:23:46Z</time>
      </trkpt>
      <trkpt lat="45.33254" lon="5.76005">
        <ele>1703.967706523</ele>
        <time>2015-07-05T08:23:56Z</time>
      </trkpt>
      <trkpt lat="45.33254" lon="5.76003">
        <ele>1703.967706523</ele>
        <time>2015-07-05T08:24:01Z</time>
      </trkpt>
      <trkpt lat="45.33253" lon="5.7599">
        <ele>1702.539022943</ele>
        <time>2015-07-05T08:24:16Z</time>
      </trkpt>
      <trkpt lat="45.33254" lon="5.75991">
        <ele>1702.539022943</ele>
        <time>2015-07-05T08:24:21Z</time>
      </trkpt>
      <trkpt lat="45.33259" lon="5.75991">
        <ele>1702.539022943</ele>
        <time>2015-07-05T08:24:31Z</time>
      </trkpt>
      <trkpt lat="45.3326" lon="5.75991">
        <ele>1702.539022943</ele>
        <time>2015-07-05T08:24:36Z</time>
      </trkpt>
      <trkpt lat="45.3327" lon="5.7599">
        <ele>1700.833287674</ele>
        <time>2015-07-05T08:24:46Z</time>
      </trkpt>
      <trkpt lat="45.33277" lon="5.7599">
        <ele>1700.833287674</ele>
        <time>2015-07-05T08:24:51Z</time>
      </trkpt>
      <trkpt lat="45.33289" lon="5.75989">
        <ele>1699.166244287</ele>
        <time>2015-07-05T08:25:01Z</time>
      </trkpt>
      <trkpt lat="45.3329" lon="5.7599">
        <ele>1699.166244287</ele>
        <time>2015-07-05T08:25:06Z</time>
      </trkpt>
      <trkpt lat="45.3329" lon="5.75987">
        <ele>1699.166244287</ele>
        <time>2015-07-05T08:25:16Z</time>
      </trkpt>
      <trkpt lat="45.33289" lon="5.75986">
        <ele>1699.166244287</ele>
        <time>2015-07-05T08:25:21Z</time>
      </trkpt>
      <trkpt lat="45.33282" lon="5.75971">
        <ele>1696.82119795</ele>
        <time>2015-07-05T08:25:31Z</time>
      </trkpt>
      <trkpt lat="45.33283" lon="5.75969">
        <ele>1696.82119795</ele>
        <time>2015-07-05T08:25:36Z</time>
      </trkpt>
      <trkpt lat="45.33283" lon="5.75966">
        <ele>1696.82119795</ele>
        <time>2015-07-05T08:25:46Z</time>
      </trkpt>
      <trkpt lat="45.33283" lon="5.75964">
        <ele>1696.82119795</ele>
        <time>2015-07-05T08:25:50Z</time>
      </trkpt>
      <trkpt lat="45.33281" lon="5.7596">
        <ele>1695.297320503</ele>
        <time>2015-07-05T08:26:01Z</time>
      </trkpt>
      <trkpt lat="45.33282" lon="5.75958">
        <ele>1695.297320503</ele>
        <time>2015-07-05T08:26:05Z</time>
      </trkpt>
      <trkpt lat="45.33291" lon="5.75959">
        <ele>1692.522337421</ele>
        <time>2015-07-05T08:26:22Z</time>
      </trkpt>
      <trkpt lat="45.33296" lon="5.75955">
        <ele>1692.522337421</ele>
        <time>2015-07-05T08:26:26Z</time>
      </trkpt>
      <trkpt lat="45.33308" lon="5.75942">
        <ele>1689.173369279</ele>
        <time>2015-07-05T08:26:36Z</time>
      </trkpt>
      <trkpt lat="45.33312" lon="5.75946">
        <ele>1689.173369279</ele>
        <time>2015-07-05T08:26:41Z</time>
      </trkpt>
      <trkpt lat="45.33321" lon="5.75952">
        <ele>1685.302617686</ele>
        <time>2015-07-05T08:26:51Z</time>
      </trkpt>
      <trkpt lat="45.33322" lon="5.75951">
        <ele>1685.302617686</ele>
        <time>2015-07-05T08:26:56Z</time>
      </trkpt>
      <trkpt lat="45.33328" lon="5.75941">
        <ele>1680.815455298</ele>
        <time>2015-07-05T08:27:06Z</time>
      </trkpt>
      <trkpt lat="45.33328" lon="5.75941">
        <ele>1680.815455298</ele>
        <time>2015-07-05T08:27:11Z</time>
      </trkpt>
      <trkpt lat="45.33322" lon="5.75933">
        <ele>1680.815455298</ele>
        <time>2015-07-05T08:27:20Z</time>
      </trkpt>
      <trkpt lat="45.33322" lon="5.75931">
        <ele>1676.057914762</ele>
        <time>2015-07-05T08:27:25Z</time>
      </trkpt>
      <trkpt lat="45.33322" lon="5.75931">
        <ele>1676.057914762</ele>
        <time>2015-07-05T08:27:30Z</time>
      </trkpt>
      <trkpt lat="45.33322" lon="5.75931">
        <ele>1676.057914762</ele>
        <time>2015-07-05T08:27:36Z</time>
      </trkpt>
      <trkpt lat="45.3333" lon="5.75929">
        <ele>1676.057914762</ele>
        <time>2015-07-05T08:27:46Z</time>
      </trkpt>
      <trkpt lat="45.33333" lon="5.75929">
        <ele>1671.783339227</ele>
        <time>2015-07-05T08:27:51Z</time>
      </trkpt>
      <trkpt lat="45.33333" lon="5.75924">
        <ele>1671.783339227</ele>
        <time>2015-07-05T08:28:01Z</time>
      </trkpt>
      <trkpt lat="45.33336" lon="5.7592">
        <ele>1671.783339227</ele>
        <time>2015-07-05T08:28:06Z</time>
      </trkpt>
      <trkpt lat="45.33338" lon="5.75912">
        <ele>1666.814560069</ele>
        <time>2015-07-05T08:28:16Z</time>
      </trkpt>
      <trkpt lat="45.33343" lon="5.75907">
        <ele>1666.814560069</ele>
        <time>2015-07-05T08:28:21Z</time>
      </trkpt>
      <trkpt lat="45.33355" lon="5.75913">
        <ele>1662.368229242</ele>
        <time>2015-07-05T08:28:36Z</time>
      </trkpt>
      <trkpt lat="45.33356" lon="5.75912">
        <ele>1662.368229242</ele>
        <time>2015-07-05T08:28:41Z</time>
      </trkpt>
      <trkpt lat="45.33361" lon="5.75911">
        <ele>1662.368229242</ele>
        <time>2015-07-05T08:28:51Z</time>
      </trkpt>
      <trkpt lat="45.33362" lon="5.7591">
        <ele>1662.368229242</ele>
        <time>2015-07-05T08:28:56Z</time>
      </trkpt>
      <trkpt lat="45.33369" lon="5.75909">
        <ele>1657.696326935</ele>
        <time>2015-07-05T08:29:06Z</time>
      </trkpt>
      <trkpt lat="45.3337" lon="5.75905">
        <ele>1657.696326935</ele>
        <time>2015-07-05T08:29:11Z</time>
      </trkpt>
      <trkpt lat="45.3338" lon="5.75908">
        <ele>1653.835359132</ele>
        <time>2015-07-05T08:29:20Z</time>
      </trkpt>
      <trkpt lat="45.33386" lon="5.75902">
        <ele>1653.835359132</ele>
        <time>2015-07-05T08:29:26Z</time>
      </trkpt>
      <trkpt lat="45.33392" lon="5.759">
        <ele>1650.013690282</ele>
        <time>2015-07-05T08:29:36Z</time>
      </trkpt>
      <trkpt lat="45.33394" lon="5.75895">
        <ele>1650.013690282</ele>
        <time>2015-07-05T08:29:41Z</time>
      </trkpt>
      <trkpt lat="45.33396" lon="5.75889">
        <ele>1650.013690282</ele>
        <time>2015-07-05T08:29:51Z</time>
      </trkpt>
      <trkpt lat="45.33398" lon="5.75887">
        <ele>1646.956981844</ele>
        <time>2015-07-05T08:29:56Z</time>
      </trkpt>
      <trkpt lat="45.33405" lon="5.75876">
        <ele>1644.182172073</ele>
        <time>2015-07-05T08:30:06Z</time>
      </trkpt>
      <trkpt lat="45.3341" lon="5.75873">
        <ele>1644.182172073</ele>
        <time>2015-07-05T08:30:11Z</time>
      </trkpt>
      <trkpt lat="45.33415" lon="5.75872">
        <ele>1641.240523071</ele>
        <time>2015-07-05T08:30:21Z</time>
      </trkpt>
      <trkpt lat="45.33416" lon="5.75871">
        <ele>1641.240523071</ele>
        <time>2015-07-05T08:30:26Z</time>
      </trkpt>
      <trkpt lat="45.33418" lon="5.75867">
        <ele>1641.240523071</ele>
        <time>2015-07-05T08:30:36Z</time>
      </trkpt>
      <trkpt lat="45.33422" lon="5.75865">
        <ele>1637.139924294</ele>
        <time>2015-07-05T08:30:41Z</time>
      </trkpt>
      <trkpt lat="45.3343" lon="5.75868">
        <ele>1637.139924294</ele>
        <time>2015-07-05T08:30:56Z</time>
      </trkpt>
      <trkpt lat="45.33434" lon="5.75866">
        <ele>1633.269825987</ele>
        <time>2015-07-05T08:31:01Z</time>
      </trkpt>
      <trkpt lat="45.33436" lon="5.75873">
        <ele>1633.269825987</ele>
        <time>2015-07-05T08:31:11Z</time>
      </trkpt>
      <trkpt lat="45.33437" lon="5.75874">
        <ele>1633.269825987</ele>
        <time>2015-07-05T08:31:16Z</time>
      </trkpt>
      <trkpt lat="45.33437" lon="5.75874">
        <ele>1633.269825987</ele>
        <time>2015-07-05T08:31:26Z</time>
      </trkpt>
      <trkpt lat="45.33437" lon="5.75874">
        <ele>1633.269825987</ele>
        <time>2015-07-05T08:31:31Z</time>
      </trkpt>
      <trkpt lat="45.33433" lon="5.75874">
        <ele>1628.754955324</ele>
        <time>2015-07-05T08:31:41Z</time>
      </trkpt>
      <trkpt lat="45.33432" lon="5.75869">
        <ele>1628.754955324</ele>
        <time>2015-07-05T08:31:46Z</time>
      </trkpt>
      <trkpt lat="45.33438" lon="5.75844">
        <ele>1623.794587574</ele>
        <time>2015-07-05T08:31:56Z</time>
      </trkpt>
      <trkpt lat="45.33442" lon="5.75837">
        <ele>1623.794587574</ele>
        <time>2015-07-05T08:32:01Z</time>
      </trkpt>
      <trkpt lat="45.33441" lon="5.75833">
        <ele>1620.303612277</ele>
        <time>2015-07-05T08:32:10Z</time>
      </trkpt>
      <trkpt lat="45.3344" lon="5.75831">
        <ele>1620.303612277</ele>
        <time>2015-07-05T08:32:15Z</time>
      </trkpt>
      <trkpt lat="45.3344" lon="5.75831">
        <ele>1620.303612277</ele>
        <time>2015-07-05T08:32:20Z</time>
      </trkpt>
      <trkpt lat="45.3344" lon="5.7583">
        <ele>1620.303612277</ele>
        <time>2015-07-05T08:32:25Z</time>
      </trkpt>
      <trkpt lat="45.33436" lon="5.75833">
        <ele>1620.303612277</ele>
        <time>2015-07-05T08:32:30Z</time>
      </trkpt>
      <trkpt lat="45.3342" lon="5.75862">
        <ele>1617.169582427</ele>
        <time>2015-07-05T08:32:41Z</time>
      </trkpt>
      <trkpt lat="45.33415" lon="5.75862">
        <ele>1617.169582427</ele>
        <time>2015-07-05T08:32:46Z</time>
      </trkpt>
      <trkpt lat="45.33401" lon="5.7587">
        <ele>1615.089789337</ele>
        <time>2015-07-05T08:32:56Z</time>
      </trkpt>
      <trkpt lat="45.33392" lon="5.75874">
        <ele>1613.554156883</ele>
        <time>2015-07-05T08:33:01Z</time>
      </trkpt>
      <trkpt lat="45.33381" lon="5.75873">
        <ele>1612.808832757</ele>
        <time>2015-07-05T08:33:11Z</time>
      </trkpt>
      <trkpt lat="45.33375" lon="5.75873">
        <ele>1612.808832757</ele>
        <time>2015-07-05T08:33:16Z</time>
      </trkpt>
      <trkpt lat="45.33363" lon="5.75866">
        <ele>1612.358861569</ele>
        <time>2015-07-05T08:33:26Z</time>
      </trkpt>
      <trkpt lat="45.33358" lon="5.75858">
        <ele>1612.358861569</ele>
        <time>2015-07-05T08:33:31Z</time>
      </trkpt>
      <trkpt lat="45.33342" lon="5.75849">
        <ele>1611.744600167</ele>
        <time>2015-07-05T08:33:46Z</time>
      </trkpt>
      <trkpt lat="45.33341" lon="5.75843">
        <ele>1611.744600167</ele>
        <time>2015-07-05T08:33:51Z</time>
      </trkpt>
      <trkpt lat="45.33342" lon="5.75827">
        <ele>1608.666994674</ele>
        <time>2015-07-05T08:34:01Z</time>
      </trkpt>
      <trkpt lat="45.33335" lon="5.75821">
        <ele>1608.666994674</ele>
        <time>2015-07-05T08:34:06Z</time>
      </trkpt>
      <trkpt lat="45.33318" lon="5.75817">
        <ele>1605.037732248</ele>
        <time>2015-07-05T08:34:16Z</time>
      </trkpt>
      <trkpt lat="45.33314" lon="5.75811">
        <ele>1605.037732248</ele>
        <time>2015-07-05T08:34:21Z</time>
      </trkpt>
      <trkpt lat="45.33302" lon="5.758">
        <ele>1601.044239004</ele>
        <time>2015-07-05T08:34:31Z</time>
      </trkpt>
      <trkpt lat="45.33291" lon="5.75798">
        <ele>1597.293381582</ele>
        <time>2015-07-05T08:34:36Z</time>
      </trkpt>
      <trkpt lat="45.3327" lon="5.75787">
        <ele>1594.346623544</ele>
        <time>2015-07-05T08:34:46Z</time>
      </trkpt>
      <trkpt lat="45.33259" lon="5.75788">
        <ele>1592.145346636</ele>
        <time>2015-07-05T08:34:50Z</time>
      </trkpt>
      <trkpt lat="45.3324" lon="5.75774">
        <ele>1590.488908841</ele>
        <time>2015-07-05T08:35:01Z</time>
      </trkpt>
      <trkpt lat="45.33232" lon="5.75774">
        <ele>1590.488908841</ele>
        <time>2015-07-05T08:35:06Z</time>
      </trkpt>
      <trkpt lat="45.33218" lon="5.75777">
        <ele>1589.333876579</ele>
        <time>2015-07-05T08:35:16Z</time>
      </trkpt>
      <trkpt lat="45.33207" lon="5.75768">
        <ele>1588.494393997</ele>
        <time>2015-07-05T08:35:21Z</time>
      </trkpt>
      <trkpt lat="45.33183" lon="5.7576">
        <ele>1588.08552152</ele>
        <time>2015-07-05T08:35:36Z</time>
      </trkpt>
      <trkpt lat="45.33178" lon="5.7576">
        <ele>1588.08552152</ele>
        <time>2015-07-05T08:35:41Z</time>
      </trkpt>
      <trkpt lat="45.33167" lon="5.75749">
        <ele>1587.203829595</ele>
        <time>2015-07-05T08:35:50Z</time>
      </trkpt>
      <trkpt lat="45.33158" lon="5.75754">
        <ele>1586.454662989</ele>
        <time>2015-07-05T08:35:55Z</time>
      </trkpt>
      <trkpt lat="45.33148" lon="5.75744">
        <ele>1584.9574056</ele>
        <time>2015-07-05T08:36:06Z</time>
      </trkpt>
      <trkpt lat="45.33142" lon="5.7574">
        <ele>1584.9574056</ele>
        <time>2015-07-05T08:36:11Z</time>
      </trkpt>
      <trkpt lat="45.33132" lon="5.75731">
        <ele>1582.907014922</ele>
        <time>2015-07-05T08:36:21Z</time>
      </trkpt>
      <trkpt lat="45.33129" lon="5.75723">
        <ele>1582.907014922</ele>
        <time>2015-07-05T08:36:26Z</time>
      </trkpt>
      <trkpt lat="45.33118" lon="5.75699">
        <ele>1580.053363562</ele>
        <time>2015-07-05T08:36:36Z</time>
      </trkpt>
      <trkpt lat="45.3311" lon="5.75697">
        <ele>1580.053363562</ele>
        <time>2015-07-05T08:36:41Z</time>
      </trkpt>
      <trkpt lat="45.33102" lon="5.75674">
        <ele>1576.455197813</ele>
        <time>2015-07-05T08:36:51Z</time>
      </trkpt>
      <trkpt lat="45.33095" lon="5.75664">
        <ele>1573.610173941</ele>
        <time>2015-07-05T08:36:56Z</time>
      </trkpt>
      <trkpt lat="45.33082" lon="5.75648">
        <ele>1571.174508764</ele>
        <time>2015-07-05T08:37:06Z</time>
      </trkpt>
      <trkpt lat="45.33079" lon="5.75634">
        <ele>1568.828547887</ele>
        <time>2015-07-05T08:37:11Z</time>
      </trkpt>
      <trkpt lat="45.33065" lon="5.75618">
        <ele>1565.987666988</ele>
        <time>2015-07-05T08:37:21Z</time>
      </trkpt>
      <trkpt lat="45.33058" lon="5.75614">
        <ele>1565.987666988</ele>
        <time>2015-07-05T08:37:26Z</time>
      </trkpt>
      <trkpt lat="45.33034" lon="5.75593">
        <ele>1562.111597651</ele>
        <time>2015-07-05T08:37:41Z</time>
      </trkpt>
      <trkpt lat="45.33022" lon="5.75579">
        <ele>1559.008461893</ele>
        <time>2015-07-05T08:37:46Z</time>
      </trkpt>
      <trkpt lat="45.33007" lon="5.75567">
        <ele>1556.045628082</ele>
        <time>2015-07-05T08:37:56Z</time>
      </trkpt>
      <trkpt lat="45.32999" lon="5.75562">
        <ele>1556.045628082</ele>
        <time>2015-07-05T08:38:01Z</time>
      </trkpt>
      <trkpt lat="45.32981" lon="5.75561">
        <ele>1552.780667453</ele>
        <time>2015-07-05T08:38:11Z</time>
      </trkpt>
      <trkpt lat="45.32972" lon="5.75564">
        <ele>1549.525063701</ele>
        <time>2015-07-05T08:38:16Z</time>
      </trkpt>
      <trkpt lat="45.32962" lon="5.75558">
        <ele>1546.135064612</ele>
        <time>2015-07-05T08:38:26Z</time>
      </trkpt>
      <trkpt lat="45.32958" lon="5.75565">
        <ele>1546.135064612</ele>
        <time>2015-07-05T08:38:31Z</time>
      </trkpt>
      <trkpt lat="45.32958" lon="5.75565">
        <ele>1546.135064612</ele>
        <time>2015-07-05T08:38:41Z</time>
      </trkpt>
      <trkpt lat="45.32958" lon="5.75566">
        <ele>1546.135064612</ele>
        <time>2015-07-05T08:38:45Z</time>
      </trkpt>
      <trkpt lat="45.32951" lon="5.75558">
        <ele>1542.766078964</ele>
        <time>2015-07-05T08:39:00Z</time>
      </trkpt>
      <trkpt lat="45.32951" lon="5.75559">
        <ele>1542.766078964</ele>
        <time>2015-07-05T08:39:05Z</time>
      </trkpt>
      <trkpt lat="45.3295" lon="5.75559">
        <ele>1542.766078964</ele>
        <time>2015-07-05T08:39:10Z</time>
      </trkpt>
      <trkpt lat="45.3295" lon="5.75558">
        <ele>1542.766078964</ele>
        <time>2015-07-05T08:39:16Z</time>
      </trkpt>
      <trkpt lat="45.3293" lon="5.75561">
        <ele>1539.56203838</ele>
        <time>2015-07-05T08:39:31Z</time>
      </trkpt>
      <trkpt lat="45.32923" lon="5.75562">
        <ele>1539.56203838</ele>
        <time>2015-07-05T08:39:36Z</time>
      </trkpt>
      <trkpt lat="45.32912" lon="5.75563">
        <ele>1535.935276744</ele>
        <time>2015-07-05T08:39:46Z</time>
      </trkpt>
      <trkpt lat="45.32908" lon="5.75554">
        <ele>1535.935276744</ele>
        <time>2015-07-05T08:39:51Z</time>
      </trkpt>
      <trkpt lat="45.32896" lon="5.75559">
        <ele>1532.063028616</ele>
        <time>2015-07-05T08:40:01Z</time>
      </trkpt>
      <trkpt lat="45.32894" lon="5.75554">
        <ele>1532.063028616</ele>
        <time>2015-07-05T08:40:06Z</time>
      </trkpt>
      <trkpt lat="45.32886" lon="5.75547">
        <ele>1527.821959066</ele>
        <time>2015-07-05T08:40:16Z</time>
      </trkpt>
      <trkpt lat="45.32879" lon="5.75548">
        <ele>1527.821959066</ele>
        <time>2015-07-05T08:40:21Z</time>
      </trkpt>
      <trkpt lat="45.32864" lon="5.75551">
        <ele>1523.675249678</ele>
        <time>2015-07-05T08:40:31Z</time>
      </trkpt>
      <trkpt lat="45.32858" lon="5.75551">
        <ele>1523.675249678</ele>
        <time>2015-07-05T08:40:36Z</time>
      </trkpt>
      <trkpt lat="45.32844" lon="5.75557">
        <ele>1519.763539694</ele>
        <time>2015-07-05T08:40:46Z</time>
      </trkpt>
      <trkpt lat="45.32835" lon="5.75562">
        <ele>1515.351772453</ele>
        <time>2015-07-05T08:40:51Z</time>
      </trkpt>
      <trkpt lat="45.32827" lon="5.7556">
        <ele>1515.351772453</ele>
        <time>2015-07-05T08:41:01Z</time>
      </trkpt>
      <trkpt lat="45.32824" lon="5.75557">
        <ele>1511.345468201</ele>
        <time>2015-07-05T08:41:06Z</time>
      </trkpt>
      <trkpt lat="45.32808" lon="5.75558">
        <ele>1506.56488113</ele>
        <time>2015-07-05T08:41:21Z</time>
      </trkpt>
      <trkpt lat="45.32802" lon="5.75551">
        <ele>1506.56488113</ele>
        <time>2015-07-05T08:41:26Z</time>
      </trkpt>
      <trkpt lat="45.32782" lon="5.75569">
        <ele>1501.504262139</ele>
        <time>2015-07-05T08:41:36Z</time>
      </trkpt>
      <trkpt lat="45.32772" lon="5.75576">
        <ele>1496.766381037</ele>
        <time>2015-07-05T08:41:41Z</time>
      </trkpt>
      <trkpt lat="45.32766" lon="5.75567">
        <ele>1496.766381037</ele>
        <time>2015-07-05T08:41:50Z</time>
      </trkpt>
      <trkpt lat="45.32766" lon="5.75567">
        <ele>1492.044076659</ele>
        <time>2015-07-05T08:41:56Z</time>
      </trkpt>
      <trkpt lat="45.32767" lon="5.75562">
        <ele>1492.044076659</ele>
        <time>2015-07-05T08:42:06Z</time>
      </trkpt>
      <trkpt lat="45.32767" lon="5.75562">
        <ele>1492.044076659</ele>
        <time>2015-07-05T08:42:11Z</time>
      </trkpt>
      <trkpt lat="45.32764" lon="5.75554">
        <ele>1487.052619048</ele>
        <time>2015-07-05T08:42:21Z</time>
      </trkpt>
      <trkpt lat="45.32764" lon="5.75549">
        <ele>1487.052619048</ele>
        <time>2015-07-05T08:42:26Z</time>
      </trkpt>
      <trkpt lat="45.32758" lon="5.75537">
        <ele>1482.105296599</ele>
        <time>2015-07-05T08:42:36Z</time>
      </trkpt>
      <trkpt lat="45.32754" lon="5.75542">
        <ele>1482.105296599</ele>
        <time>2015-07-05T08:42:41Z</time>
      </trkpt>
      <trkpt lat="45.32741" lon="5.75548">
        <ele>1477.348044041</ele>
        <time>2015-07-05T08:42:51Z</time>
      </trkpt>
      <trkpt lat="45.32737" lon="5.75547">
        <ele>1477.348044041</ele>
        <time>2015-07-05T08:42:56Z</time>
      </trkpt>
      <trkpt lat="45.32728" lon="5.75547">
        <ele>1472.771320519</ele>
        <time>2015-07-05T08:43:06Z</time>
      </trkpt>
      <trkpt lat="45.32725" lon="5.75547">
        <ele>1472.771320519</ele>
        <time>2015-07-05T08:43:11Z</time>
      </trkpt>
      <trkpt lat="45.32702" lon="5.75548">
        <ele>1468.365663908</ele>
        <time>2015-07-05T08:43:26Z</time>
      </trkpt>
      <trkpt lat="45.32691" lon="5.75546">
        <ele>1464.26582026</ele>
        <time>2015-07-05T08:43:31Z</time>
      </trkpt>
      <trkpt lat="45.32679" lon="5.7555">
        <ele>1460.739772797</ele>
        <time>2015-07-05T08:43:41Z</time>
      </trkpt>
      <trkpt lat="45.32673" lon="5.75548">
        <ele>1460.739772797</ele>
        <time>2015-07-05T08:43:46Z</time>
      </trkpt>
      <trkpt lat="45.32656" lon="5.75542">
        <ele>1456.881204289</ele>
        <time>2015-07-05T08:43:56Z</time>
      </trkpt>
      <trkpt lat="45.32647" lon="5.75542">
        <ele>1456.881204289</ele>
        <time>2015-07-05T08:44:01Z</time>
      </trkpt>
      <trkpt lat="45.32636" lon="5.75517">
        <ele>1452.571751284</ele>
        <time>2015-07-05T08:44:11Z</time>
      </trkpt>
      <trkpt lat="45.32639" lon="5.7551">
        <ele>1452.571751284</ele>
        <time>2015-07-05T08:44:16Z</time>
      </trkpt>
      <trkpt lat="45.32637" lon="5.75496">
        <ele>1448.423457321</ele>
        <time>2015-07-05T08:44:26Z</time>
      </trkpt>
      <trkpt lat="45.32634" lon="5.75485">
        <ele>1448.423457321</ele>
        <time>2015-07-05T08:44:31Z</time>
      </trkpt>
      <trkpt lat="45.32622" lon="5.75465">
        <ele>1443.561735217</ele>
        <time>2015-07-05T08:44:41Z</time>
      </trkpt>
      <trkpt lat="45.32615" lon="5.75459">
        <ele>1443.561735217</ele>
        <time>2015-07-05T08:44:46Z</time>
      </trkpt>
      <trkpt lat="45.32617" lon="5.75453">
        <ele>1439.339808027</ele>
        <time>2015-07-05T08:44:55Z</time>
      </trkpt>
      <trkpt lat="45.32617" lon="5.75453">
        <ele>1439.339808027</ele>
        <time>2015-07-05T08:45:01Z</time>
      </trkpt>
      <trkpt lat="45.32616" lon="5.75452">
        <ele>1439.339808027</ele>
        <time>2015-07-05T08:45:06Z</time>
      </trkpt>
      <trkpt lat="45.32615" lon="5.75452">
        <ele>1439.339808027</ele>
        <time>2015-07-05T08:45:16Z</time>
      </trkpt>
      <trkpt lat="45.32615" lon="5.75452">
        <ele>1439.339808027</ele>
        <time>2015-07-05T08:45:21Z</time>
      </trkpt>
      <trkpt lat="45.326" lon="5.75442">
        <ele>1436.000815727</ele>
        <time>2015-07-05T08:45:30Z</time>
      </trkpt>
      <trkpt lat="45.32598" lon="5.75427">
        <ele>1433.623351462</ele>
        <time>2015-07-05T08:45:35Z</time>
      </trkpt>
      <trkpt lat="45.32588" lon="5.75422">
        <ele>1430.98044738</ele>
        <time>2015-07-05T08:45:46Z</time>
      </trkpt>
      <trkpt lat="45.32587" lon="5.75424">
        <ele>1430.98044738</ele>
        <time>2015-07-05T08:45:51Z</time>
      </trkpt>
      <trkpt lat="45.32588" lon="5.75423">
        <ele>1430.98044738</ele>
        <time>2015-07-05T08:46:01Z</time>
      </trkpt>
      <trkpt lat="45.32588" lon="5.75423">
        <ele>1430.98044738</ele>
        <time>2015-07-05T08:46:06Z</time>
      </trkpt>
      <trkpt lat="45.32585" lon="5.754">
        <ele>1428.23293522</ele>
        <time>2015-07-05T08:46:16Z</time>
      </trkpt>
      <trkpt lat="45.3258" lon="5.75389">
        <ele>1425.674172799</ele>
        <time>2015-07-05T08:46:21Z</time>
      </trkpt>
      <trkpt lat="45.32563" lon="5.75375">
        <ele>1422.422497941</ele>
        <time>2015-07-05T08:46:36Z</time>
      </trkpt>
      <trkpt lat="45.32568" lon="5.75371">
        <ele>1422.422497941</ele>
        <time>2015-07-05T08:46:41Z</time>
      </trkpt>
      <trkpt lat="45.32566" lon="5.75356">
        <ele>1419.68047539</ele>
        <time>2015-07-05T08:46:51Z</time>
      </trkpt>
      <trkpt lat="45.32566" lon="5.75356">
        <ele>1419.68047539</ele>
        <time>2015-07-05T08:46:56Z</time>
      </trkpt>
      <trkpt lat="45.32561" lon="5.75356">
        <ele>1419.68047539</ele>
        <time>2015-07-05T08:47:06Z</time>
      </trkpt>
      <trkpt lat="45.32561" lon="5.75354">
        <ele>1419.68047539</ele>
        <time>2015-07-05T08:47:11Z</time>
      </trkpt>
      <trkpt lat="45.32559" lon="5.75354">
        <ele>1419.68047539</ele>
        <time>2015-07-05T08:47:21Z</time>
      </trkpt>
      <trkpt lat="45.32559" lon="5.75353">
        <ele>1419.68047539</ele>
        <time>2015-07-05T08:47:26Z</time>
      </trkpt>
      <trkpt lat="45.32545" lon="5.75322">
        <ele>1416.543314187</ele>
        <time>2015-07-05T08:47:36Z</time>
      </trkpt>
      <trkpt lat="45.32543" lon="5.75306">
        <ele>1412.89433069</ele>
        <time>2015-07-05T08:47:41Z</time>
      </trkpt>
      <trkpt lat="45.32547" lon="5.75287">
        <ele>1410.06794487</ele>
        <time>2015-07-05T08:47:45Z</time>
      </trkpt>
      <trkpt lat="45.32552" lon="5.75275">
        <ele>1407.857123891</ele>
        <time>2015-07-05T08:47:51Z</time>
      </trkpt>
      <trkpt lat="45.32556" lon="5.75264">
        <ele>1407.857123891</ele>
        <time>2015-07-05T08:47:56Z</time>
      </trkpt>
      <trkpt lat="45.32553" lon="5.7524">
        <ele>1405.635983239</ele>
        <time>2015-07-05T08:48:06Z</time>
      </trkpt>
      <trkpt lat="45.32552" lon="5.75228">
        <ele>1405.635983239</ele>
        <time>2015-07-05T08:48:11Z</time>
      </trkpt>
      <trkpt lat="45.32551" lon="5.75205">
        <ele>1404.121655889</ele>
        <time>2015-07-05T08:48:21Z</time>
      </trkpt>
      <trkpt lat="45.32557" lon="5.75197">
        <ele>1404.121655889</ele>
        <time>2015-07-05T08:48:26Z</time>
      </trkpt>
      <trkpt lat="45.32554" lon="5.7519">
        <ele>1402.103189914</ele>
        <time>2015-07-05T08:48:36Z</time>
      </trkpt>
      <trkpt lat="45.32553" lon="5.7519">
        <ele>1402.103189914</ele>
        <time>2015-07-05T08:48:41Z</time>
      </trkpt>
      <trkpt lat="45.32547" lon="5.75181">
        <ele>1400.909930875</ele>
        <time>2015-07-05T08:48:50Z</time>
      </trkpt>
      <trkpt lat="45.32549" lon="5.75181">
        <ele>1400.909930875</ele>
        <time>2015-07-05T08:48:55Z</time>
      </trkpt>
      <trkpt lat="45.32549" lon="5.75182">
        <ele>1400.909930875</ele>
        <time>2015-07-05T08:49:01Z</time>
      </trkpt>
      <trkpt lat="45.32542" lon="5.75188">
        <ele>1398.600861018</ele>
        <time>2015-07-05T08:49:10Z</time>
      </trkpt>
      <trkpt lat="45.32542" lon="5.75189">
        <ele>1398.600861018</ele>
        <time>2015-07-05T08:49:15Z</time>
      </trkpt>
      <trkpt lat="45.32543" lon="5.75182">
        <ele>1398.600861018</ele>
        <time>2015-07-05T08:49:21Z</time>
      </trkpt>
      <trkpt lat="45.32544" lon="5.7518">
        <ele>1398.600861018</ele>
        <time>2015-07-05T08:49:25Z</time>
      </trkpt>
      <trkpt lat="45.32545" lon="5.75179">
        <ele>1398.600861018</ele>
        <time>2015-07-05T08:49:31Z</time>
      </trkpt>
      <trkpt lat="45.32545" lon="5.75179">
        <ele>1398.600861018</ele>
        <time>2015-07-05T08:49:46Z</time>
      </trkpt>
      <trkpt lat="45.32538" lon="5.75178">
        <ele>1394.821849832</ele>
        <time>2015-07-05T08:49:51Z</time>
      </trkpt>
      <trkpt lat="45.32537" lon="5.7517">
        <ele>1394.821849832</ele>
        <time>2015-07-05T08:50:01Z</time>
      </trkpt>
      <trkpt lat="45.32529" lon="5.75173">
        <ele>1391.266525695</ele>
        <time>2015-07-05T08:50:06Z</time>
      </trkpt>
      <trkpt lat="45.32526" lon="5.75174">
        <ele>1391.266525695</ele>
        <time>2015-07-05T08:50:16Z</time>
      </trkpt>
      <trkpt lat="45.32515" lon="5.75176">
        <ele>1387.918319689</ele>
        <time>2015-07-05T08:50:21Z</time>
      </trkpt>
      <trkpt lat="45.32501" lon="5.75178">
        <ele>1384.905474023</ele>
        <time>2015-07-05T08:50:31Z</time>
      </trkpt>
      <trkpt lat="45.32504" lon="5.75187">
        <ele>1384.905474023</ele>
        <time>2015-07-05T08:50:36Z</time>
      </trkpt>
      <trkpt lat="45.325" lon="5.75187">
        <ele>1382.922376967</ele>
        <time>2015-07-05T08:50:46Z</time>
      </trkpt>
      <trkpt lat="45.32494" lon="5.7518">
        <ele>1382.922376967</ele>
        <time>2015-07-05T08:50:51Z</time>
      </trkpt>
      <trkpt lat="45.32494" lon="5.75156">
        <ele>1381.456694649</ele>
        <time>2015-07-05T08:51:01Z</time>
      </trkpt>
      <trkpt lat="45.32503" lon="5.75148">
        <ele>1380.320571532</ele>
        <time>2015-07-05T08:51:06Z</time>
      </trkpt>
      <trkpt lat="45.32504" lon="5.75146">
        <ele>1380.320571532</ele>
        <time>2015-07-05T08:51:10Z</time>
      </trkpt>
      <trkpt lat="45.32505" lon="5.75147">
        <ele>1380.190118867</ele>
        <time>2015-07-05T08:51:16Z</time>
      </trkpt>
      <trkpt lat="45.32501" lon="5.7512">
        <ele>1380.059666202</ele>
        <time>2015-07-05T08:51:26Z</time>
      </trkpt>
      <trkpt lat="45.32503" lon="5.75113">
        <ele>1380.059666202</ele>
        <time>2015-07-05T08:51:31Z</time>
      </trkpt>
      <trkpt lat="45.32498" lon="5.75091">
        <ele>1378.727304052</ele>
        <time>2015-07-05T08:51:46Z</time>
      </trkpt>
      <trkpt lat="45.32496" lon="5.75082">
        <ele>1378.727304052</ele>
        <time>2015-07-05T08:51:51Z</time>
      </trkpt>
      <trkpt lat="45.32495" lon="5.75069">
        <ele>1376.972815605</ele>
        <time>2015-07-05T08:52:01Z</time>
      </trkpt>
      <trkpt lat="45.32498" lon="5.75044">
        <ele>1374.390354995</ele>
        <time>2015-07-05T08:52:16Z</time>
      </trkpt>
      <trkpt lat="45.32502" lon="5.75038">
        <ele>1374.390354995</ele>
        <time>2015-07-05T08:52:21Z</time>
      </trkpt>
      <trkpt lat="45.32497" lon="5.7503">
        <ele>1370.894555109</ele>
        <time>2015-07-05T08:52:31Z</time>
      </trkpt>
      <trkpt lat="45.32503" lon="5.75026">
        <ele>1370.894555109</ele>
        <time>2015-07-05T08:52:36Z</time>
      </trkpt>
      <trkpt lat="45.32501" lon="5.75011">
        <ele>1367.129555553</ele>
        <time>2015-07-05T08:52:46Z</time>
      </trkpt>
      <trkpt lat="45.3251" lon="5.74997">
        <ele>1363.116598151</ele>
        <time>2015-07-05T08:52:51Z</time>
      </trkpt>
      <trkpt lat="45.32521" lon="5.74957">
        <ele>1360.461383483</ele>
        <time>2015-07-05T08:53:01Z</time>
      </trkpt>
      <trkpt lat="45.32527" lon="5.74947">
        <ele>1358.19805188</ele>
        <time>2015-07-05T08:53:06Z</time>
      </trkpt>
      <trkpt lat="45.3254" lon="5.74937">
        <ele>1355.14245873</ele>
        <time>2015-07-05T08:53:16Z</time>
      </trkpt>
      <trkpt lat="45.32543" lon="5.74929">
        <ele>1355.14245873</ele>
        <time>2015-07-05T08:53:21Z</time>
      </trkpt>
      <trkpt lat="45.3254" lon="5.74901">
        <ele>1352.073194275</ele>
        <time>2015-07-05T08:53:31Z</time>
      </trkpt>
      <trkpt lat="45.32538" lon="5.74891">
        <ele>1352.073194275</ele>
        <time>2015-07-05T08:53:36Z</time>
      </trkpt>
      <trkpt lat="45.32531" lon="5.74858">
        <ele>1346.973653664</ele>
        <time>2015-07-05T08:53:46Z</time>
      </trkpt>
      <trkpt lat="45.32531" lon="5.74839">
        <ele>1342.448576262</ele>
        <time>2015-07-05T08:53:51Z</time>
      </trkpt>
      <trkpt lat="45.32531" lon="5.74806">
        <ele>1337.739351658</ele>
        <time>2015-07-05T08:54:01Z</time>
      </trkpt>
      <trkpt lat="45.32533" lon="5.74791">
        <ele>1333.728871108</ele>
        <time>2015-07-05T08:54:06Z</time>
      </trkpt>
      <trkpt lat="45.32555" lon="5.74798">
        <ele>1329.359783489</ele>
        <time>2015-07-05T08:54:15Z</time>
      </trkpt>
      <trkpt lat="45.32567" lon="5.74803">
        <ele>1325.382757353</ele>
        <time>2015-07-05T08:54:21Z</time>
      </trkpt>
      <trkpt lat="45.32582" lon="5.74813">
        <ele>1322.203993572</ele>
        <time>2015-07-05T08:54:31Z</time>
      </trkpt>
      <trkpt lat="45.3259" lon="5.74812">
        <ele>1322.203993572</ele>
        <time>2015-07-05T08:54:36Z</time>
      </trkpt>
      <trkpt lat="45.32595" lon="5.74818">
        <ele>1319.909385454</ele>
        <time>2015-07-05T08:54:41Z</time>
      </trkpt>
      <trkpt lat="45.32608" lon="5.74827">
        <ele>1317.999584469</ele>
        <time>2015-07-05T08:54:51Z</time>
      </trkpt>
      <trkpt lat="45.32627" lon="5.74829">
        <ele>1315.866729638</ele>
        <time>2015-07-05T08:54:56Z</time>
      </trkpt>
      <trkpt lat="45.32636" lon="5.74834">
        <ele>1314.245243202</ele>
        <time>2015-07-05T08:55:06Z</time>
      </trkpt>
      <trkpt lat="45.32644" lon="5.7483">
        <ele>1314.245243202</ele>
        <time>2015-07-05T08:55:10Z</time>
      </trkpt>
      <trkpt lat="45.32651" lon="5.74838">
        <ele>1312.66128638</ele>
        <time>2015-07-05T08:55:21Z</time>
      </trkpt>
      <trkpt lat="45.32659" lon="5.7484">
        <ele>1312.66128638</ele>
        <time>2015-07-05T08:55:26Z</time>
      </trkpt>
      <trkpt lat="45.32675" lon="5.74855">
        <ele>1311.108079287</ele>
        <time>2015-07-05T08:55:36Z</time>
      </trkpt>
      <trkpt lat="45.32685" lon="5.74858">
        <ele>1309.579286337</ele>
        <time>2015-07-05T08:55:41Z</time>
      </trkpt>
      <trkpt lat="45.32701" lon="5.74864">
        <ele>1308.357234023</ele>
        <time>2015-07-05T08:55:51Z</time>
      </trkpt>
      <trkpt lat="45.32712" lon="5.7487">
        <ele>1307.12625692</ele>
        <time>2015-07-05T08:55:56Z</time>
      </trkpt>
      <trkpt lat="45.32729" lon="5.7487">
        <ele>1306.602745155</ele>
        <time>2015-07-05T08:56:06Z</time>
      </trkpt>
      <trkpt lat="45.32737" lon="5.7487">
        <ele>1306.602745155</ele>
        <time>2015-07-05T08:56:11Z</time>
      </trkpt>
      <trkpt lat="45.3276" lon="5.74864">
        <ele>1306.439776351</ele>
        <time>2015-07-05T08:56:21Z</time>
      </trkpt>
      <trkpt lat="45.3277" lon="5.74864">
        <ele>1306.891436384</ele>
        <time>2015-07-05T08:56:26Z</time>
      </trkpt>
      <trkpt lat="45.32796" lon="5.7488">
        <ele>1307.182749766</ele>
        <time>2015-07-05T08:56:36Z</time>
      </trkpt>
      <trkpt lat="45.32811" lon="5.749">
        <ele>1307.460909987</ele>
        <time>2015-07-05T08:56:41Z</time>
      </trkpt>
      <trkpt lat="45.32833" lon="5.74924">
        <ele>1308.150697262</ele>
        <time>2015-07-05T08:56:56Z</time>
      </trkpt>
      <trkpt lat="45.3284" lon="5.74936">
        <ele>1308.203577049</ele>
        <time>2015-07-05T08:57:01Z</time>
      </trkpt>
      <trkpt lat="45.32859" lon="5.74946">
        <ele>1308.2352184</ele>
        <time>2015-07-05T08:57:11Z</time>
      </trkpt>
      <trkpt lat="45.32866" lon="5.74949">
        <ele>1308.2352184</ele>
        <time>2015-07-05T08:57:16Z</time>
      </trkpt>
      <trkpt lat="45.32886" lon="5.74958">
        <ele>1307.951636512</ele>
        <time>2015-07-05T08:57:26Z</time>
      </trkpt>
      <trkpt lat="45.32894" lon="5.74957">
        <ele>1307.951636512</ele>
        <time>2015-07-05T08:57:31Z</time>
      </trkpt>
      <trkpt lat="45.32908" lon="5.74957">
        <ele>1307.946182945</ele>
        <time>2015-07-05T08:57:41Z</time>
      </trkpt>
      <trkpt lat="45.32919" lon="5.74951">
        <ele>1308.191593091</ele>
        <time>2015-07-05T08:57:46Z</time>
      </trkpt>
      <trkpt lat="45.32935" lon="5.74949">
        <ele>1309.814995153</ele>
        <time>2015-07-05T08:57:56Z</time>
      </trkpt>
      <trkpt lat="45.32953" lon="5.74961">
        <ele>1311.263066198</ele>
        <time>2015-07-05T08:58:01Z</time>
      </trkpt>
      <trkpt lat="45.32972" lon="5.74975">
        <ele>1312.250195029</ele>
        <time>2015-07-05T08:58:11Z</time>
      </trkpt>
      <trkpt lat="45.32979" lon="5.74984">
        <ele>1312.945612968</ele>
        <time>2015-07-05T08:58:16Z</time>
      </trkpt>
      <trkpt lat="45.32993" lon="5.74993">
        <ele>1312.930736655</ele>
        <time>2015-07-05T08:58:25Z</time>
      </trkpt>
      <trkpt lat="45.32993" lon="5.74992">
        <ele>1312.930736655</ele>
        <time>2015-07-05T08:58:30Z</time>
      </trkpt>
      <trkpt lat="45.32994" lon="5.74991">
        <ele>1312.930736655</ele>
        <time>2015-07-05T08:58:35Z</time>
      </trkpt>
      <trkpt lat="45.32994" lon="5.74992">
        <ele>1312.930736655</ele>
        <time>2015-07-05T08:58:40Z</time>
      </trkpt>
      <trkpt lat="45.32994" lon="5.74992">
        <ele>1312.930736655</ele>
        <time>2015-07-05T08:58:45Z</time>
      </trkpt>
      <trkpt lat="45.32994" lon="5.74991">
        <ele>1312.930736655</ele>
        <time>2015-07-05T08:58:50Z</time>
      </trkpt>
      <trkpt lat="45.32994" lon="5.74991">
        <ele>1312.930736655</ele>
        <time>2015-07-05T08:59:01Z</time>
      </trkpt>
      <trkpt lat="45.33001" lon="5.74995">
        <ele>1312.972861022</ele>
        <time>2015-07-05T08:59:06Z</time>
      </trkpt>
      <trkpt lat="45.33018" lon="5.74998">
        <ele>1311.188999911</ele>
        <time>2015-07-05T08:59:21Z</time>
      </trkpt>
      <trkpt lat="45.33019" lon="5.74999">
        <ele>1311.188999911</ele>
        <time>2015-07-05T08:59:26Z</time>
      </trkpt>
      <trkpt lat="45.33027" lon="5.75001">
        <ele>1309.154406572</ele>
        <time>2015-07-05T08:59:36Z</time>
      </trkpt>
      <trkpt lat="45.33046" lon="5.75006">
        <ele>1307.032544074</ele>
        <time>2015-07-05T08:59:41Z</time>
      </trkpt>
      <trkpt lat="45.33068" lon="5.75017">
        <ele>1304.831208348</ele>
        <time>2015-07-05T08:59:51Z</time>
      </trkpt>
      <trkpt lat="45.33075" lon="5.7502">
        <ele>1304.831208348</ele>
        <time>2015-07-05T08:59:56Z</time>
      </trkpt>
      <trkpt lat="45.3309" lon="5.75022">
        <ele>1302.269810144</ele>
        <time>2015-07-05T09:00:06Z</time>
      </trkpt>
      <trkpt lat="45.33097" lon="5.75022">
        <ele>1302.269810144</ele>
        <time>2015-07-05T09:00:11Z</time>
      </trkpt>
      <trkpt lat="45.3311" lon="5.7502">
        <ele>1299.665993294</ele>
        <time>2015-07-05T09:00:21Z</time>
      </trkpt>
      <trkpt lat="45.33113" lon="5.75021">
        <ele>1299.665993294</ele>
        <time>2015-07-05T09:00:26Z</time>
      </trkpt>
      <trkpt lat="45.33125" lon="5.75021">
        <ele>1296.161441713</ele>
        <time>2015-07-05T09:00:36Z</time>
      </trkpt>
      <trkpt lat="45.33132" lon="5.75022">
        <ele>1296.161441713</ele>
        <time>2015-07-05T09:00:41Z</time>
      </trkpt>
      <trkpt lat="45.33144" lon="5.75022">
        <ele>1291.539981669</ele>
        <time>2015-07-05T09:00:51Z</time>
      </trkpt>
      <trkpt lat="45.33146" lon="5.75019">
        <ele>1291.539981669</ele>
        <time>2015-07-05T09:00:56Z</time>
      </trkpt>
      <trkpt lat="45.33163" lon="5.75005">
        <ele>1285.892765428</ele>
        <time>2015-07-05T09:01:11Z</time>
      </trkpt>
      <trkpt lat="45.33171" lon="5.75002">
        <ele>1285.892765428</ele>
        <time>2015-07-05T09:01:16Z</time>
      </trkpt>
      <trkpt lat="45.33186" lon="5.75011">
        <ele>1280.604185705</ele>
        <time>2015-07-05T09:01:26Z</time>
      </trkpt>
      <trkpt lat="45.33198" lon="5.75018">
        <ele>1275.947178958</ele>
        <time>2015-07-05T09:01:31Z</time>
      </trkpt>
      <trkpt lat="45.33213" lon="5.75032">
        <ele>1272.316964548</ele>
        <time>2015-07-05T09:01:41Z</time>
      </trkpt>
      <trkpt lat="45.33222" lon="5.75033">
        <ele>1269.356260356</ele>
        <time>2015-07-05T09:01:45Z</time>
      </trkpt>
      <trkpt lat="45.33245" lon="5.75046">
        <ele>1266.58798936</ele>
        <time>2015-07-05T09:01:55Z</time>
      </trkpt>
      <trkpt lat="45.33256" lon="5.75054">
        <ele>1263.569516208</ele>
        <time>2015-07-05T09:02:02Z</time>
      </trkpt>
      <trkpt lat="45.33274" lon="5.75058">
        <ele>1261.476574289</ele>
        <time>2015-07-05T09:02:11Z</time>
      </trkpt>
      <trkpt lat="45.33283" lon="5.75064">
        <ele>1260.242967759</ele>
        <time>2015-07-05T09:02:16Z</time>
      </trkpt>
      <trkpt lat="45.33303" lon="5.75076">
        <ele>1258.796099584</ele>
        <time>2015-07-05T09:02:26Z</time>
      </trkpt>
      <trkpt lat="45.33311" lon="5.75082">
        <ele>1257.439691983</ele>
        <time>2015-07-05T09:02:31Z</time>
      </trkpt>
      <trkpt lat="45.33332" lon="5.75078">
        <ele>1256.743059582</ele>
        <time>2015-07-05T09:02:41Z</time>
      </trkpt>
      <trkpt lat="45.33345" lon="5.75084">
        <ele>1256.223010298</ele>
        <time>2015-07-05T09:02:46Z</time>
      </trkpt>
      <trkpt lat="45.33362" lon="5.751">
        <ele>1255.575416203</ele>
        <time>2015-07-05T09:02:56Z</time>
      </trkpt>
      <trkpt lat="45.33366" lon="5.75101">
        <ele>1255.575416203</ele>
        <time>2015-07-05T09:03:01Z</time>
      </trkpt>
      <trkpt lat="45.3339" lon="5.75128">
        <ele>1255.239368505</ele>
        <time>2015-07-05T09:03:16Z</time>
      </trkpt>
      <trkpt lat="45.33415" lon="5.75142">
        <ele>1255.764917924</ele>
        <time>2015-07-05T09:03:31Z</time>
      </trkpt>
      <trkpt lat="45.33421" lon="5.75144">
        <ele>1255.764917924</ele>
        <time>2015-07-05T09:03:36Z</time>
      </trkpt>
      <trkpt lat="45.33435" lon="5.7516">
        <ele>1256.650506006</ele>
        <time>2015-07-05T09:03:46Z</time>
      </trkpt>
      <trkpt lat="45.33441" lon="5.75167">
        <ele>1256.650506006</ele>
        <time>2015-07-05T09:03:51Z</time>
      </trkpt>
      <trkpt lat="45.33451" lon="5.75162">
        <ele>1256.709859961</ele>
        <time>2015-07-05T09:04:01Z</time>
      </trkpt>
      <trkpt lat="45.33463" lon="5.75175">
        <ele>1255.854967134</ele>
        <time>2015-07-05T09:04:06Z</time>
      </trkpt>
      <trkpt lat="45.33474" lon="5.75187">
        <ele>1255.159767563</ele>
        <time>2015-07-05T09:04:16Z</time>
      </trkpt>
      <trkpt lat="45.33481" lon="5.7519">
        <ele>1255.159767563</ele>
        <time>2015-07-05T09:04:21Z</time>
      </trkpt>
      <trkpt lat="45.33505" lon="5.75198">
        <ele>1254.898348675</ele>
        <time>2015-07-05T09:04:31Z</time>
      </trkpt>
      <trkpt lat="45.33514" lon="5.75208">
        <ele>1254.602939132</ele>
        <time>2015-07-05T09:04:36Z</time>
      </trkpt>
      <trkpt lat="45.33527" lon="5.75213">
        <ele>1253.840277954</ele>
        <time>2015-07-05T09:04:46Z</time>
      </trkpt>
      <trkpt lat="45.33537" lon="5.75217">
        <ele>1253.219077665</ele>
        <time>2015-07-05T09:04:50Z</time>
      </trkpt>
      <trkpt lat="45.3355" lon="5.75226">
        <ele>1252.726555196</ele>
        <time>2015-07-05T09:05:01Z</time>
      </trkpt>
      <trkpt lat="45.33557" lon="5.7523">
        <ele>1252.726555196</ele>
        <time>2015-07-05T09:05:06Z</time>
      </trkpt>
      <trkpt lat="45.33579" lon="5.75242">
        <ele>1251.485901912</ele>
        <time>2015-07-05T09:05:21Z</time>
      </trkpt>
      <trkpt lat="45.33585" lon="5.75245">
        <ele>1251.485901912</ele>
        <time>2015-07-05T09:05:26Z</time>
      </trkpt>
      <trkpt lat="45.33605" lon="5.75244">
        <ele>1250.992661466</ele>
        <time>2015-07-05T09:05:36Z</time>
      </trkpt>
      <trkpt lat="45.33616" lon="5.75245">
        <ele>1250.180594971</ele>
        <time>2015-07-05T09:05:41Z</time>
      </trkpt>
      <trkpt lat="45.33633" lon="5.75243">
        <ele>1249.792083967</ele>
        <time>2015-07-05T09:05:51Z</time>
      </trkpt>
      <trkpt lat="45.3364" lon="5.75243">
        <ele>1249.792083967</ele>
        <time>2015-07-05T09:05:56Z</time>
      </trkpt>
      <trkpt lat="45.33652" lon="5.7525">
        <ele>1249.216853903</ele>
        <time>2015-07-05T09:06:06Z</time>
      </trkpt>
      <trkpt lat="45.33659" lon="5.7525">
        <ele>1249.216853903</ele>
        <time>2015-07-05T09:06:11Z</time>
      </trkpt>
      <trkpt lat="45.33677" lon="5.75246">
        <ele>1248.03416358</ele>
        <time>2015-07-05T09:06:21Z</time>
      </trkpt>
      <trkpt lat="45.33683" lon="5.75253">
        <ele>1248.03416358</ele>
        <time>2015-07-05T09:06:26Z</time>
      </trkpt>
      <trkpt lat="45.3369" lon="5.75261">
        <ele>1246.432394631</ele>
        <time>2015-07-05T09:06:30Z</time>
      </trkpt>
      <trkpt lat="45.33701" lon="5.75265">
        <ele>1244.875551989</ele>
        <time>2015-07-05T09:06:36Z</time>
      </trkpt>
      <trkpt lat="45.33709" lon="5.75266">
        <ele>1244.875551989</ele>
        <time>2015-07-05T09:06:41Z</time>
      </trkpt>
      <trkpt lat="45.3373" lon="5.75275">
        <ele>1243.793488403</ele>
        <time>2015-07-05T09:06:51Z</time>
      </trkpt>
      <trkpt lat="45.33734" lon="5.75281">
        <ele>1243.793488403</ele>
        <time>2015-07-05T09:06:56Z</time>
      </trkpt>
      <trkpt lat="45.33752" lon="5.75313">
        <ele>1243.006758099</ele>
        <time>2015-07-05T09:07:05Z</time>
      </trkpt>
      <trkpt lat="45.33762" lon="5.75321">
        <ele>1242.060097407</ele>
        <time>2015-07-05T09:07:11Z</time>
      </trkpt>
      <trkpt lat="45.33774" lon="5.75332">
        <ele>1241.252739466</ele>
        <time>2015-07-05T09:07:21Z</time>
      </trkpt>
      <trkpt lat="45.3378" lon="5.7535">
        <ele>1240.573371015</ele>
        <time>2015-07-05T09:07:26Z</time>
      </trkpt>
      <trkpt lat="45.33793" lon="5.7537">
        <ele>1240.011198962</ele>
        <time>2015-07-05T09:07:36Z</time>
      </trkpt>
      <trkpt lat="45.338" lon="5.75382">
        <ele>1239.700054332</ele>
        <time>2015-07-05T09:07:41Z</time>
      </trkpt>
      <trkpt lat="45.3381" lon="5.7539">
        <ele>1240.339729521</ele>
        <time>2015-07-05T09:07:51Z</time>
      </trkpt>
      <trkpt lat="45.33816" lon="5.75388">
        <ele>1240.339729521</ele>
        <time>2015-07-05T09:07:56Z</time>
      </trkpt>
      <trkpt lat="45.33819" lon="5.75392">
        <ele>1241.134888908</ele>
        <time>2015-07-05T09:08:06Z</time>
      </trkpt>
      <trkpt lat="45.33823" lon="5.75401">
        <ele>1241.134888908</ele>
        <time>2015-07-05T09:08:10Z</time>
      </trkpt>
      <trkpt lat="45.33837" lon="5.75418">
        <ele>1240.05124664</ele>
        <time>2015-07-05T09:08:26Z</time>
      </trkpt>
      <trkpt lat="45.33854" lon="5.75424">
        <ele>1238.523846286</ele>
        <time>2015-07-05T09:08:41Z</time>
      </trkpt>
      <trkpt lat="45.33859" lon="5.75432">
        <ele>1238.523846286</ele>
        <time>2015-07-05T09:08:46Z</time>
      </trkpt>
      <trkpt lat="45.33865" lon="5.75444">
        <ele>1237.451290393</ele>
        <time>2015-07-05T09:08:56Z</time>
      </trkpt>
      <trkpt lat="45.33868" lon="5.75451">
        <ele>1237.451290393</ele>
        <time>2015-07-05T09:09:01Z</time>
      </trkpt>
      <trkpt lat="45.3388" lon="5.75471">
        <ele>1235.503287191</ele>
        <time>2015-07-05T09:09:11Z</time>
      </trkpt>
      <trkpt lat="45.33886" lon="5.75479">
        <ele>1235.503287191</ele>
        <time>2015-07-05T09:09:16Z</time>
      </trkpt>
      <trkpt lat="45.33902" lon="5.75495">
        <ele>1233.755553675</ele>
        <time>2015-07-05T09:09:26Z</time>
      </trkpt>
      <trkpt lat="45.33906" lon="5.75502">
        <ele>1233.755553675</ele>
        <time>2015-07-05T09:09:32Z</time>
      </trkpt>
      <trkpt lat="45.33923" lon="5.7552">
        <ele>1231.763154185</ele>
        <time>2015-07-05T09:09:41Z</time>
      </trkpt>
      <trkpt lat="45.3393" lon="5.75532">
        <ele>1228.682221259</ele>
        <time>2015-07-05T09:09:46Z</time>
      </trkpt>
      <trkpt lat="45.33939" lon="5.75543">
        <ele>1225.607393203</ele>
        <time>2015-07-05T09:09:56Z</time>
      </trkpt>
      <trkpt lat="45.3394" lon="5.75545">
        <ele>1225.607393203</ele>
        <time>2015-07-05T09:10:01Z</time>
      </trkpt>
      <trkpt lat="45.33939" lon="5.75547">
        <ele>1225.607393203</ele>
        <time>2015-07-05T09:10:11Z</time>
      </trkpt>
      <trkpt lat="45.33942" lon="5.7555">
        <ele>1225.607393203</ele>
        <time>2015-07-05T09:10:16Z</time>
      </trkpt>
      <trkpt lat="45.33943" lon="5.75555">
        <ele>1221.247100614</ele>
        <time>2015-07-05T09:10:25Z</time>
      </trkpt>
      <trkpt lat="45.33943" lon="5.75555">
        <ele>1221.247100614</ele>
        <time>2015-07-05T09:10:30Z</time>
      </trkpt>
      <trkpt lat="45.33948" lon="5.7556">
        <ele>1221.247100614</ele>
        <time>2015-07-05T09:10:36Z</time>
      </trkpt>
      <trkpt lat="45.33953" lon="5.75574">
        <ele>1215.417013041</ele>
        <time>2015-07-05T09:10:46Z</time>
      </trkpt>
      <trkpt lat="45.33954" lon="5.7558">
        <ele>1215.417013041</ele>
        <time>2015-07-05T09:10:51Z</time>
      </trkpt>
      <trkpt lat="45.3395" lon="5.75595">
        <ele>1208.526856532</ele>
        <time>2015-07-05T09:11:01Z</time>
      </trkpt>
      <trkpt lat="45.33956" lon="5.75597">
        <ele>1208.526856532</ele>
        <time>2015-07-05T09:11:06Z</time>
      </trkpt>
      <trkpt lat="45.33964" lon="5.75599">
        <ele>1202.688482784</ele>
        <time>2015-07-05T09:11:16Z</time>
      </trkpt>
      <trkpt lat="45.33966" lon="5.75604">
        <ele>1202.688482784</ele>
        <time>2015-07-05T09:11:20Z</time>
      </trkpt>
      <trkpt lat="45.33967" lon="5.75604">
        <ele>1202.688482784</ele>
        <time>2015-07-05T09:11:25Z</time>
      </trkpt>
      <trkpt lat="45.33986" lon="5.75619">
        <ele>1196.108647497</ele>
        <time>2015-07-05T09:11:36Z</time>
      </trkpt>
      <trkpt lat="45.33993" lon="5.75626">
        <ele>1196.108647497</ele>
        <time>2015-07-05T09:11:41Z</time>
      </trkpt>
      <trkpt lat="45.34007" lon="5.75636">
        <ele>1191.162877194</ele>
        <time>2015-07-05T09:11:51Z</time>
      </trkpt>
      <trkpt lat="45.34013" lon="5.7564">
        <ele>1191.162877194</ele>
        <time>2015-07-05T09:11:56Z</time>
      </trkpt>
      <trkpt lat="45.34013" lon="5.75655">
        <ele>1185.14764701</ele>
        <time>2015-07-05T09:12:06Z</time>
      </trkpt>
      <trkpt lat="45.34017" lon="5.75662">
        <ele>1185.14764701</ele>
        <time>2015-07-05T09:12:11Z</time>
      </trkpt>
      <trkpt lat="45.34015" lon="5.75674">
        <ele>1178.154822333</ele>
        <time>2015-07-05T09:12:20Z</time>
      </trkpt>
      <trkpt lat="45.34016" lon="5.75677">
        <ele>1178.154822333</ele>
        <time>2015-07-05T09:12:26Z</time>
      </trkpt>
      <trkpt lat="45.34017" lon="5.7568">
        <ele>1178.154822333</ele>
        <time>2015-07-05T09:12:36Z</time>
      </trkpt>
      <trkpt lat="45.34018" lon="5.7568">
        <ele>1178.154822333</ele>
        <time>2015-07-05T09:12:41Z</time>
      </trkpt>
      <trkpt lat="45.34018" lon="5.75679">
        <ele>1178.154822333</ele>
        <time>2015-07-05T09:12:51Z</time>
      </trkpt>
      <trkpt lat="45.34018" lon="5.75679">
        <ele>1178.154822333</ele>
        <time>2015-07-05T09:12:56Z</time>
      </trkpt>
      <trkpt lat="45.34031" lon="5.75683">
        <ele>1171.857250541</ele>
        <time>2015-07-05T09:13:06Z</time>
      </trkpt>
      <trkpt lat="45.34034" lon="5.75691">
        <ele>1171.857250541</ele>
        <time>2015-07-05T09:13:11Z</time>
      </trkpt>
      <trkpt lat="45.34042" lon="5.75703">
        <ele>1165.641016908</ele>
        <time>2015-07-05T09:13:21Z</time>
      </trkpt>
      <trkpt lat="45.34048" lon="5.75708">
        <ele>1165.641016908</ele>
        <time>2015-07-05T09:13:26Z</time>
      </trkpt>
      <trkpt lat="45.34058" lon="5.75716">
        <ele>1160.522021001</ele>
        <time>2015-07-05T09:13:36Z</time>
      </trkpt>
      <trkpt lat="45.34066" lon="5.7572">
        <ele>1160.522021001</ele>
        <time>2015-07-05T09:13:41Z</time>
      </trkpt>
      <trkpt lat="45.34076" lon="5.75737">
        <ele>1156.429386111</ele>
        <time>2015-07-05T09:13:51Z</time>
      </trkpt>
      <trkpt lat="45.34082" lon="5.75742">
        <ele>1156.429386111</ele>
        <time>2015-07-05T09:13:56Z</time>
      </trkpt>
      <trkpt lat="45.34089" lon="5.75743">
        <ele>1152.285484197</ele>
        <time>2015-07-05T09:14:06Z</time>
      </trkpt>
      <trkpt lat="45.34089" lon="5.75745">
        <ele>1152.285484197</ele>
        <time>2015-07-05T09:14:11Z</time>
      </trkpt>
      <trkpt lat="45.34107" lon="5.7576">
        <ele>1148.388691419</ele>
        <time>2015-07-05T09:14:26Z</time>
      </trkpt>
      <trkpt lat="45.34111" lon="5.75764">
        <ele>1148.388691419</ele>
        <time>2015-07-05T09:14:30Z</time>
      </trkpt>
      <trkpt lat="45.34121" lon="5.75776">
        <ele>1144.149805796</ele>
        <time>2015-07-05T09:14:41Z</time>
      </trkpt>
      <trkpt lat="45.34126" lon="5.75784">
        <ele>1144.149805796</ele>
        <time>2015-07-05T09:14:46Z</time>
      </trkpt>
      <trkpt lat="45.34137" lon="5.75794">
        <ele>1140.464685373</ele>
        <time>2015-07-05T09:14:56Z</time>
      </trkpt>
      <trkpt lat="45.34142" lon="5.75795">
        <ele>1140.464685373</ele>
        <time>2015-07-05T09:15:01Z</time>
      </trkpt>
      <trkpt lat="45.34148" lon="5.75805">
        <ele>1136.576315166</ele>
        <time>2015-07-05T09:15:11Z</time>
      </trkpt>
      <trkpt lat="45.34155" lon="5.75811">
        <ele>1136.576315166</ele>
        <time>2015-07-05T09:15:16Z</time>
      </trkpt>
      <trkpt lat="45.34155" lon="5.75817">
        <ele>1133.224692457</ele>
        <time>2015-07-05T09:15:26Z</time>
      </trkpt>
      <trkpt lat="45.34157" lon="5.75821">
        <ele>1133.224692457</ele>
        <time>2015-07-05T09:15:31Z</time>
      </trkpt>
      <trkpt lat="45.34172" lon="5.75834">
        <ele>1131.093680938</ele>
        <time>2015-07-05T09:15:41Z</time>
      </trkpt>
      <trkpt lat="45.34174" lon="5.75843">
        <ele>1131.093680938</ele>
        <time>2015-07-05T09:15:46Z</time>
      </trkpt>
      <trkpt lat="45.34184" lon="5.75848">
        <ele>1128.219227926</ele>
        <time>2015-07-05T09:15:56Z</time>
      </trkpt>
      <trkpt lat="45.34189" lon="5.75855">
        <ele>1128.219227926</ele>
        <time>2015-07-05T09:16:01Z</time>
      </trkpt>
      <trkpt lat="45.34192" lon="5.75858">
        <ele>1125.377405718</ele>
        <time>2015-07-05T09:16:05Z</time>
      </trkpt>
      <trkpt lat="45.34192" lon="5.75859">
        <ele>1125.377405718</ele>
        <time>2015-07-05T09:16:11Z</time>
      </trkpt>
      <trkpt lat="45.34199" lon="5.75866">
        <ele>1122.710517637</ele>
        <time>2015-07-05T09:16:16Z</time>
      </trkpt>
      <trkpt lat="45.34214" lon="5.75878">
        <ele>1120.63793981</ele>
        <time>2015-07-05T09:16:26Z</time>
      </trkpt>
      <trkpt lat="45.34215" lon="5.75882">
        <ele>1120.63793981</ele>
        <time>2015-07-05T09:16:31Z</time>
      </trkpt>
      <trkpt lat="45.34223" lon="5.7588">
        <ele>1119.978721893</ele>
        <time>2015-07-05T09:16:40Z</time>
      </trkpt>
      <trkpt lat="45.34221" lon="5.7588">
        <ele>1119.978721893</ele>
        <time>2015-07-05T09:16:46Z</time>
      </trkpt>
      <trkpt lat="45.3421" lon="5.75883">
        <ele>1119.181839416</ele>
        <time>2015-07-05T09:16:56Z</time>
      </trkpt>
      <trkpt lat="45.34218" lon="5.75889">
        <ele>1119.181839416</ele>
        <time>2015-07-05T09:17:01Z</time>
      </trkpt>
      <trkpt lat="45.34218" lon="5.75887">
        <ele>1119.692678322</ele>
        <time>2015-07-05T09:17:11Z</time>
      </trkpt>
      <trkpt lat="45.34215" lon="5.75887">
        <ele>1119.692678322</ele>
        <time>2015-07-05T09:17:16Z</time>
      </trkpt>
      <trkpt lat="45.34216" lon="5.75891">
        <ele>1119.692678322</ele>
        <time>2015-07-05T09:17:31Z</time>
      </trkpt>
      <trkpt lat="45.34216" lon="5.75892">
        <ele>1119.692678322</ele>
        <time>2015-07-05T09:17:35Z</time>
      </trkpt>
      <trkpt lat="45.34216" lon="5.75891">
        <ele>1119.692678322</ele>
        <time>2015-07-05T09:17:46Z</time>
      </trkpt>
      <trkpt lat="45.34216" lon="5.75891">
        <ele>1119.692678322</ele>
        <time>2015-07-05T09:17:50Z</time>
      </trkpt>
      <trkpt lat="45.34216" lon="5.75892">
        <ele>1119.692678322</ele>
        <time>2015-07-05T09:18:01Z</time>
      </trkpt>
      <trkpt lat="45.34216" lon="5.75892">
        <ele>1119.692678322</ele>
        <time>2015-07-05T09:18:06Z</time>
      </trkpt>
      <trkpt lat="45.34216" lon="5.75892">
        <ele>1119.692678322</ele>
        <time>2015-07-05T09:18:16Z</time>
      </trkpt>
      <trkpt lat="45.34217" lon="5.75892">
        <ele>1119.692678322</ele>
        <time>2015-07-05T09:18:21Z</time>
      </trkpt>
      <trkpt lat="45.34217" lon="5.75893">
        <ele>1119.692678322</ele>
        <time>2015-07-05T09:18:31Z</time>
      </trkpt>
      <trkpt lat="45.34217" lon="5.75893">
        <ele>1119.692678322</ele>
        <time>2015-07-05T09:18:36Z</time>
      </trkpt>
      <trkpt lat="45.34217" lon="5.75893">
        <ele>1119.692678322</ele>
        <time>2015-07-05T09:18:46Z</time>
      </trkpt>
      <trkpt lat="45.34217" lon="5.75893">
        <ele>1119.692678322</ele>
        <time>2015-07-05T09:18:51Z</time>
      </trkpt>
      <trkpt lat="45.34217" lon="5.75893">
        <ele>1119.692678322</ele>
        <time>2015-07-05T09:19:01Z</time>
      </trkpt>
      <trkpt lat="45.34217" lon="5.75893">
        <ele>1119.692678322</ele>
        <time>2015-07-05T09:19:06Z</time>
      </trkpt>
      <trkpt lat="45.34217" lon="5.75893">
        <ele>1119.692678322</ele>
        <time>2015-07-05T09:19:16Z</time>
      </trkpt>
      <trkpt lat="45.34217" lon="5.75893">
        <ele>1119.692678322</ele>
        <time>2015-07-05T09:19:21Z</time>
      </trkpt>
      <trkpt lat="45.34217" lon="5.75893">
        <ele>1119.692678322</ele>
        <time>2015-07-05T09:19:36Z</time>
      </trkpt>
      <trkpt lat="45.34217" lon="5.75893">
        <ele>1119.692678322</ele>
        <time>2015-07-05T09:19:41Z</time>
      </trkpt>
      <trkpt lat="45.34217" lon="5.75894">
        <ele>1119.692678322</ele>
        <time>2015-07-05T09:19:51Z</time>
      </trkpt>
      <trkpt lat="45.34217" lon="5.75894">
        <ele>1119.692678322</ele>
        <time>2015-07-05T09:19:56Z</time>
      </trkpt>
      <trkpt lat="45.34217" lon="5.75894">
        <ele>1119.692678322</ele>
        <time>2015-07-05T09:20:06Z</time>
      </trkpt>
      <trkpt lat="45.34217" lon="5.75894">
        <ele>1119.692678322</ele>
        <time>2015-07-05T09:20:11Z</time>
      </trkpt>
      <trkpt lat="45.34217" lon="5.75894">
        <ele>1121.98200909</ele>
        <time>2015-07-05T09:20:21Z</time>
      </trkpt>
      <trkpt lat="45.34217" lon="5.75894">
        <ele>1121.98200909</ele>
        <time>2015-07-05T09:20:26Z</time>
      </trkpt>
      <trkpt lat="45.34205" lon="5.7596">
        <ele>1123.022295789</ele>
        <time>2015-07-05T09:20:36Z</time>
      </trkpt>
      <trkpt lat="45.34207" lon="5.75956">
        <ele>1123.022295789</ele>
        <time>2015-07-05T09:20:41Z</time>
      </trkpt>
      <trkpt lat="45.342" lon="5.75954">
        <ele>1126.064551099</ele>
        <time>2015-07-05T09:20:51Z</time>
      </trkpt>
      <trkpt lat="45.34203" lon="5.75956">
        <ele>1126.064551099</ele>
        <time>2015-07-05T09:20:55Z</time>
      </trkpt>
      <trkpt lat="45.34206" lon="5.75957">
        <ele>1126.064551099</ele>
        <time>2015-07-05T09:21:05Z</time>
      </trkpt>
      <trkpt lat="45.34206" lon="5.75957">
        <ele>1126.064551099</ele>
        <time>2015-07-05T09:21:11Z</time>
      </trkpt>
      <trkpt lat="45.34207" lon="5.75958">
        <ele>1126.064551099</ele>
        <time>2015-07-05T09:21:26Z</time>
      </trkpt>
      <trkpt lat="45.34223" lon="5.75967">
        <ele>1130.512595779</ele>
        <time>2015-07-05T09:21:41Z</time>
      </trkpt>
      <trkpt lat="45.34221" lon="5.75968">
        <ele>1130.512595779</ele>
        <time>2015-07-05T09:21:46Z</time>
      </trkpt>
      <trkpt lat="45.34222" lon="5.75969">
        <ele>1130.512595779</ele>
        <time>2015-07-05T09:21:56Z</time>
      </trkpt>
      <trkpt lat="45.34222" lon="5.75969">
        <ele>1130.512595779</ele>
        <time>2015-07-05T09:22:01Z</time>
      </trkpt>
      <trkpt lat="45.34223" lon="5.75976">
        <ele>1130.512595779</ele>
        <time>2015-07-05T09:22:11Z</time>
      </trkpt>
      <trkpt lat="45.34222" lon="5.75974">
        <ele>1133.936724313</ele>
        <time>2015-07-05T09:22:16Z</time>
      </trkpt>
      <trkpt lat="45.34221" lon="5.75976">
        <ele>1133.936724313</ele>
        <time>2015-07-05T09:22:26Z</time>
      </trkpt>
      <trkpt lat="45.34221" lon="5.75976">
        <ele>1133.936724313</ele>
        <time>2015-07-05T09:22:31Z</time>
      </trkpt>
      <trkpt lat="45.34221" lon="5.75978">
        <ele>1133.936724313</ele>
        <time>2015-07-05T09:22:41Z</time>
      </trkpt>
      <trkpt lat="45.34221" lon="5.75978">
        <ele>1133.936724313</ele>
        <time>2015-07-05T09:22:46Z</time>
      </trkpt>
      <trkpt lat="45.34221" lon="5.75978">
        <ele>1133.936724313</ele>
        <time>2015-07-05T09:22:56Z</time>
      </trkpt>
      <trkpt lat="45.34214" lon="5.75995">
        <ele>1136.826813897</ele>
        <time>2015-07-05T09:23:01Z</time>
      </trkpt>
      <trkpt lat="45.34217" lon="5.76003">
        <ele>1136.826813897</ele>
        <time>2015-07-05T09:23:11Z</time>
      </trkpt>
      <trkpt lat="45.34216" lon="5.76004">
        <ele>1136.826813897</ele>
        <time>2015-07-05T09:23:16Z</time>
      </trkpt>
      <trkpt lat="45.34215" lon="5.76005">
        <ele>1136.826813897</ele>
        <time>2015-07-05T09:23:26Z</time>
      </trkpt>
      <trkpt lat="45.34215" lon="5.76005">
        <ele>1139.061966092</ele>
        <time>2015-07-05T09:23:31Z</time>
      </trkpt>
      <trkpt lat="45.34215" lon="5.76005">
        <ele>1139.061966092</ele>
        <time>2015-07-05T09:23:36Z</time>
      </trkpt>
      <trkpt lat="45.34215" lon="5.76004">
        <ele>1139.061966092</ele>
        <time>2015-07-05T09:23:46Z</time>
      </trkpt>
      <trkpt lat="45.34215" lon="5.76005">
        <ele>1139.061966092</ele>
        <time>2015-07-05T09:23:51Z</time>
      </trkpt>
      <trkpt lat="45.34215" lon="5.76005">
        <ele>1139.061966092</ele>
        <time>2015-07-05T09:24:01Z</time>
      </trkpt>
      <trkpt lat="45.34215" lon="5.76005">
        <ele>1139.061966092</ele>
        <time>2015-07-05T09:24:06Z</time>
      </trkpt>
      <trkpt lat="45.34215" lon="5.76005">
        <ele>1139.061966092</ele>
        <time>2015-07-05T09:24:16Z</time>
      </trkpt>
      <trkpt lat="45.34215" lon="5.76005">
        <ele>1139.061966092</ele>
        <time>2015-07-05T09:24:20Z</time>
      </trkpt>
      <trkpt lat="45.34215" lon="5.76005">
        <ele>1139.061966092</ele>
        <time>2015-07-05T09:24:30Z</time>
      </trkpt>
      <trkpt lat="45.34215" lon="5.76005">
        <ele>1139.061966092</ele>
        <time>2015-07-05T09:24:36Z</time>
      </trkpt>
      <trkpt lat="45.34215" lon="5.76006">
        <ele>1139.061966092</ele>
        <time>2015-07-05T09:24:46Z</time>
      </trkpt>
      <trkpt lat="45.34215" lon="5.76006">
        <ele>1139.061966092</ele>
        <time>2015-07-05T09:24:51Z</time>
      </trkpt>
      <trkpt lat="45.34215" lon="5.76006">
        <ele>1139.061966092</ele>
        <time>2015-07-05T09:25:01Z</time>
      </trkpt>
      <trkpt lat="45.34223" lon="5.76013">
        <ele>1140.820417042</ele>
        <time>2015-07-05T09:25:06Z</time>
      </trkpt>
      <trkpt lat="45.34244" lon="5.7606">
        <ele>1142.701203588</ele>
        <time>2015-07-05T09:25:21Z</time>
      </trkpt>
      <trkpt lat="45.34255" lon="5.76084">
        <ele>1143.674036577</ele>
        <time>2015-07-05T09:25:31Z</time>
      </trkpt>
      <trkpt lat="45.34256" lon="5.76094">
        <ele>1143.674036577</ele>
        <time>2015-07-05T09:25:36Z</time>
      </trkpt>
      <trkpt lat="45.3426" lon="5.76102">
        <ele>1143.507673803</ele>
        <time>2015-07-05T09:25:41Z</time>
      </trkpt>
      <trkpt lat="45.34279" lon="5.76125">
        <ele>1143.576547577</ele>
        <time>2015-07-05T09:25:51Z</time>
      </trkpt>
      <trkpt lat="45.34286" lon="5.76134">
        <ele>1143.280292693</ele>
        <time>2015-07-05T09:25:56Z</time>
      </trkpt>
      <trkpt lat="45.34281" lon="5.7613">
        <ele>1143.280292693</ele>
        <time>2015-07-05T09:26:06Z</time>
      </trkpt>
      <trkpt lat="45.34273" lon="5.76133">
        <ele>1139.75815793</ele>
        <time>2015-07-05T09:26:11Z</time>
      </trkpt>
      <trkpt lat="45.34257" lon="5.76145">
        <ele>1135.556844291</ele>
        <time>2015-07-05T09:26:21Z</time>
      </trkpt>
      <trkpt lat="45.34254" lon="5.76143">
        <ele>1135.556844291</ele>
        <time>2015-07-05T09:26:26Z</time>
      </trkpt>
      <trkpt lat="45.34237" lon="5.76148">
        <ele>1130.444105995</ele>
        <time>2015-07-05T09:26:36Z</time>
      </trkpt>
      <trkpt lat="45.34238" lon="5.76139">
        <ele>1130.444105995</ele>
        <time>2015-07-05T09:26:41Z</time>
      </trkpt>
      <trkpt lat="45.34222" lon="5.76143">
        <ele>1127.954405724</ele>
        <time>2015-07-05T09:26:51Z</time>
      </trkpt>
      <trkpt lat="45.34231" lon="5.76153">
        <ele>1125.302709618</ele>
        <time>2015-07-05T09:26:56Z</time>
      </trkpt>
      <trkpt lat="45.34241" lon="5.76176">
        <ele>1122.35905888</ele>
        <time>2015-07-05T09:27:06Z</time>
      </trkpt>
      <trkpt lat="45.3425" lon="5.76191">
        <ele>1119.724538936</ele>
        <time>2015-07-05T09:27:11Z</time>
      </trkpt>
      <trkpt lat="45.34276" lon="5.76209">
        <ele>1115.217203007</ele>
        <time>2015-07-05T09:27:26Z</time>
      </trkpt>
      <trkpt lat="45.34282" lon="5.76212">
        <ele>1115.217203007</ele>
        <time>2015-07-05T09:27:30Z</time>
      </trkpt>
      <trkpt lat="45.34296" lon="5.76236">
        <ele>1110.27939086</ele>
        <time>2015-07-05T09:27:42Z</time>
      </trkpt>
      <trkpt lat="45.34304" lon="5.76244">
        <ele>1105.816418909</ele>
        <time>2015-07-05T09:27:46Z</time>
      </trkpt>
      <trkpt lat="45.34315" lon="5.76266">
        <ele>1101.512908266</ele>
        <time>2015-07-05T09:27:56Z</time>
      </trkpt>
      <trkpt lat="45.34324" lon="5.76273">
        <ele>1097.652649609</ele>
        <time>2015-07-05T09:28:01Z</time>
      </trkpt>
      <trkpt lat="45.3434" lon="5.76291">
        <ele>1094.209103941</ele>
        <time>2015-07-05T09:28:11Z</time>
      </trkpt>
      <trkpt lat="45.34345" lon="5.76295">
        <ele>1094.209103941</ele>
        <time>2015-07-05T09:28:16Z</time>
      </trkpt>
      <trkpt lat="45.34362" lon="5.76308">
        <ele>1089.715365153</ele>
        <time>2015-07-05T09:28:26Z</time>
      </trkpt>
      <trkpt lat="45.34365" lon="5.76317">
        <ele>1089.715365153</ele>
        <time>2015-07-05T09:28:31Z</time>
      </trkpt>
      <trkpt lat="45.34385" lon="5.76345">
        <ele>1084.97684532</ele>
        <time>2015-07-05T09:28:41Z</time>
      </trkpt>
      <trkpt lat="45.34388" lon="5.76357">
        <ele>1080.452185614</ele>
        <time>2015-07-05T09:28:46Z</time>
      </trkpt>
      <trkpt lat="45.3441" lon="5.76396">
        <ele>1074.115755675</ele>
        <time>2015-07-05T09:29:01Z</time>
      </trkpt>
      <trkpt lat="45.34413" lon="5.764">
        <ele>1074.115755675</ele>
        <time>2015-07-05T09:29:06Z</time>
      </trkpt>
      <trkpt lat="45.34414" lon="5.76424">
        <ele>1065.104470384</ele>
        <time>2015-07-05T09:29:17Z</time>
      </trkpt>
      <trkpt lat="45.34419" lon="5.76426">
        <ele>1065.104470384</ele>
        <time>2015-07-05T09:29:21Z</time>
      </trkpt>
      <trkpt lat="45.34431" lon="5.76441">
        <ele>1054.931778</ele>
        <time>2015-07-05T09:29:31Z</time>
      </trkpt>
      <trkpt lat="45.3444" lon="5.76449">
        <ele>1045.291239294</ele>
        <time>2015-07-05T09:29:36Z</time>
      </trkpt>
      <trkpt lat="45.3445" lon="5.76477">
        <ele>1036.309166861</ele>
        <time>2015-07-05T09:29:46Z</time>
      </trkpt>
      <trkpt lat="45.34456" lon="5.7649">
        <ele>1027.524022597</ele>
        <time>2015-07-05T09:29:51Z</time>
      </trkpt>
      <trkpt lat="45.34465" lon="5.76509">
        <ele>1018.651412328</ele>
        <time>2015-07-05T09:30:01Z</time>
      </trkpt>
      <trkpt lat="45.34468" lon="5.76517">
        <ele>1018.651412328</ele>
        <time>2015-07-05T09:30:06Z</time>
      </trkpt>
      <trkpt lat="45.34473" lon="5.76509">
        <ele>1011.445285939</ele>
        <time>2015-07-05T09:30:16Z</time>
      </trkpt>
      <trkpt lat="45.34474" lon="5.76499">
        <ele>1011.445285939</ele>
        <time>2015-07-05T09:30:21Z</time>
      </trkpt>
      <trkpt lat="45.3448" lon="5.76478">
        <ele>1006.372816248</ele>
        <time>2015-07-05T09:30:31Z</time>
      </trkpt>
      <trkpt lat="45.34484" lon="5.76476">
        <ele>1006.372816248</ele>
        <time>2015-07-05T09:30:35Z</time>
      </trkpt>
      <trkpt lat="45.34491" lon="5.76502">
        <ele>1003.139940457</ele>
        <time>2015-07-05T09:30:46Z</time>
      </trkpt>
      <trkpt lat="45.34495" lon="5.76511">
        <ele>1003.139940457</ele>
        <time>2015-07-05T09:30:51Z</time>
      </trkpt>
      <trkpt lat="45.34501" lon="5.76542">
        <ele>999.739330944</ele>
        <time>2015-07-05T09:31:01Z</time>
      </trkpt>
      <trkpt lat="45.34501" lon="5.76562">
        <ele>996.761121381</ele>
        <time>2015-07-05T09:31:06Z</time>
      </trkpt>
      <trkpt lat="45.34501" lon="5.76607">
        <ele>993.309463324</ele>
        <time>2015-07-05T09:31:20Z</time>
      </trkpt>
      <trkpt lat="45.34495" lon="5.76647">
        <ele>989.41999994</ele>
        <time>2015-07-05T09:31:36Z</time>
      </trkpt>
      <trkpt lat="45.34467" lon="5.76662">
        <ele>985.270803751</ele>
        <time>2015-07-05T09:31:51Z</time>
      </trkpt>
      <trkpt lat="45.34464" lon="5.76662">
        <ele>985.270803751</ele>
        <time>2015-07-05T09:31:55Z</time>
      </trkpt>
      <trkpt lat="45.34465" lon="5.76663">
        <ele>985.270803751</ele>
        <time>2015-07-05T09:32:00Z</time>
      </trkpt>
      <trkpt lat="45.34466" lon="5.76662">
        <ele>985.270803751</ele>
        <time>2015-07-05T09:32:05Z</time>
      </trkpt>
      <trkpt lat="45.34465" lon="5.76662">
        <ele>985.270803751</ele>
        <time>2015-07-05T09:32:10Z</time>
      </trkpt>
      <trkpt lat="45.34459" lon="5.76663">
        <ele>983.621326588</ele>
        <time>2015-07-05T09:32:15Z</time>
      </trkpt>
      <trkpt lat="45.34452" lon="5.76671">
        <ele>983.621326588</ele>
        <time>2015-07-05T09:32:20Z</time>
      </trkpt>
      <trkpt lat="45.34454" lon="5.76678">
        <ele>982.553608621</ele>
        <time>2015-07-05T09:32:25Z</time>
      </trkpt>
      <trkpt lat="45.34451" lon="5.76717">
        <ele>980.14461897</ele>
        <time>2015-07-05T09:32:41Z</time>
      </trkpt>
      <trkpt lat="45.34452" lon="5.76731">
        <ele>977.498385011</ele>
        <time>2015-07-05T09:32:46Z</time>
      </trkpt>
      <trkpt lat="45.34445" lon="5.76761">
        <ele>973.04432944</ele>
        <time>2015-07-05T09:32:56Z</time>
      </trkpt>
      <trkpt lat="45.34444" lon="5.76771">
        <ele>973.04432944</ele>
        <time>2015-07-05T09:33:01Z</time>
      </trkpt>
      <trkpt lat="45.34458" lon="5.76799">
        <ele>970.087841466</ele>
        <time>2015-07-05T09:33:11Z</time>
      </trkpt>
      <trkpt lat="45.34466" lon="5.76812">
        <ele>967.507942651</ele>
        <time>2015-07-05T09:33:16Z</time>
      </trkpt>
      <trkpt lat="45.34478" lon="5.76835">
        <ele>964.553050654</ele>
        <time>2015-07-05T09:33:26Z</time>
      </trkpt>
      <trkpt lat="45.34475" lon="5.7685">
        <ele>961.392410913</ele>
        <time>2015-07-05T09:33:31Z</time>
      </trkpt>
      <trkpt lat="45.34448" lon="5.76863">
        <ele>957.606880834</ele>
        <time>2015-07-05T09:33:41Z</time>
      </trkpt>
      <trkpt lat="45.34437" lon="5.76866">
        <ele>954.106785702</ele>
        <time>2015-07-05T09:33:46Z</time>
      </trkpt>
      <trkpt lat="45.3441" lon="5.76868">
        <ele>950.005377242</ele>
        <time>2015-07-05T09:33:56Z</time>
      </trkpt>
      <trkpt lat="45.34399" lon="5.76878">
        <ele>946.067896799</ele>
        <time>2015-07-05T09:34:01Z</time>
      </trkpt>
      <trkpt lat="45.34397" lon="5.76905">
        <ele>939.976518513</ele>
        <time>2015-07-05T09:34:11Z</time>
      </trkpt>
      <trkpt lat="45.34399" lon="5.76915">
        <ele>939.976518513</ele>
        <time>2015-07-05T09:34:16Z</time>
      </trkpt>
      <trkpt lat="45.34401" lon="5.76969">
        <ele>932.615996712</ele>
        <time>2015-07-05T09:34:31Z</time>
      </trkpt>
      <trkpt lat="45.34394" lon="5.76986">
        <ele>925.962470121</ele>
        <time>2015-07-05T09:34:36Z</time>
      </trkpt>
      <trkpt lat="45.34372" lon="5.77007">
        <ele>920.980178514</ele>
        <time>2015-07-05T09:34:46Z</time>
      </trkpt>
      <trkpt lat="45.34359" lon="5.77016">
        <ele>916.540191269</ele>
        <time>2015-07-05T09:34:51Z</time>
      </trkpt>
      <trkpt lat="45.3434" lon="5.7704">
        <ele>913.324224183</ele>
        <time>2015-07-05T09:35:01Z</time>
      </trkpt>
      <trkpt lat="45.34331" lon="5.77045">
        <ele>909.654608632</ele>
        <time>2015-07-05T09:35:06Z</time>
      </trkpt>
      <trkpt lat="45.34313" lon="5.7706">
        <ele>904.410434901</ele>
        <time>2015-07-05T09:35:16Z</time>
      </trkpt>
      <trkpt lat="45.34304" lon="5.77063">
        <ele>904.410434901</ele>
        <time>2015-07-05T09:35:21Z</time>
      </trkpt>
      <trkpt lat="45.34283" lon="5.77086">
        <ele>898.575025059</ele>
        <time>2015-07-05T09:35:31Z</time>
      </trkpt>
      <trkpt lat="45.34273" lon="5.77096">
        <ele>893.205155822</ele>
        <time>2015-07-05T09:35:36Z</time>
      </trkpt>
      <trkpt lat="45.34257" lon="5.77127">
        <ele>888.26980737</ele>
        <time>2015-07-05T09:35:46Z</time>
      </trkpt>
      <trkpt lat="45.34249" lon="5.77145">
        <ele>883.018378277</ele>
        <time>2015-07-05T09:35:51Z</time>
      </trkpt>
      <trkpt lat="45.34239" lon="5.77163">
        <ele>876.90031449</ele>
        <time>2015-07-05T09:36:01Z</time>
      </trkpt>
      <trkpt lat="45.34233" lon="5.77174">
        <ele>869.696064226</ele>
        <time>2015-07-05T09:36:06Z</time>
      </trkpt>
      <trkpt lat="45.34235" lon="5.77175">
        <ele>869.696064226</ele>
        <time>2015-07-05T09:36:16Z</time>
      </trkpt>
      <trkpt lat="45.34236" lon="5.77177">
        <ele>869.696064226</ele>
        <time>2015-07-05T09:36:21Z</time>
      </trkpt>
      <trkpt lat="45.34231" lon="5.77184">
        <ele>861.781591801</ele>
        <time>2015-07-05T09:36:31Z</time>
      </trkpt>
      <trkpt lat="45.34229" lon="5.77193">
        <ele>861.781591801</ele>
        <time>2015-07-05T09:36:36Z</time>
      </trkpt>
      <trkpt lat="45.34223" lon="5.77232">
        <ele>852.930672189</ele>
        <time>2015-07-05T09:36:46Z</time>
      </trkpt>
      <trkpt lat="45.34221" lon="5.77253">
        <ele>845.241967793</ele>
        <time>2015-07-05T09:36:51Z</time>
      </trkpt>
      <trkpt lat="45.34223" lon="5.77263">
        <ele>845.241967793</ele>
        <time>2015-07-05T09:36:55Z</time>
      </trkpt>
      <trkpt lat="45.34234" lon="5.77281">
        <ele>841.088898024</ele>
        <time>2015-07-05T09:37:00Z</time>
      </trkpt>
      <trkpt lat="45.34242" lon="5.77295">
        <ele>839.201792845</ele>
        <time>2015-07-05T09:37:05Z</time>
      </trkpt>
      <trkpt lat="45.34256" lon="5.77307">
        <ele>839.406532322</ele>
        <time>2015-07-05T09:37:11Z</time>
      </trkpt>
      <trkpt lat="45.34269" lon="5.77341">
        <ele>840.815252665</ele>
        <time>2015-07-05T09:37:21Z</time>
      </trkpt>
      <trkpt lat="45.34262" lon="5.77351">
        <ele>842.745979393</ele>
        <time>2015-07-05T09:37:26Z</time>
      </trkpt>
      <trkpt lat="45.3422" lon="5.77357">
        <ele>843.556576175</ele>
        <time>2015-07-05T09:37:41Z</time>
      </trkpt>
      <trkpt lat="45.34167" lon="5.7738">
        <ele>843.890379898</ele>
        <time>2015-07-05T09:37:56Z</time>
      </trkpt>
      <trkpt lat="45.34149" lon="5.77381">
        <ele>845.065441828</ele>
        <time>2015-07-05T09:38:01Z</time>
      </trkpt>
      <trkpt lat="45.34134" lon="5.7737">
        <ele>847.147864267</ele>
        <time>2015-07-05T09:38:05Z</time>
      </trkpt>
      <trkpt lat="45.34122" lon="5.77364">
        <ele>849.764179566</ele>
        <time>2015-07-05T09:38:10Z</time>
      </trkpt>
      <trkpt lat="45.34102" lon="5.77361">
        <ele>852.711174757</ele>
        <time>2015-07-05T09:38:15Z</time>
      </trkpt>
      <trkpt lat="45.34085" lon="5.77358">
        <ele>855.94399773</ele>
        <time>2015-07-05T09:38:20Z</time>
      </trkpt>
      <trkpt lat="45.34069" lon="5.77353">
        <ele>859.852915712</ele>
        <time>2015-07-05T09:38:25Z</time>
      </trkpt>
      <trkpt lat="45.34056" lon="5.77362">
        <ele>864.221521584</ele>
        <time>2015-07-05T09:38:31Z</time>
      </trkpt>
      <trkpt lat="45.34025" lon="5.77365">
        <ele>867.839613742</ele>
        <time>2015-07-05T09:38:41Z</time>
      </trkpt>
      <trkpt lat="45.34019" lon="5.77377">
        <ele>870.74129868</ele>
        <time>2015-07-05T09:38:46Z</time>
      </trkpt>
      <trkpt lat="45.34048" lon="5.77433">
        <ele>871.80773916</ele>
        <time>2015-07-05T09:39:01Z</time>
      </trkpt>
      <trkpt lat="45.34093" lon="5.77482">
        <ele>873.466566132</ele>
        <time>2015-07-05T09:39:16Z</time>
      </trkpt>
      <trkpt lat="45.34103" lon="5.77495">
        <ele>875.660114219</ele>
        <time>2015-07-05T09:39:21Z</time>
      </trkpt>
      <trkpt lat="45.34128" lon="5.77523">
        <ele>878.333940024</ele>
        <time>2015-07-05T09:39:31Z</time>
      </trkpt>
      <trkpt lat="45.34135" lon="5.77532">
        <ele>881.148523804</ele>
        <time>2015-07-05T09:39:36Z</time>
      </trkpt>
      <trkpt lat="45.34154" lon="5.77555">
        <ele>884.509951477</ele>
        <time>2015-07-05T09:39:46Z</time>
      </trkpt>
      <trkpt lat="45.34163" lon="5.77567">
        <ele>888.072902651</ele>
        <time>2015-07-05T09:39:51Z</time>
      </trkpt>
      <trkpt lat="45.34184" lon="5.77592">
        <ele>891.949717691</ele>
        <time>2015-07-05T09:40:01Z</time>
      </trkpt>
      <trkpt lat="45.34195" lon="5.77602">
        <ele>895.955918286</ele>
        <time>2015-07-05T09:40:05Z</time>
      </trkpt>
      <trkpt lat="45.34218" lon="5.77623">
        <ele>900.20898473</ele>
        <time>2015-07-05T09:40:15Z</time>
      </trkpt>
      <trkpt lat="45.34231" lon="5.77636">
        <ele>904.241187247</ele>
        <time>2015-07-05T09:40:21Z</time>
      </trkpt>
      <trkpt lat="45.34258" lon="5.77653">
        <ele>907.764450308</ele>
        <time>2015-07-05T09:40:31Z</time>
      </trkpt>
      <trkpt lat="45.34273" lon="5.77664">
        <ele>910.369744007</ele>
        <time>2015-07-05T09:40:36Z</time>
      </trkpt>
      <trkpt lat="45.34313" lon="5.77672">
        <ele>911.537112791</ele>
        <time>2015-07-05T09:40:46Z</time>
      </trkpt>
      <trkpt lat="45.3433" lon="5.77673">
        <ele>911.798159883</ele>
        <time>2015-07-05T09:40:51Z</time>
      </trkpt>
      <trkpt lat="45.34371" lon="5.77671">
        <ele>910.927953619</ele>
        <time>2015-07-05T09:41:01Z</time>
      </trkpt>
      <trkpt lat="45.34386" lon="5.77672">
        <ele>909.730537544</ele>
        <time>2015-07-05T09:41:06Z</time>
      </trkpt>
      <trkpt lat="45.34416" lon="5.7767">
        <ele>909.240497021</ele>
        <time>2015-07-05T09:41:16Z</time>
      </trkpt>
      <trkpt lat="45.34431" lon="5.7768">
        <ele>908.253194659</ele>
        <time>2015-07-05T09:41:21Z</time>
      </trkpt>
      <trkpt lat="45.3443" lon="5.77738">
        <ele>907.383606533</ele>
        <time>2015-07-05T09:41:36Z</time>
      </trkpt>
      <trkpt lat="45.3439" lon="5.77775">
        <ele>906.336893024</ele>
        <time>2015-07-05T09:41:51Z</time>
      </trkpt>
      <trkpt lat="45.34376" lon="5.77779">
        <ele>905.128915858</ele>
        <time>2015-07-05T09:41:56Z</time>
      </trkpt>
      <trkpt lat="45.34351" lon="5.77799">
        <ele>903.775113735</ele>
        <time>2015-07-05T09:42:06Z</time>
      </trkpt>
      <trkpt lat="45.34346" lon="5.77815">
        <ele>901.714011566</ele>
        <time>2015-07-05T09:42:11Z</time>
      </trkpt>
      <trkpt lat="45.34361" lon="5.77864">
        <ele>897.995249735</ele>
        <time>2015-07-05T09:42:21Z</time>
      </trkpt>
      <trkpt lat="45.34373" lon="5.77878">
        <ele>894.193001757</ele>
        <time>2015-07-05T09:42:25Z</time>
      </trkpt>
      <trkpt lat="45.34403" lon="5.77913">
        <ele>891.045621356</ele>
        <time>2015-07-05T09:42:36Z</time>
      </trkpt>
      <trkpt lat="45.34398" lon="5.77939">
        <ele>887.794372582</ele>
        <time>2015-07-05T09:42:41Z</time>
      </trkpt>
      <trkpt lat="45.34384" lon="5.77991">
        <ele>884.313049623</ele>
        <time>2015-07-05T09:42:51Z</time>
      </trkpt>
      <trkpt lat="45.34387" lon="5.78012">
        <ele>881.782386295</ele>
        <time>2015-07-05T09:42:56Z</time>
      </trkpt>
      <trkpt lat="45.34394" lon="5.78059">
        <ele>879.132037501</ele>
        <time>2015-07-05T09:43:06Z</time>
      </trkpt>
      <trkpt lat="45.34401" lon="5.78073">
        <ele>877.099919763</ele>
        <time>2015-07-05T09:43:10Z</time>
      </trkpt>
      <trkpt lat="45.34424" lon="5.78109">
        <ele>874.638616323</ele>
        <time>2015-07-05T09:43:21Z</time>
      </trkpt>
      <trkpt lat="45.34436" lon="5.78122">
        <ele>872.652225666</ele>
        <time>2015-07-05T09:43:26Z</time>
      </trkpt>
      <trkpt lat="45.34453" lon="5.78164">
        <ele>870.968229271</ele>
        <time>2015-07-05T09:43:36Z</time>
      </trkpt>
      <trkpt lat="45.34463" lon="5.78187">
        <ele>869.281717556</ele>
        <time>2015-07-05T09:43:41Z</time>
      </trkpt>
      <trkpt lat="45.3447" lon="5.78239">
        <ele>867.742405121</ele>
        <time>2015-07-05T09:43:51Z</time>
      </trkpt>
      <trkpt lat="45.34467" lon="5.78258">
        <ele>865.912028072</ele>
        <time>2015-07-05T09:43:56Z</time>
      </trkpt>
      <trkpt lat="45.34458" lon="5.78306">
        <ele>864.39398262</ele>
        <time>2015-07-05T09:44:06Z</time>
      </trkpt>
      <trkpt lat="45.3446" lon="5.78321">
        <ele>862.881662215</ele>
        <time>2015-07-05T09:44:11Z</time>
      </trkpt>
      <trkpt lat="45.34471" lon="5.78389">
        <ele>860.80260544</ele>
        <time>2015-07-05T09:44:26Z</time>
      </trkpt>
      <trkpt lat="45.34479" lon="5.78457">
        <ele>858.492515534</ele>
        <time>2015-07-05T09:44:41Z</time>
      </trkpt>
      <trkpt lat="45.34487" lon="5.78485">
        <ele>856.118821656</ele>
        <time>2015-07-05T09:44:46Z</time>
      </trkpt>
      <trkpt lat="45.34488" lon="5.78544">
        <ele>853.69256404</ele>
        <time>2015-07-05T09:44:56Z</time>
      </trkpt>
      <trkpt lat="45.34491" lon="5.78563">
        <ele>851.223955412</ele>
        <time>2015-07-05T09:45:01Z</time>
      </trkpt>
      <trkpt lat="45.345" lon="5.78615">
        <ele>848.72240649</ele>
        <time>2015-07-05T09:45:11Z</time>
      </trkpt>
      <trkpt lat="45.34504" lon="5.7863">
        <ele>846.340663927</ele>
        <time>2015-07-05T09:45:16Z</time>
      </trkpt>
      <trkpt lat="45.34513" lon="5.78669">
        <ele>843.643291232</ele>
        <time>2015-07-05T09:45:26Z</time>
      </trkpt>
      <trkpt lat="45.34519" lon="5.78692">
        <ele>841.380427923</ele>
        <time>2015-07-05T09:45:31Z</time>
      </trkpt>
      <trkpt lat="45.34522" lon="5.78738">
        <ele>838.804588935</ele>
        <time>2015-07-05T09:45:41Z</time>
      </trkpt>
      <trkpt lat="45.34522" lon="5.78767">
        <ele>835.800329081</ele>
        <time>2015-07-05T09:45:46Z</time>
      </trkpt>
      <trkpt lat="45.34522" lon="5.78798">
        <ele>831.685243018</ele>
        <time>2015-07-05T09:45:56Z</time>
      </trkpt>
      <trkpt lat="45.34519" lon="5.78816">
        <ele>827.415188703</ele>
        <time>2015-07-05T09:46:01Z</time>
      </trkpt>
      <trkpt lat="45.34518" lon="5.78871">
        <ele>823.155471844</ele>
        <time>2015-07-05T09:46:16Z</time>
      </trkpt>
      <trkpt lat="45.34526" lon="5.78901">
        <ele>818.626666259</ele>
        <time>2015-07-05T09:46:31Z</time>
      </trkpt>
      <trkpt lat="45.34528" lon="5.78898">
        <ele>818.626666259</ele>
        <time>2015-07-05T09:46:46Z</time>
      </trkpt>
      <trkpt lat="45.34528" lon="5.78898">
        <ele>818.626666259</ele>
        <time>2015-07-05T09:46:51Z</time>
      </trkpt>
      <trkpt lat="45.34528" lon="5.78898">
        <ele>818.626666259</ele>
        <time>2015-07-05T09:47:01Z</time>
      </trkpt>
      <trkpt lat="45.34535" lon="5.78912">
        <ele>813.85861058</ele>
        <time>2015-07-05T09:47:06Z</time>
      </trkpt>
      <trkpt lat="45.34547" lon="5.78935">
        <ele>809.311705579</ele>
        <time>2015-07-05T09:47:16Z</time>
      </trkpt>
      <trkpt lat="45.34547" lon="5.78935">
        <ele>809.311705579</ele>
        <time>2015-07-05T09:47:21Z</time>
      </trkpt>
      <trkpt lat="45.34547" lon="5.78943">
        <ele>809.311705579</ele>
        <time>2015-07-05T09:47:31Z</time>
      </trkpt>
      <trkpt lat="45.3455" lon="5.78954">
        <ele>804.258759256</ele>
        <time>2015-07-05T09:47:36Z</time>
      </trkpt>
      <trkpt lat="45.34568" lon="5.78985">
        <ele>800.332925595</ele>
        <time>2015-07-05T09:47:51Z</time>
      </trkpt>
      <trkpt lat="45.34578" lon="5.79002">
        <ele>797.02639255</ele>
        <time>2015-07-05T09:47:56Z</time>
      </trkpt>
      <trkpt lat="45.34591" lon="5.79037">
        <ele>793.578412273</ele>
        <time>2015-07-05T09:48:05Z</time>
      </trkpt>
      <trkpt lat="45.34583" lon="5.79089">
        <ele>789.572460696</ele>
        <time>2015-07-05T09:48:21Z</time>
      </trkpt>
      <trkpt lat="45.34577" lon="5.79104">
        <ele>785.48856688</ele>
        <time>2015-07-05T09:48:26Z</time>
      </trkpt>
      <trkpt lat="45.34558" lon="5.79136">
        <ele>781.627330976</ele>
        <time>2015-07-05T09:48:36Z</time>
      </trkpt>
      <trkpt lat="45.34554" lon="5.79152">
        <ele>777.978153348</ele>
        <time>2015-07-05T09:48:41Z</time>
      </trkpt>
      <trkpt lat="45.34535" lon="5.79178">
        <ele>775.250907879</ele>
        <time>2015-07-05T09:48:51Z</time>
      </trkpt>
      <trkpt lat="45.34534" lon="5.79195">
        <ele>772.803476458</ele>
        <time>2015-07-05T09:48:56Z</time>
      </trkpt>
      <trkpt lat="45.34558" lon="5.79235">
        <ele>770.904546273</ele>
        <time>2015-07-05T09:49:06Z</time>
      </trkpt>
      <trkpt lat="45.34555" lon="5.79249">
        <ele>769.22485276</ele>
        <time>2015-07-05T09:49:10Z</time>
      </trkpt>
      <trkpt lat="45.34546" lon="5.79278">
        <ele>768.611382638</ele>
        <time>2015-07-05T09:49:21Z</time>
      </trkpt>
      <trkpt lat="45.34548" lon="5.79298">
        <ele>767.395833565</ele>
        <time>2015-07-05T09:49:26Z</time>
      </trkpt>
      <trkpt lat="45.34539" lon="5.7935">
        <ele>765.042754961</ele>
        <time>2015-07-05T09:49:41Z</time>
      </trkpt>
      <trkpt lat="45.34548" lon="5.79416">
        <ele>763.076629984</ele>
        <time>2015-07-05T09:49:56Z</time>
      </trkpt>
      <trkpt lat="45.3455" lon="5.7943">
        <ele>761.899961908</ele>
        <time>2015-07-05T09:50:01Z</time>
      </trkpt>
      <trkpt lat="45.34545" lon="5.79463">
        <ele>760.442247714</ele>
        <time>2015-07-05T09:50:11Z</time>
      </trkpt>
      <trkpt lat="45.34537" lon="5.79476">
        <ele>758.865203953</ele>
        <time>2015-07-05T09:50:15Z</time>
      </trkpt>
      <trkpt lat="45.34524" lon="5.79487">
        <ele>757.895367421</ele>
        <time>2015-07-05T09:50:20Z</time>
      </trkpt>
    </trkseg>
  </trk>
</gpx>